Wetterdaten: Freitag, 15.07.2016
Datum Zeit Temp. A. Feuchte A. Luftdruck Regen Wind Richtung Richtung Sonnenschein ET UV Solar Taupunkt Windchill Windben Empfang
15.07.2016 00:00 10,8 C 94 % 1019,9 hPa 0,0 l/m 6,2 km/h (2 Bft) W-SW 249 0 min 0,000 mm 0,0 UV-I 0 W/m 9,9 C 10,8 C 9,7 km/h (2 Bft) 100,00 %
15.07.2016 00:02 10,8 C 95 % 1020,0 hPa 0,0 l/m 4,6 km/h (1 Bft) W 263 0 min 0,000 mm 0,0 UV-I 0 W/m 10,0 C 10,8 C 6,4 km/h (2 Bft) 100,00 %
15.07.2016 00:04 10,8 C 95 % 1020,0 hPa 0,0 l/m 6,6 km/h (2 Bft) SW 236 0 min 0,000 mm 0,0 UV-I 0 W/m 10,0 C 10,7 C 9,7 km/h (2 Bft) 97,87 %
15.07.2016 00:06 10,8 C 95 % 1020,0 hPa 0,0 l/m 6,9 km/h (2 Bft) SW 229 0 min 0,000 mm 0,0 UV-I 0 W/m 10,0 C 10,5 C 9,7 km/h (2 Bft) 97,87 %
15.07.2016 00:08 10,8 C 95 % 1020,0 hPa 0,0 l/m 6,0 km/h (2 Bft) W-SW 238 0 min 0,000 mm 0,0 UV-I 0 W/m 10,0 C 10,8 C 9,7 km/h (2 Bft) 100,00 %
15.07.2016 00:10 10,8 C 95 % 1020,0 hPa 0,0 l/m 5,9 km/h (2 Bft) W-SW 244 0 min 0,000 mm 0,0 UV-I 0 W/m 10,0 C 10,8 C 9,7 km/h (2 Bft) 100,00 %
15.07.2016 00:12 10,9 C 95 % 1020,0 hPa 0,0 l/m 7,7 km/h (2 Bft) W 266 0 min 0,000 mm 0,0 UV-I 0 W/m 10,1 C 10,0 C 14,5 km/h (3 Bft) 97,87 %
15.07.2016 00:14 10,9 C 95 % 1020,2 hPa 0,0 l/m 8,4 km/h (2 Bft) W 263 0 min 0,000 mm 0,0 UV-I 0 W/m 10,1 C 9,5 C 12,9 km/h (3 Bft) 97,87 %
15.07.2016 00:16 11,0 C 95 % 1020,2 hPa 0,0 l/m 8,0 km/h (2 Bft) W 268 0 min 0,000 mm 0,0 UV-I 0 W/m 10,2 C 9,9 C 11,3 km/h (2 Bft) 97,87 %
15.07.2016 00:18 11,0 C 95 % 1020,2 hPa 0,0 l/m 4,6 km/h (1 Bft) W-NW 295 0 min 0,000 mm 0,0 UV-I 0 W/m 10,2 C 11,0 C 6,4 km/h (2 Bft) 100,00 %
15.07.2016 00:20 11,1 C 95 % 1020,3 hPa 0,0 l/m 5,0 km/h (1 Bft) W 263 0 min 0,000 mm 0,0 UV-I 0 W/m 10,3 C 11,1 C 9,7 km/h (2 Bft) 100,00 %
15.07.2016 00:22 11,1 C 95 % 1020,2 hPa 0,0 l/m 7,6 km/h (2 Bft) W-SW 242 0 min 0,000 mm 0,0 UV-I 0 W/m 10,3 C 10,3 C 12,9 km/h (3 Bft) 100,00 %
15.07.2016 00:24 11,1 C 95 % 1020,2 hPa 0,0 l/m 10,1 km/h (2 Bft) W-SW 252 0 min 0,000 mm 0,0 UV-I 0 W/m 10,3 C 8,8 C 19,3 km/h (3 Bft) 97,83 %
15.07.2016 00:26 11,2 C 95 % 1020,2 hPa 0,0 l/m 9,9 km/h (2 Bft) W 259 0 min 0,000 mm 0,0 UV-I 0 W/m 10,4 C 9,0 C 16,1 km/h (3 Bft) 100,00 %
15.07.2016 00:28 11,2 C 94 % 1020,2 hPa 0,0 l/m 9,0 km/h (2 Bft) W-SW 252 0 min 0,000 mm 0,0 UV-I 0 W/m 10,3 C 9,5 C 12,9 km/h (3 Bft) 100,00 %
15.07.2016 00:30 11,2 C 94 % 1020,1 hPa 0,0 l/m 8,7 km/h (2 Bft) SW 229 0 min 0,000 mm 0,0 UV-I 0 W/m 10,3 C 9,7 C 14,5 km/h (3 Bft) 97,87 %
15.07.2016 00:32 11,2 C 94 % 1020,1 hPa 0,0 l/m 10,4 km/h (2 Bft) W 264 0 min 0,000 mm 0,0 UV-I 0 W/m 10,3 C 8,7 C 16,1 km/h (3 Bft) 100,00 %
15.07.2016 00:34 11,3 C 93 % 1020,1 hPa 0,0 l/m 11,4 km/h (2 Bft) SW 226 0 min 0,000 mm 0,0 UV-I 0 W/m 10,2 C 8,3 C 17,7 km/h (3 Bft) 100,00 %
15.07.2016 00:36 11,3 C 93 % 1020,1 hPa 0,0 l/m 15,5 km/h (3 Bft) SW 228 0 min 0,000 mm 0,0 UV-I 0 W/m 10,2 C 6,5 C 20,9 km/h (4 Bft) 100,00 %
15.07.2016 00:38 11,3 C 92 % 1020,1 hPa 0,0 l/m 13,4 km/h (3 Bft) W-SW 246 0 min 0,000 mm 0,0 UV-I 0 W/m 10,0 C 7,4 C 19,3 km/h (3 Bft) 100,00 %
15.07.2016 00:40 11,3 C 92 % 1020,1 hPa 0,0 l/m 13,9 km/h (3 Bft) W-SW 257 0 min 0,000 mm 0,0 UV-I 0 W/m 10,0 C 7,2 C 19,3 km/h (3 Bft) 97,87 %
15.07.2016 00:42 11,3 C 92 % 1020,1 hPa 0,0 l/m 11,3 km/h (2 Bft) W-SW 254 0 min 0,000 mm 0,0 UV-I 0 W/m 10,0 C 8,4 C 20,9 km/h (4 Bft) 100,00 %
15.07.2016 00:44 11,4 C 92 % 1020,0 hPa 0,0 l/m 11,4 km/h (2 Bft) SW 224 0 min 0,000 mm 0,0 UV-I 0 W/m 10,1 C 8,4 C 19,3 km/h (3 Bft) 100,00 %
15.07.2016 00:46 11,3 C 91 % 1020,0 hPa 0,0 l/m 12,4 km/h (3 Bft) SW 232 0 min 0,000 mm 0,0 UV-I 0 W/m 9,9 C 7,8 C 20,9 km/h (4 Bft) 97,87 %
15.07.2016 00:48 11,3 C 91 % 1020,0 hPa 0,0 l/m 15,6 km/h (3 Bft) W-SW 242 0 min 0,000 mm 0,0 UV-I 0 W/m 9,9 C 6,5 C 24,1 km/h (4 Bft) 100,00 %
15.07.2016 00:50 11,3 C 91 % 1020,0 hPa 0,0 l/m 13,7 km/h (3 Bft) W-SW 240 0 min 0,000 mm 0,0 UV-I 0 W/m 9,9 C 7,2 C 19,3 km/h (3 Bft) 97,37 %
15.07.2016 00:52 11,4 C 91 % 1020,0 hPa 0,0 l/m 12,9 km/h (3 Bft) W-SW 240 0 min 0,000 mm 0,0 UV-I 0 W/m 10,0 C 7,7 C 20,9 km/h (4 Bft) 100,00 %
15.07.2016 00:54 11,4 C 91 % 1020,0 hPa 0,0 l/m 13,7 km/h (3 Bft) SW 235 0 min 0,000 mm 0,0 UV-I 0 W/m 10,0 C 7,4 C 20,9 km/h (4 Bft) 97,87 %
15.07.2016 00:56 11,4 C 91 % 1020,0 hPa 0,0 l/m 14,4 km/h (3 Bft) S-SW 205 0 min 0,000 mm 0,0 UV-I 0 W/m 10,0 C 7,1 C 22,5 km/h (4 Bft) 95,74 %
15.07.2016 00:58 11,4 C 91 % 1020,0 hPa 0,0 l/m 14,1 km/h (3 Bft) SW 232 0 min 0,000 mm 0,0 UV-I 0 W/m 10,0 C 7,2 C 20,9 km/h (4 Bft) 100,00 %
15.07.2016 01:00 11,4 C 90 % 1020,1 hPa 0,0 l/m 13,2 km/h (3 Bft) SW 223 0 min 0,000 mm 0,0 UV-I 0 W/m 9,8 C 7,6 C 20,9 km/h (4 Bft) 97,87 %
15.07.2016 01:02 11,5 C 90 % 1020,1 hPa 0,0 l/m 12,6 km/h (3 Bft) SW 227 0 min 0,000 mm 0,0 UV-I 0 W/m 9,9 C 8,0 C 20,9 km/h (4 Bft) 95,74 %
15.07.2016 01:04 11,5 C 90 % 1020,1 hPa 0,0 l/m 12,2 km/h (2 Bft) W-SW 254 0 min 0,000 mm 0,0 UV-I 0 W/m 9,9 C 8,1 C 20,9 km/h (4 Bft) 97,92 %
15.07.2016 01:06 11,5 C 90 % 1020,1 hPa 0,0 l/m 12,0 km/h (2 Bft) W-SW 251 0 min 0,000 mm 0,0 UV-I 0 W/m 9,9 C 8,2 C 19,3 km/h (3 Bft) 98,00 %
15.07.2016 01:08 11,5 C 90 % 1020,1 hPa 0,0 l/m 13,6 km/h (3 Bft) W 259 0 min 0,000 mm 0,0 UV-I 0 W/m 9,9 C 7,5 C 20,9 km/h (4 Bft) 97,87 %
15.07.2016 01:10 11,5 C 90 % 1020,2 hPa 0,0 l/m 14,0 km/h (3 Bft) W-SW 246 0 min 0,000 mm 0,0 UV-I 0 W/m 9,9 C 7,4 C 20,9 km/h (4 Bft) 100,00 %
15.07.2016 01:12 11,5 C 90 % 1020,2 hPa 0,0 l/m 13,2 km/h (3 Bft) S-SW 209 0 min 0,000 mm 0,0 UV-I 0 W/m 9,9 C 7,7 C 17,7 km/h (3 Bft) 97,87 %
15.07.2016 01:14 11,5 C 89 % 1020,2 hPa 0,0 l/m 13,3 km/h (3 Bft) SW 220 0 min 0,000 mm 0,0 UV-I 0 W/m 9,8 C 7,7 C 20,9 km/h (4 Bft) 100,00 %
15.07.2016 01:16 11,6 C 89 % 1020,3 hPa 0,0 l/m 11,7 km/h (2 Bft) SW 234 0 min 0,000 mm 0,0 UV-I 0 W/m 9,8 C 8,5 C 20,9 km/h (4 Bft) 100,00 %
15.07.2016 01:18 11,6 C 89 % 1020,3 hPa 0,0 l/m 13,9 km/h (3 Bft) W-SW 248 0 min 0,000 mm 0,0 UV-I 0 W/m 9,8 C 7,5 C 22,5 km/h (4 Bft) 100,00 %
15.07.2016 01:20 11,6 C 90 % 1020,3 hPa 0,0 l/m 14,3 km/h (3 Bft) SW 216 0 min 0,000 mm 0,0 UV-I 0 W/m 10,0 C 7,4 C 19,3 km/h (3 Bft) 98,00 %
15.07.2016 01:22 11,6 C 90 % 1020,4 hPa 0,0 l/m 13,6 km/h (3 Bft) S-SW 207 0 min 0,000 mm 0,0 UV-I 0 W/m 10,0 C 7,6 C 20,9 km/h (4 Bft) 97,87 %
15.07.2016 01:24 11,6 C 90 % 1020,3 hPa 0,0 l/m 12,3 km/h (3 Bft) SW 216 0 min 0,000 mm 0,0 UV-I 0 W/m 10,0 C 8,2 C 17,7 km/h (3 Bft) 100,00 %
15.07.2016 01:26 11,5 C 90 % 1020,3 hPa 0,0 l/m 12,0 km/h (2 Bft) SW 217 0 min 0,000 mm 0,0 UV-I 0 W/m 9,9 C 8,2 C 19,3 km/h (3 Bft) 100,00 %
15.07.2016 01:28 11,5 C 90 % 1020,3 hPa 0,0 l/m 12,5 km/h (3 Bft) SW 225 0 min 0,000 mm 0,0 UV-I 0 W/m 9,9 C 8,0 C 20,9 km/h (4 Bft) 98,00 %
15.07.2016 01:30 11,5 C 90 % 1020,4 hPa 0,0 l/m 12,4 km/h (3 Bft) SW 225 0 min 0,000 mm 0,0 UV-I 0 W/m 9,9 C 8,1 C 17,7 km/h (3 Bft) 93,62 %
15.07.2016 01:32 11,5 C 90 % 1020,4 hPa 0,0 l/m 13,5 km/h (3 Bft) W-SW 248 0 min 0,000 mm 0,0 UV-I 0 W/m 9,9 C 7,6 C 19,3 km/h (3 Bft) 100,00 %
15.07.2016 01:34 11,4 C 90 % 1020,4 hPa 0,0 l/m 11,2 km/h (2 Bft) W-SW 240 0 min 0,000 mm 0,0 UV-I 0 W/m 9,8 C 8,5 C 14,5 km/h (3 Bft) 95,74 %
15.07.2016 01:36 11,4 C 90 % 1020,3 hPa 0,0 l/m 12,9 km/h (3 Bft) W-SW 246 0 min 0,000 mm 0,0 UV-I 0 W/m 9,8 C 7,7 C 19,3 km/h (3 Bft) 98,00 %
15.07.2016 01:38 11,4 C 90 % 1020,3 hPa 0,0 l/m 10,9 km/h (2 Bft) SW 222 0 min 0,000 mm 0,0 UV-I 0 W/m 9,8 C 8,7 C 16,1 km/h (3 Bft) 97,87 %
15.07.2016 01:40 11,4 C 90 % 1020,3 hPa 0,0 l/m 14,1 km/h (3 Bft) SW 218 0 min 0,000 mm 0,0 UV-I 0 W/m 9,8 C 7,2 C 17,7 km/h (3 Bft) 97,87 %
15.07.2016 01:42 11,4 C 90 % 1020,4 hPa 0,0 l/m 13,3 km/h (3 Bft) W-SW 243 0 min 0,000 mm 0,0 UV-I 0 W/m 9,8 C 7,5 C 22,5 km/h (4 Bft) 97,92 %
15.07.2016 01:44 11,4 C 90 % 1020,4 hPa 0,0 l/m 12,9 km/h (3 Bft) W-SW 244 0 min 0,000 mm 0,0 UV-I 0 W/m 9,8 C 7,7 C 19,3 km/h (3 Bft) 97,87 %
15.07.2016 01:46 11,4 C 89 % 1020,3 hPa 0,0 l/m 15,1 km/h (3 Bft) SW 223 0 min 0,000 mm 0,0 UV-I 0 W/m 9,7 C 6,8 C 24,1 km/h (4 Bft) 97,87 %
15.07.2016 01:48 11,5 C 89 % 1020,3 hPa 0,0 l/m 14,8 km/h (3 Bft) W-SW 240 0 min 0,000 mm 0,0 UV-I 0 W/m 9,8 C 7,0 C 20,9 km/h (4 Bft) 96,00 %
15.07.2016 01:50 11,6 C 89 % 1020,3 hPa 0,0 l/m 13,8 km/h (3 Bft) SW 226 0 min 0,000 mm 0,0 UV-I 0 W/m 9,8 C 7,6 C 19,3 km/h (3 Bft) 97,87 %
15.07.2016 01:52 11,6 C 89 % 1020,3 hPa 0,0 l/m 15,9 km/h (3 Bft) SW 222 0 min 0,000 mm 0,0 UV-I 0 W/m 9,8 C 6,7 C 20,9 km/h (4 Bft) 97,87 %
15.07.2016 01:54 11,6 C 88 % 1020,3 hPa 0,0 l/m 11,6 km/h (2 Bft) SW 227 0 min 0,000 mm 0,0 UV-I 0 W/m 9,7 C 8,5 C 19,3 km/h (3 Bft) 97,87 %
15.07.2016 01:56 11,6 C 88 % 1020,3 hPa 0,0 l/m 13,9 km/h (3 Bft) W 261 0 min 0,000 mm 0,0 UV-I 0 W/m 9,7 C 7,5 C 20,9 km/h (4 Bft) 98,00 %
15.07.2016 01:58 11,6 C 88 % 1020,3 hPa 0,0 l/m 12,9 km/h (3 Bft) SW 232 0 min 0,000 mm 0,0 UV-I 0 W/m 9,7 C 7,9 C 17,7 km/h (3 Bft) 97,37 %
15.07.2016 02:00 11,6 C 89 % 1020,3 hPa 0,0 l/m 11,3 km/h (2 Bft) SW 215 0 min 0,025 mm 0,0 UV-I 0 W/m 9,8 C 8,7 C 16,1 km/h (3 Bft) 96,00 %
15.07.2016 02:02 11,6 C 88 % 1020,3 hPa 0,0 l/m 13,7 km/h (3 Bft) W 260 0 min 0,000 mm 0,0 UV-I 0 W/m 9,7 C 7,6 C 17,7 km/h (3 Bft) 97,87 %
15.07.2016 02:04 11,6 C 89 % 1020,3 hPa 0,0 l/m 14,8 km/h (3 Bft) SW 217 0 min 0,000 mm 0,0 UV-I 0 W/m 9,8 C 7,2 C 22,5 km/h (4 Bft) 98,00 %
15.07.2016 02:06 11,5 C 89 % 1020,3 hPa 0,0 l/m 11,4 km/h (2 Bft) W-SW 249 0 min 0,000 mm 0,0 UV-I 0 W/m 9,8 C 8,5 C 16,1 km/h (3 Bft) 100,00 %
15.07.2016 02:08 11,5 C 89 % 1020,3 hPa 0,0 l/m 18,1 km/h (3 Bft) W-SW 246 0 min 0,000 mm 0,0 UV-I 0 W/m 9,8 C 5,8 C 22,5 km/h (4 Bft) 100,00 %
15.07.2016 02:10 11,4 C 89 % 1020,3 hPa 0,0 l/m 13,0 km/h (3 Bft) SW 227 0 min 0,000 mm 0,0 UV-I 0 W/m 9,7 C 7,7 C 19,3 km/h (3 Bft) 100,00 %
15.07.2016 02:12 11,4 C 89 % 1020,3 hPa 0,0 l/m 14,3 km/h (3 Bft) W-SW 238 0 min 0,000 mm 0,0 UV-I 0 W/m 9,7 C 7,1 C 22,5 km/h (4 Bft) 97,87 %
15.07.2016 02:14 11,4 C 89 % 1020,3 hPa 0,0 l/m 13,2 km/h (3 Bft) W-SW 254 0 min 0,000 mm 0,0 UV-I 0 W/m 9,7 C 7,6 C 19,3 km/h (3 Bft) 100,00 %
15.07.2016 02:16 11,4 C 89 % 1020,2 hPa 0,0 l/m 13,6 km/h (3 Bft) W 261 0 min 0,000 mm 0,0 UV-I 0 W/m 9,7 C 7,4 C 17,7 km/h (3 Bft) 100,00 %
15.07.2016 02:18 11,4 C 90 % 1020,3 hPa 0,0 l/m 14,8 km/h (3 Bft) SW 234 0 min 0,000 mm 0,0 UV-I 0 W/m 9,8 C 6,9 C 22,5 km/h (4 Bft) 95,74 %
15.07.2016 02:20 11,3 C 89 % 1020,2 hPa 0,0 l/m 13,2 km/h (3 Bft) W-SW 257 0 min 0,000 mm 0,0 UV-I 0 W/m 9,6 C 7,5 C 19,3 km/h (3 Bft) 100,00 %
15.07.2016 02:22 11,3 C 90 % 1020,3 hPa 0,0 l/m 12,3 km/h (3 Bft) W 263 0 min 0,000 mm 0,0 UV-I 0 W/m 9,7 C 7,9 C 19,3 km/h (3 Bft) 100,00 %
15.07.2016 02:24 11,3 C 90 % 1020,3 hPa 0,0 l/m 12,9 km/h (3 Bft) W-SW 239 0 min 0,000 mm 0,0 UV-I 0 W/m 9,7 C 7,6 C 22,5 km/h (4 Bft) 100,00 %
15.07.2016 02:26 11,4 C 90 % 1020,3 hPa 0,0 l/m 14,5 km/h (3 Bft) W 281 0 min 0,000 mm 0,0 UV-I 0 W/m 9,8 C 7,0 C 20,9 km/h (4 Bft) 100,00 %
15.07.2016 02:28 11,4 C 90 % 1020,3 hPa 0,0 l/m 13,6 km/h (3 Bft) SW 231 0 min 0,000 mm 0,0 UV-I 0 W/m 9,8 C 7,4 C 20,9 km/h (4 Bft) 98,00 %
15.07.2016 02:30 11,4 C 90 % 1020,3 hPa 0,0 l/m 13,1 km/h (3 Bft) W-SW 252 0 min 0,000 mm 0,0 UV-I 0 W/m 9,8 C 7,6 C 20,9 km/h (4 Bft) 100,00 %
15.07.2016 02:32 11,4 C 90 % 1020,3 hPa 0,0 l/m 12,9 km/h (3 Bft) S-SW 193 0 min 0,000 mm 0,0 UV-I 0 W/m 9,8 C 7,7 C 17,7 km/h (3 Bft) 100,00 %
15.07.2016 02:34 11,4 C 90 % 1020,3 hPa 0,0 l/m 11,4 km/h (2 Bft) W-SW 242 0 min 0,000 mm 0,0 UV-I 0 W/m 9,8 C 8,4 C 17,7 km/h (3 Bft) 97,37 %
15.07.2016 02:36 11,4 C 90 % 1020,3 hPa 0,0 l/m 12,7 km/h (3 Bft) SW 224 0 min 0,000 mm 0,0 UV-I 0 W/m 9,8 C 7,8 C 20,9 km/h (4 Bft) 97,87 %
15.07.2016 02:38 11,4 C 90 % 1020,4 hPa 0,0 l/m 14,8 km/h (3 Bft) W-SW 242 0 min 0,000 mm 0,0 UV-I 0 W/m 9,8 C 6,9 C 24,1 km/h (4 Bft) 100,00 %
15.07.2016 02:40 11,4 C 90 % 1020,4 hPa 0,0 l/m 15,1 km/h (3 Bft) W-SW 256 0 min 0,000 mm 0,0 UV-I 0 W/m 9,8 C 6,8 C 22,5 km/h (4 Bft) 97,87 %
15.07.2016 02:42 11,4 C 90 % 1020,4 hPa 0,0 l/m 15,2 km/h (3 Bft) S 187 0 min 0,000 mm 0,0 UV-I 0 W/m 9,8 C 6,8 C 20,9 km/h (4 Bft) 100,00 %
15.07.2016 02:44 11,4 C 90 % 1020,4 hPa 0,0 l/m 14,3 km/h (3 Bft) S-SW 208 0 min 0,000 mm 0,0 UV-I 0 W/m 9,8 C 7,1 C 19,3 km/h (3 Bft) 100,00 %
15.07.2016 02:46 11,4 C 90 % 1020,4 hPa 0,0 l/m 14,4 km/h (3 Bft) W-SW 254 0 min 0,000 mm 0,0 UV-I 0 W/m 9,8 C 7,1 C 25,7 km/h (4 Bft) 100,00 %
15.07.2016 02:48 11,4 C 90 % 1020,4 hPa 0,0 l/m 11,8 km/h (2 Bft) SW 232 0 min 0,000 mm 0,0 UV-I 0 W/m 9,8 C 8,2 C 16,1 km/h (3 Bft) 100,00 %
15.07.2016 02:50 11,4 C 90 % 1020,4 hPa 0,0 l/m 14,3 km/h (3 Bft) W-SW 248 0 min 0,000 mm 0,0 UV-I 0 W/m 9,8 C 7,1 C 22,5 km/h (4 Bft) 100,00 %
15.07.2016 02:52 11,4 C 90 % 1020,4 hPa 0,0 l/m 16,3 km/h (3 Bft) W 266 0 min 0,000 mm 0,0 UV-I 0 W/m 9,8 C 6,3 C 25,7 km/h (4 Bft) 97,87 %
15.07.2016 02:54 11,4 C 90 % 1020,4 hPa 0,0 l/m 13,3 km/h (3 Bft) SW 226 0 min 0,000 mm 0,0 UV-I 0 W/m 9,8 C 7,5 C 19,3 km/h (3 Bft) 100,00 %
15.07.2016 02:56 11,4 C 90 % 1020,4 hPa 0,0 l/m 14,3 km/h (3 Bft) W-SW 240 0 min 0,000 mm 0,0 UV-I 0 W/m 9,8 C 7,1 C 20,9 km/h (4 Bft) 97,87 %
15.07.2016 02:58 11,4 C 90 % 1020,4 hPa 0,0 l/m 12,0 km/h (2 Bft) W-SW 238 0 min 0,000 mm 0,0 UV-I 0 W/m 9,8 C 8,1 C 20,9 km/h (4 Bft) 95,74 %
15.07.2016 03:00 11,4 C 90 % 1020,4 hPa 0,0 l/m 12,7 km/h (3 Bft) W-SW 239 0 min 0,026 mm 0,0 UV-I 0 W/m 9,8 C 7,8 C 17,7 km/h (3 Bft) 97,87 %
15.07.2016 03:02 11,4 C 90 % 1020,4 hPa 0,0 l/m 15,0 km/h (3 Bft) W-SW 247 0 min 0,000 mm 0,0 UV-I 0 W/m 9,8 C 6,8 C 22,5 km/h (4 Bft) 100,00 %
15.07.2016 03:04 11,4 C 90 % 1020,4 hPa 0,0 l/m 14,7 km/h (3 Bft) SW 217 0 min 0,000 mm 0,0 UV-I 0 W/m 9,8 C 6,9 C 22,5 km/h (4 Bft) 97,87 %
15.07.2016 03:06 11,4 C 90 % 1020,4 hPa 0,0 l/m 13,4 km/h (3 Bft) W-SW 241 0 min 0,000 mm 0,0 UV-I 0 W/m 9,8 C 7,5 C 20,9 km/h (4 Bft) 100,00 %
15.07.2016 03:08 11,4 C 90 % 1020,4 hPa 0,0 l/m 15,5 km/h (3 Bft) SW 223 0 min 0,000 mm 0,0 UV-I 0 W/m 9,8 C 6,6 C 24,1 km/h (4 Bft) 100,00 %
15.07.2016 03:10 11,4 C 90 % 1020,4 hPa 0,0 l/m 12,6 km/h (3 Bft) W 261 0 min 0,000 mm 0,0 UV-I 0 W/m 9,8 C 7,8 C 19,3 km/h (3 Bft) 100,00 %
15.07.2016 03:12 11,4 C 90 % 1020,4 hPa 0,0 l/m 14,3 km/h (3 Bft) S-SW 201 0 min 0,000 mm 0,0 UV-I 0 W/m 9,8 C 7,1 C 22,5 km/h (4 Bft) 97,22 %
15.07.2016 03:14 11,4 C 90 % 1020,4 hPa 0,0 l/m 14,8 km/h (3 Bft) W-SW 244 0 min 0,000 mm 0,0 UV-I 0 W/m 9,8 C 6,9 C 19,3 km/h (3 Bft) 93,62 %
15.07.2016 03:16 11,4 C 90 % 1020,4 hPa 0,0 l/m 14,0 km/h (3 Bft) S-SW 194 0 min 0,000 mm 0,0 UV-I 0 W/m 9,8 C 7,2 C 19,3 km/h (3 Bft) 100,00 %
15.07.2016 03:18 11,4 C 90 % 1020,4 hPa 0,0 l/m 13,6 km/h (3 Bft) S-SW 210 0 min 0,000 mm 0,0 UV-I 0 W/m 9,8 C 7,4 C 17,7 km/h (3 Bft) 95,74 %
15.07.2016 03:20 11,4 C 90 % 1020,4 hPa 0,0 l/m 12,9 km/h (3 Bft) SW 229 0 min 0,000 mm 0,0 UV-I 0 W/m 9,8 C 7,7 C 19,3 km/h (3 Bft) 100,00 %
15.07.2016 03:22 11,4 C 91 % 1020,4 hPa 0,0 l/m 13,2 km/h (3 Bft) SW 219 0 min 0,000 mm 0,0 UV-I 0 W/m 10,0 C 7,6 C 17,7 km/h (3 Bft) 100,00 %
15.07.2016 03:24 11,4 C 91 % 1020,3 hPa 0,0 l/m 12,6 km/h (3 Bft) W-SW 240 0 min 0,000 mm 0,0 UV-I 0 W/m 10,0 C 7,8 C 20,9 km/h (4 Bft) 97,87 %
15.07.2016 03:26 11,4 C 91 % 1020,3 hPa 0,0 l/m 11,8 km/h (2 Bft) W-SW 249 0 min 0,000 mm 0,0 UV-I 0 W/m 10,0 C 8,2 C 19,3 km/h (3 Bft) 97,87 %
15.07.2016 03:28 11,4 C 91 % 1020,3 hPa 0,0 l/m 12,1 km/h (2 Bft) W-SW 255 0 min 0,000 mm 0,0 UV-I 0 W/m 10,0 C 8,1 C 17,7 km/h (3 Bft) 100,00 %
15.07.2016 03:30 11,4 C 91 % 1020,3 hPa 0,0 l/m 13,0 km/h (3 Bft) SW 227 0 min 0,000 mm 0,0 UV-I 0 W/m 10,0 C 7,7 C 17,7 km/h (3 Bft) 97,87 %
15.07.2016 03:32 11,4 C 91 % 1020,4 hPa 0,0 l/m 13,4 km/h (3 Bft) SW 234 0 min 0,000 mm 0,0 UV-I 0 W/m 10,0 C 7,5 C 24,1 km/h (4 Bft) 94,00 %
15.07.2016 03:34 11,4 C 91 % 1020,4 hPa 0,0 l/m 12,9 km/h (3 Bft) SW 217 0 min 0,000 mm 0,0 UV-I 0 W/m 10,0 C 7,7 C 24,1 km/h (4 Bft) 96,00 %
15.07.2016 03:36 11,4 C 91 % 1020,4 hPa 0,0 l/m 11,3 km/h (2 Bft) W-SW 240 0 min 0,000 mm 0,0 UV-I 0 W/m 10,0 C 8,5 C 19,3 km/h (3 Bft) 95,74 %
15.07.2016 03:38 11,4 C 91 % 1020,4 hPa 0,0 l/m 10,9 km/h (2 Bft) S-SW 212 0 min 0,000 mm 0,0 UV-I 0 W/m 10,0 C 8,7 C 16,1 km/h (3 Bft) 97,87 %
15.07.2016 03:40 11,4 C 91 % 1020,4 hPa 0,0 l/m 12,1 km/h (2 Bft) W-SW 257 0 min 0,000 mm 0,0 UV-I 0 W/m 10,0 C 8,1 C 19,3 km/h (3 Bft) 97,87 %
15.07.2016 03:42 11,4 C 91 % 1020,5 hPa 0,0 l/m 13,9 km/h (3 Bft) S-SW 197 0 min 0,000 mm 0,0 UV-I 0 W/m 10,0 C 7,3 C 20,9 km/h (4 Bft) 95,74 %
15.07.2016 03:44 11,4 C 91 % 1020,5 hPa 0,0 l/m 11,3 km/h (2 Bft) W 273 0 min 0,000 mm 0,0 UV-I 0 W/m 10,0 C 8,5 C 20,9 km/h (4 Bft) 97,92 %
15.07.2016 03:46 11,4 C 91 % 1020,5 hPa 0,0 l/m 8,3 km/h (2 Bft) SW 214 0 min 0,000 mm 0,0 UV-I 0 W/m 10,0 C 10,1 C 12,9 km/h (3 Bft) 97,37 %
15.07.2016 03:48 11,4 C 91 % 1020,5 hPa 0,0 l/m 11,1 km/h (2 Bft) S-SW 213 0 min 0,000 mm 0,0 UV-I 0 W/m 10,0 C 8,6 C 17,7 km/h (3 Bft) 97,87 %
15.07.2016 03:50 11,4 C 91 % 1020,6 hPa 0,0 l/m 11,6 km/h (2 Bft) S 191 0 min 0,000 mm 0,0 UV-I 0 W/m 10,0 C 8,3 C 19,3 km/h (3 Bft) 93,62 %
15.07.2016 03:52 11,4 C 91 % 1020,6 hPa 0,0 l/m 10,4 km/h (2 Bft) W-SW 252 0 min 0,000 mm 0,0 UV-I 0 W/m 10,0 C 8,9 C 16,1 km/h (3 Bft) 95,92 %
15.07.2016 03:54 11,4 C 91 % 1020,6 hPa 0,0 l/m 9,9 km/h (2 Bft) SW 229 0 min 0,000 mm 0,0 UV-I 0 W/m 10,0 C 9,2 C 16,1 km/h (3 Bft) 97,87 %
15.07.2016 03:56 11,4 C 91 % 1020,5 hPa 0,0 l/m 14,3 km/h (3 Bft) SW 222 0 min 0,000 mm 0,0 UV-I 0 W/m 10,0 C 7,1 C 20,9 km/h (4 Bft) 97,87 %
15.07.2016 03:58 11,4 C 91 % 1020,5 hPa 0,0 l/m 10,2 km/h (2 Bft) S-SW 210 0 min 0,000 mm 0,0 UV-I 0 W/m 10,0 C 9,0 C 19,3 km/h (3 Bft) 95,74 %
15.07.2016 04:00 11,4 C 91 % 1020,5 hPa 0,0 l/m 12,0 km/h (2 Bft) SW 215 0 min 0,025 mm 0,0 UV-I 0 W/m 10,0 C 8,1 C 17,7 km/h (3 Bft) 97,87 %
15.07.2016 04:02 11,4 C 91 % 1020,5 hPa 0,0 l/m 10,4 km/h (2 Bft) W-SW 238 0 min 0,000 mm 0,0 UV-I 0 W/m 10,0 C 8,9 C 17,7 km/h (3 Bft) 100,00 %
15.07.2016 04:04 11,4 C 90 % 1020,5 hPa 0,0 l/m 11,2 km/h (2 Bft) SO 141 0 min 0,000 mm 0,0 UV-I 0 W/m 9,8 C 8,5 C 17,7 km/h (3 Bft) 97,87 %
15.07.2016 04:06 11,3 C 90 % 1020,5 hPa 0,0 l/m 11,7 km/h (2 Bft) SW 231 0 min 0,000 mm 0,0 UV-I 0 W/m 9,7 C 8,2 C 17,7 km/h (3 Bft) 100,00 %
15.07.2016 04:08 11,3 C 90 % 1020,5 hPa 0,0 l/m 10,9 km/h (2 Bft) W-SW 254 0 min 0,000 mm 0,0 UV-I 0 W/m 9,7 C 8,6 C 16,1 km/h (3 Bft) 97,87 %
15.07.2016 04:10 11,3 C 90 % 1020,5 hPa 0,0 l/m 11,4 km/h (2 Bft) W-SW 244 0 min 0,000 mm 0,0 UV-I 0 W/m 9,7 C 8,3 C 17,7 km/h (3 Bft) 100,00 %
15.07.2016 04:12 11,3 C 90 % 1020,6 hPa 0,0 l/m 9,0 km/h (2 Bft) SW 215 0 min 0,000 mm 0,0 UV-I 0 W/m 9,7 C 9,6 C 12,9 km/h (3 Bft) 100,00 %
15.07.2016 04:14 11,3 C 90 % 1020,6 hPa 0,0 l/m 10,8 km/h (2 Bft) SW 222 0 min 0,000 mm 0,0 UV-I 0 W/m 9,7 C 8,6 C 19,3 km/h (3 Bft) 100,00 %
15.07.2016 04:16 11,2 C 90 % 1020,6 hPa 0,0 l/m 9,9 km/h (2 Bft) SW 221 0 min 0,000 mm 0,0 UV-I 0 W/m 9,6 C 9,0 C 16,1 km/h (3 Bft) 100,00 %
15.07.2016 04:18 11,2 C 90 % 1020,6 hPa 0,0 l/m 10,0 km/h (2 Bft) SW 223 0 min 0,000 mm 0,0 UV-I 0 W/m 9,6 C 8,9 C 16,1 km/h (3 Bft) 97,87 %
15.07.2016 04:20 11,2 C 90 % 1020,7 hPa 0,0 l/m 9,1 km/h (2 Bft) W-SW 240 0 min 0,000 mm 0,0 UV-I 0 W/m 9,6 C 9,4 C 14,5 km/h (3 Bft) 97,87 %
15.07.2016 04:22 11,1 C 91 % 1020,7 hPa 0,0 l/m 8,8 km/h (2 Bft) W-SW 252 0 min 0,000 mm 0,0 UV-I 0 W/m 9,7 C 9,5 C 11,3 km/h (2 Bft) 100,00 %
15.07.2016 04:24 11,1 C 91 % 1020,6 hPa 0,0 l/m 7,3 km/h (2 Bft) W-SW 242 0 min 0,000 mm 0,0 UV-I 0 W/m 9,7 C 10,5 C 11,3 km/h (2 Bft) 97,87 %
15.07.2016 04:26 11,0 C 91 % 1020,6 hPa 0,0 l/m 6,8 km/h (2 Bft) S-SW 204 0 min 0,000 mm 0,0 UV-I 0 W/m 9,6 C 10,7 C 11,3 km/h (2 Bft) 100,00 %
15.07.2016 04:28 10,9 C 91 % 1020,7 hPa 0,0 l/m 6,7 km/h (2 Bft) W-SW 239 0 min 0,000 mm 0,0 UV-I 0 W/m 9,5 C 10,7 C 11,3 km/h (2 Bft) 97,87 %
15.07.2016 04:30 10,9 C 91 % 1020,7 hPa 0,0 l/m 7,0 km/h (2 Bft) SW 229 0 min 0,000 mm 0,0 UV-I 0 W/m 9,5 C 10,5 C 11,3 km/h (2 Bft) 100,00 %
15.07.2016 04:32 10,8 C 91 % 1020,7 hPa 0,0 l/m 5,6 km/h (1 Bft) SW 232 0 min 0,000 mm 0,0 UV-I 0 W/m 9,4 C 10,8 C 8,0 km/h (2 Bft) 100,00 %
15.07.2016 04:34 10,8 C 92 % 1020,7 hPa 0,0 l/m 6,9 km/h (2 Bft) W 265 0 min 0,000 mm 0,0 UV-I 0 W/m 9,6 C 10,5 C 11,3 km/h (2 Bft) 100,00 %
15.07.2016 04:36 10,8 C 92 % 1020,8 hPa 0,0 l/m 4,9 km/h (1 Bft) W-SW 250 0 min 0,000 mm 0,0 UV-I 0 W/m 9,6 C 10,8 C 8,0 km/h (2 Bft) 97,87 %
15.07.2016 04:38 10,7 C 92 % 1020,7 hPa 0,0 l/m 5,6 km/h (1 Bft) W-SW 238 0 min 0,000 mm 0,0 UV-I 0 W/m 9,5 C 10,7 C 9,7 km/h (2 Bft) 100,00 %
15.07.2016 04:40 10,7 C 92 % 1020,8 hPa 0,0 l/m 5,2 km/h (1 Bft) W-SW 250 0 min 0,000 mm 0,0 UV-I 0 W/m 9,5 C 10,7 C 8,0 km/h (2 Bft) 100,00 %
15.07.2016 04:42 10,6 C 92 % 1020,8 hPa 0,0 l/m 5,0 km/h (1 Bft) W-SW 244 0 min 0,000 mm 0,0 UV-I 0 W/m 9,4 C 10,6 C 9,7 km/h (2 Bft) 97,87 %
15.07.2016 04:44 10,6 C 92 % 1020,8 hPa 0,0 l/m 4,5 km/h (1 Bft) W 262 0 min 0,000 mm 0,0 UV-I 0 W/m 9,4 C 10,6 C 9,7 km/h (2 Bft) 100,00 %
15.07.2016 04:46 10,5 C 92 % 1020,8 hPa 0,0 l/m 5,5 km/h (1 Bft) W-SW 253 0 min 0,000 mm 0,0 UV-I 0 W/m 9,3 C 10,5 C 11,3 km/h (2 Bft) 98,11 %
15.07.2016 04:48 10,4 C 92 % 1020,8 hPa 0,0 l/m 6,3 km/h (2 Bft) W-SW 246 0 min 0,000 mm 0,0 UV-I 0 W/m 9,2 C 10,4 C 9,7 km/h (2 Bft) 100,00 %
15.07.2016 04:50 10,4 C 92 % 1020,8 hPa 0,0 l/m 5,7 km/h (1 Bft) W 263 0 min 0,000 mm 0,0 UV-I 0 W/m 9,2 C 10,4 C 8,0 km/h (2 Bft) 97,87 %
15.07.2016 04:52 10,4 C 93 % 1020,8 hPa 0,0 l/m 5,9 km/h (2 Bft) W 260 0 min 0,000 mm 0,0 UV-I 0 W/m 9,3 C 10,4 C 11,3 km/h (2 Bft) 100,00 %
15.07.2016 04:54 10,4 C 93 % 1020,8 hPa 0,0 l/m 6,3 km/h (2 Bft) W-SW 237 0 min 0,000 mm 0,0 UV-I 0 W/m 9,3 C 10,4 C 11,3 km/h (2 Bft) 97,87 %
15.07.2016 04:56 10,4 C 93 % 1020,8 hPa 0,0 l/m 6,7 km/h (2 Bft) W-SW 254 0 min 0,000 mm 0,0 UV-I 0 W/m 9,3 C 10,2 C 12,9 km/h (3 Bft) 100,00 %
15.07.2016 04:58 10,4 C 93 % 1020,9 hPa 0,0 l/m 6,6 km/h (2 Bft) SW 229 0 min 0,000 mm 0,0 UV-I 0 W/m 9,3 C 10,3 C 11,3 km/h (2 Bft) 100,00 %
15.07.2016 05:00 10,3 C 93 % 1020,9 hPa 0,0 l/m 6,3 km/h (2 Bft) W-SW 250 0 min 0,000 mm 0,0 UV-I 0 W/m 9,2 C 10,3 C 9,7 km/h (2 Bft) 98,00 %
15.07.2016 05:02 10,3 C 93 % 1021,0 hPa 0,0 l/m 6,4 km/h (2 Bft) W-SW 248 0 min 0,000 mm 0,0 UV-I 0 W/m 9,2 C 10,3 C 9,7 km/h (2 Bft) 100,00 %
15.07.2016 05:04 10,3 C 93 % 1020,9 hPa 0,0 l/m 6,3 km/h (2 Bft) SW 236 0 min 0,000 mm 0,0 UV-I 0 W/m 9,2 C 10,3 C 11,3 km/h (2 Bft) 100,00 %
15.07.2016 05:06 10,3 C 93 % 1021,0 hPa 0,0 l/m 5,7 km/h (1 Bft) W-SW 241 0 min 0,000 mm 0,0 UV-I 0 W/m 9,2 C 10,3 C 8,0 km/h (2 Bft) 100,00 %
15.07.2016 05:08 10,3 C 93 % 1021,0 hPa 0,0 l/m 5,5 km/h (1 Bft) W-SW 240 0 min 0,000 mm 0,0 UV-I 0 W/m 9,2 C 10,3 C 8,0 km/h (2 Bft) 100,00 %
15.07.2016 05:10 10,3 C 93 % 1021,0 hPa 0,0 l/m 4,9 km/h (1 Bft) W-SW 254 0 min 0,000 mm 0,0 UV-I 0 W/m 9,2 C 10,3 C 8,0 km/h (2 Bft) 98,00 %
15.07.2016 05:12 10,2 C 93 % 1021,0 hPa 0,0 l/m 5,4 km/h (1 Bft) W-SW 251 0 min 0,000 mm 0,0 UV-I 0 W/m 9,1 C 10,2 C 8,0 km/h (2 Bft) 100,00 %
15.07.2016 05:14 10,2 C 93 % 1021,0 hPa 0,0 l/m 5,4 km/h (1 Bft) SW 230 0 min 0,000 mm 0,0 UV-I 0 W/m 9,1 C 10,2 C 8,0 km/h (2 Bft) 97,87 %
15.07.2016 05:16 10,2 C 93 % 1020,9 hPa 0,0 l/m 5,1 km/h (1 Bft) W-SW 254 0 min 0,000 mm 0,0 UV-I 0 W/m 9,1 C 10,2 C 8,0 km/h (2 Bft) 97,87 %
15.07.2016 05:18 10,1 C 93 % 1021,0 hPa 0,0 l/m 5,5 km/h (1 Bft) W-SW 247 0 min 0,000 mm 0,0 UV-I 5 W/m 9,0 C 10,1 C 8,0 km/h (2 Bft) 100,00 %
15.07.2016 05:20 10,1 C 93 % 1020,9 hPa 0,0 l/m 4,1 km/h (1 Bft) W-SW 248 0 min 0,000 mm 0,0 UV-I 5 W/m 9,0 C 10,1 C 6,4 km/h (2 Bft) 97,87 %
15.07.2016 05:22 10,0 C 93 % 1021,0 hPa 0,0 l/m 5,6 km/h (1 Bft) W 260 0 min 0,000 mm 0,0 UV-I 6 W/m 8,9 C 10,0 C 9,7 km/h (2 Bft) 97,87 %
15.07.2016 05:24 10,1 C 94 % 1021,0 hPa 0,0 l/m 6,1 km/h (2 Bft) W 280 0 min 0,000 mm 0,0 UV-I 7 W/m 9,2 C 10,1 C 8,0 km/h (2 Bft) 100,00 %
15.07.2016 05:26 10,1 C 94 % 1021,0 hPa 0,0 l/m 6,4 km/h (2 Bft) W-SW 250 0 min 0,000 mm 0,0 UV-I 9 W/m 9,2 C 10,1 C 9,7 km/h (2 Bft) 100,00 %
15.07.2016 05:28 10,1 C 94 % 1021,0 hPa 0,0 l/m 6,4 km/h (2 Bft) W-SW 257 0 min 0,000 mm 0,0 UV-I 9 W/m 9,2 C 10,1 C 11,3 km/h (2 Bft) 97,87 %
15.07.2016 05:30 10,0 C 94 % 1021,0 hPa 0,0 l/m 4,9 km/h (1 Bft) W-SW 242 0 min 0,000 mm 0,0 UV-I 11 W/m 9,1 C 10,0 C 8,0 km/h (2 Bft) 100,00 %
15.07.2016 05:32 10,0 C 94 % 1021,0 hPa 0,0 l/m 6,0 km/h (2 Bft) W 259 2 min 0,000 mm 0,0 UV-I 12 W/m 9,1 C 10,0 C 12,9 km/h (3 Bft) 100,00 %
15.07.2016 05:34 10,0 C 94 % 1021,0 hPa 0,0 l/m 6,2 km/h (2 Bft) SW 227 2 min 0,000 mm 0,0 UV-I 13 W/m 9,1 C 10,0 C 12,9 km/h (3 Bft) 100,00 %
15.07.2016 05:36 10,0 C 94 % 1021,0 hPa 0,0 l/m 8,3 km/h (2 Bft) W-SW 243 2 min 0,000 mm 0,0 UV-I 14 W/m 9,1 C 8,7 C 17,7 km/h (3 Bft) 95,74 %
15.07.2016 05:38 10,1 C 94 % 1021,0 hPa 0,0 l/m 6,9 km/h (2 Bft) W-SW 240 0 min 0,000 mm 0,0 UV-I 15 W/m 9,2 C 9,7 C 16,1 km/h (3 Bft) 93,75 %
15.07.2016 05:40 10,1 C 94 % 1021,1 hPa 0,0 l/m 5,6 km/h (1 Bft) SW 221 0 min 0,000 mm 0,0 UV-I 15 W/m 9,2 C 10,1 C 8,0 km/h (2 Bft) 95,74 %
15.07.2016 05:42 10,1 C 94 % 1021,1 hPa 0,0 l/m 5,0 km/h (1 Bft) SW 233 0 min 0,000 mm 0,0 UV-I 16 W/m 9,2 C 10,1 C 6,4 km/h (2 Bft) 97,87 %
15.07.2016 05:44 10,1 C 94 % 1021,1 hPa 0,0 l/m 6,1 km/h (2 Bft) SW 235 0 min 0,000 mm 0,0 UV-I 18 W/m 9,2 C 10,1 C 11,3 km/h (2 Bft) 95,74 %
15.07.2016 05:46 10,1 C 94 % 1021,1 hPa 0,0 l/m 5,9 km/h (2 Bft) W-SW 244 0 min 0,000 mm 0,0 UV-I 19 W/m 9,2 C 10,1 C 11,3 km/h (2 Bft) 98,00 %
15.07.2016 05:48 10,1 C 94 % 1021,2 hPa 0,0 l/m 5,8 km/h (2 Bft) SW 227 0 min 0,000 mm 0,0 UV-I 19 W/m 9,2 C 10,1 C 8,0 km/h (2 Bft) 95,74 %
15.07.2016 05:50 10,1 C 94 % 1021,2 hPa 0,0 l/m 5,4 km/h (1 Bft) W-SW 242 0 min 0,000 mm 0,0 UV-I 19 W/m 9,2 C 10,1 C 8,0 km/h (2 Bft) 95,83 %
15.07.2016 05:52 10,1 C 94 % 1021,2 hPa 0,0 l/m 6,6 km/h (2 Bft) SW 215 0 min 0,000 mm 0,0 UV-I 19 W/m 9,2 C 10,0 C 11,3 km/h (2 Bft) 97,87 %
15.07.2016 05:54 10,1 C 94 % 1021,2 hPa 0,0 l/m 6,1 km/h (2 Bft) SW 220 0 min 0,000 mm 0,0 UV-I 21 W/m 9,2 C 10,1 C 9,7 km/h (2 Bft) 97,37 %
15.07.2016 05:56 10,1 C 94 % 1021,3 hPa 0,0 l/m 7,8 km/h (2 Bft) SW 229 0 min 0,000 mm 0,0 UV-I 23 W/m 9,2 C 9,1 C 12,9 km/h (3 Bft) 97,87 %
15.07.2016 05:58 10,1 C 94 % 1021,3 hPa 0,0 l/m 6,0 km/h (2 Bft) SW 233 0 min 0,000 mm 0,0 UV-I 26 W/m 9,2 C 10,1 C 11,3 km/h (2 Bft) 97,87 %
15.07.2016 06:00 10,1 C 94 % 1021,3 hPa 0,0 l/m 5,1 km/h (1 Bft) SW 225 0 min 0,000 mm 0,0 UV-I 26 W/m 9,2 C 10,1 C 8,0 km/h (2 Bft) 97,87 %
15.07.2016 06:02 10,1 C 94 % 1021,3 hPa 0,0 l/m 6,1 km/h (2 Bft) W-SW 240 0 min 0,000 mm 0,0 UV-I 28 W/m 9,2 C 10,1 C 11,3 km/h (2 Bft) 97,87 %
15.07.2016 06:04 10,1 C 94 % 1021,3 hPa 0,0 l/m 5,0 km/h (1 Bft) SW 235 0 min 0,000 mm 0,0 UV-I 26 W/m 9,2 C 10,1 C 6,4 km/h (2 Bft) 93,62 %
15.07.2016 06:06 10,1 C 94 % 1021,3 hPa 0,0 l/m 5,0 km/h (1 Bft) W-SW 250 0 min 0,000 mm 0,0 UV-I 27 W/m 9,2 C 10,1 C 6,4 km/h (2 Bft) 97,87 %
15.07.2016 06:08 10,1 C 94 % 1021,3 hPa 0,0 l/m 6,0 km/h (2 Bft) W-SW 242 0 min 0,000 mm 0,0 UV-I 26 W/m 9,2 C 10,1 C 11,3 km/h (2 Bft) 97,87 %
15.07.2016 06:10 10,1 C 94 % 1021,3 hPa 0,0 l/m 7,9 km/h (2 Bft) SW 234 0 min 0,000 mm 0,0 UV-I 28 W/m 9,2 C 9,0 C 14,5 km/h (3 Bft) 95,74 %
15.07.2016 06:12 10,1 C 94 % 1021,3 hPa 0,0 l/m 6,6 km/h (2 Bft) SW 236 0 min 0,000 mm 0,0 UV-I 30 W/m 9,2 C 10,0 C 11,3 km/h (2 Bft) 98,00 %
15.07.2016 06:14 10,1 C 94 % 1021,4 hPa 0,0 l/m 8,3 km/h (2 Bft) SW 227 0 min 0,000 mm 0,0 UV-I 31 W/m 9,2 C 8,8 C 14,5 km/h (3 Bft) 96,00 %
15.07.2016 06:16 10,1 C 94 % 1021,4 hPa 0,0 l/m 6,6 km/h (2 Bft) W-SW 241 0 min 0,000 mm 0,0 UV-I 33 W/m 9,2 C 10,0 C 12,9 km/h (3 Bft) 100,00 %
15.07.2016 06:18 10,2 C 94 % 1021,4 hPa 0,0 l/m 7,5 km/h (2 Bft) W 263 0 min 0,000 mm 0,0 UV-I 33 W/m 9,3 C 9,4 C 12,9 km/h (3 Bft) 98,00 %
15.07.2016 06:20 10,2 C 94 % 1021,4 hPa 0,0 l/m 7,0 km/h (2 Bft) W-SW 254 0 min 0,000 mm 0,0 UV-I 39 W/m 9,3 C 9,8 C 11,3 km/h (2 Bft) 100,00 %
15.07.2016 06:22 10,3 C 94 % 1021,4 hPa 0,0 l/m 6,9 km/h (2 Bft) SW 232 0 min 0,000 mm 0,0 UV-I 39 W/m 9,4 C 9,9 C 11,3 km/h (2 Bft) 100,00 %
15.07.2016 06:24 10,3 C 94 % 1021,5 hPa 0,0 l/m 7,3 km/h (2 Bft) W-SW 242 0 min 0,000 mm 0,0 UV-I 41 W/m 9,4 C 9,7 C 12,9 km/h (3 Bft) 97,87 %
15.07.2016 06:26 10,3 C 94 % 1021,5 hPa 0,0 l/m 10,1 km/h (2 Bft) S-SW 207 0 min 0,000 mm 0,0 UV-I 43 W/m 9,4 C 7,9 C 14,5 km/h (3 Bft) 97,87 %
15.07.2016 06:28 10,4 C 94 % 1021,5 hPa 0,0 l/m 6,9 km/h (2 Bft) W-SW 258 0 min 0,000 mm 0,0 UV-I 43 W/m 9,5 C 10,0 C 9,7 km/h (2 Bft) 97,56 %
15.07.2016 06:30 10,5 C 94 % 1021,5 hPa 0,0 l/m 8,4 km/h (2 Bft) SW 231 0 min 0,000 mm 0,0 UV-I 40 W/m 9,6 C 9,1 C 12,9 km/h (3 Bft) 100,00 %
15.07.2016 06:32 10,6 C 94 % 1021,6 hPa 0,0 l/m 8,5 km/h (2 Bft) W-SW 253 0 min 0,000 mm 0,0 UV-I 44 W/m 9,7 C 9,2 C 14,5 km/h (3 Bft) 97,87 %
15.07.2016 06:34 10,7 C 93 % 1021,6 hPa 0,0 l/m 9,1 km/h (2 Bft) W-SW 241 0 min 0,000 mm 0,0 UV-I 47 W/m 9,6 C 8,9 C 12,9 km/h (3 Bft) 97,87 %
15.07.2016 06:36 10,7 C 94 % 1021,6 hPa 0,0 l/m 7,1 km/h (2 Bft) SW 232 0 min 0,000 mm 0,0 UV-I 51 W/m 9,8 C 10,2 C 11,3 km/h (2 Bft) 100,00 %
15.07.2016 06:38 10,8 C 93 % 1021,6 hPa 0,0 l/m 5,2 km/h (1 Bft) W-SW 246 0 min 0,000 mm 0,0 UV-I 60 W/m 9,7 C 10,8 C 9,7 km/h (2 Bft) 98,00 %
15.07.2016 06:40 10,8 C 93 % 1021,7 hPa 0,0 l/m 5,7 km/h (1 Bft) SW 227 0 min 0,000 mm 0,0 UV-I 71 W/m 9,7 C 10,8 C 11,3 km/h (2 Bft) 97,87 %
15.07.2016 06:42 10,9 C 93 % 1021,7 hPa 0,0 l/m 8,9 km/h (2 Bft) W-SW 252 0 min 0,000 mm 0,0 UV-I 70 W/m 9,8 C 9,2 C 12,9 km/h (3 Bft) 97,87 %
15.07.2016 06:44 10,9 C 93 % 1021,7 hPa 0,0 l/m 6,6 km/h (2 Bft) W-SW 245 0 min 0,000 mm 0,0 UV-I 71 W/m 9,8 C 10,8 C 14,5 km/h (3 Bft) 98,00 %
15.07.2016 06:46 11,0 C 93 % 1021,7 hPa 0,0 l/m 7,7 km/h (2 Bft) W 261 0 min 0,000 mm 0,0 UV-I 79 W/m 9,9 C 10,1 C 12,9 km/h (3 Bft) 97,56 %
15.07.2016 06:48 11,1 C 93 % 1021,7 hPa 0,0 l/m 7,1 km/h (2 Bft) W-SW 251 0 min 0,000 mm 0,0 UV-I 83 W/m 10,0 C 10,6 C 11,3 km/h (2 Bft) 100,00 %
15.07.2016 06:50 11,1 C 93 % 1021,7 hPa 0,0 l/m 6,2 km/h (2 Bft) W-SW 253 0 min 0,000 mm 0,0 UV-I 90 W/m 10,0 C 11,1 C 9,7 km/h (2 Bft) 97,87 %
15.07.2016 06:52 11,1 C 93 % 1021,6 hPa 0,0 l/m 6,2 km/h (2 Bft) W 259 0 min 0,000 mm 0,0 UV-I 84 W/m 10,0 C 11,1 C 11,3 km/h (2 Bft) 100,00 %
15.07.2016 06:54 11,2 C 93 % 1021,6 hPa 0,0 l/m 7,8 km/h (2 Bft) W-SW 239 0 min 0,000 mm 0,0 UV-I 89 W/m 10,1 C 10,2 C 16,1 km/h (3 Bft) 100,00 %
15.07.2016 06:56 11,2 C 93 % 1021,6 hPa 0,0 l/m 10,0 km/h (2 Bft) W 269 0 min 0,000 mm 0,0 UV-I 111 W/m 10,1 C 8,9 C 14,5 km/h (3 Bft) 97,87 %
15.07.2016 06:58 11,2 C 93 % 1021,6 hPa 0,0 l/m 6,1 km/h (2 Bft) W-SW 248 0 min 0,000 mm 0,0 UV-I 103 W/m 10,1 C 11,2 C 11,3 km/h (2 Bft) 96,00 %
15.07.2016 07:00 11,3 C 92 % 1021,6 hPa 0,0 l/m 8,8 km/h (2 Bft) W-SW 244 0 min 0,026 mm 0,0 UV-I 112 W/m 10,0 C 9,7 C 12,9 km/h (3 Bft) 100,00 %
15.07.2016 07:02 11,3 C 92 % 1021,6 hPa 0,0 l/m 10,5 km/h (2 Bft) W-SW 258 2 min 0,000 mm 0,0 UV-I 155 W/m 10,0 C 8,8 C 14,5 km/h (3 Bft) 100,00 %
15.07.2016 07:04 11,4 C 92 % 1021,7 hPa 0,0 l/m 10,2 km/h (2 Bft) W 278 2 min 0,000 mm 0,0 UV-I 165 W/m 10,1 C 9,0 C 14,5 km/h (3 Bft) 94,29 %
15.07.2016 07:06 11,5 C 92 % 1021,7 hPa 0,0 l/m 9,1 km/h (2 Bft) W-SW 249 2 min 0,000 mm 0,0 UV-I 173 W/m 10,2 C 9,8 C 14,5 km/h (3 Bft) 100,00 %
15.07.2016 07:08 11,6 C 92 % 1021,7 hPa 0,0 l/m 7,8 km/h (2 Bft) W 276 2 min 0,000 mm 0,0 UV-I 179 W/m 10,3 C 10,7 C 12,9 km/h (3 Bft) 100,00 %
15.07.2016 07:10 11,6 C 92 % 1021,7 hPa 0,0 l/m 10,0 km/h (2 Bft) W-SW 243 0 min 0,000 mm 0,0 UV-I 138 W/m 10,3 C 9,4 C 16,1 km/h (3 Bft) 100,00 %
15.07.2016 07:12 11,7 C 91 % 1021,7 hPa 0,0 l/m 8,6 km/h (2 Bft) W-SW 250 2 min 0,000 mm 0,0 UV-I 185 W/m 10,3 C 10,3 C 14,5 km/h (3 Bft) 97,87 %
15.07.2016 07:14 11,8 C 91 % 1021,7 hPa 0,0 l/m 7,3 km/h (2 Bft) W-SW 252 2 min 0,000 mm 0,0 UV-I 196 W/m 10,4 C 11,2 C 12,9 km/h (3 Bft) 100,00 %
15.07.2016 07:16 11,8 C 91 % 1021,7 hPa 0,0 l/m 5,3 km/h (1 Bft) W 276 2 min 0,000 mm 0,0 UV-I 161 W/m 10,4 C 11,8 C 9,7 km/h (2 Bft) 100,00 %
15.07.2016 07:18 11,9 C 91 % 1021,8 hPa 0,0 l/m 9,9 km/h (2 Bft) W 263 0 min 0,000 mm 0,0 UV-I 159 W/m 10,5 C 9,7 C 14,5 km/h (3 Bft) 100,00 %
15.07.2016 07:20 11,9 C 91 % 1021,8 hPa 0,0 l/m 7,0 km/h (2 Bft) W 266 2 min 0,000 mm 0,0 UV-I 167 W/m 10,5 C 11,5 C 12,9 km/h (3 Bft) 100,00 %
15.07.2016 07:22 11,9 C 91 % 1021,9 hPa 0,0 l/m 9,4 km/h (2 Bft) W-SW 258 2 min 0,000 mm 0,0 UV-I 170 W/m 10,5 C 10,0 C 12,9 km/h (3 Bft) 97,87 %
15.07.2016 07:24 12,0 C 91 % 1021,8 hPa 0,0 l/m 9,4 km/h (2 Bft) W-SW 254 2 min 0,000 mm 0,0 UV-I 188 W/m 10,6 C 10,1 C 16,1 km/h (3 Bft) 100,00 %
15.07.2016 07:26 12,1 C 90 % 1021,8 hPa 0,0 l/m 12,8 km/h (3 Bft) W-SW 245 2 min 0,000 mm 0,2 UV-I 250 W/m 10,5 C 8,6 C 17,7 km/h (3 Bft) 100,00 %
15.07.2016 07:28 12,1 C 90 % 1021,9 hPa 0,0 l/m 9,6 km/h (2 Bft) W-SW 248 2 min 0,000 mm 0,5 UV-I 224 W/m 10,5 C 10,1 C 14,5 km/h (3 Bft) 100,00 %
15.07.2016 07:30 12,2 C 90 % 1021,9 hPa 0,0 l/m 7,2 km/h (2 Bft) W-SW 241 2 min 0,000 mm 0,5 UV-I 225 W/m 10,6 C 11,7 C 14,5 km/h (3 Bft) 100,00 %
15.07.2016 07:32 12,3 C 91 % 1022,0 hPa 0,0 l/m 8,3 km/h (2 Bft) W-SW 238 2 min 0,000 mm 0,5 UV-I 234 W/m 10,9 C 11,1 C 12,9 km/h (3 Bft) 97,87 %
15.07.2016 07:34 12,4 C 90 % 1021,9 hPa 0,0 l/m 11,6 km/h (2 Bft) W-SW 245 2 min 0,000 mm 0,6 UV-I 226 W/m 10,8 C 9,5 C 20,9 km/h (4 Bft) 97,87 %
15.07.2016 07:36 12,4 C 90 % 1021,9 hPa 0,0 l/m 11,4 km/h (2 Bft) W-SW 254 2 min 0,000 mm 0,6 UV-I 224 W/m 10,8 C 9,6 C 14,5 km/h (3 Bft) 100,00 %
15.07.2016 07:38 12,6 C 90 % 1021,9 hPa 0,0 l/m 6,5 km/h (2 Bft) W 265 2 min 0,000 mm 0,6 UV-I 248 W/m 11,0 C 12,6 C 11,3 km/h (2 Bft) 97,22 %
15.07.2016 07:40 12,7 C 90 % 1021,9 hPa 0,0 l/m 4,3 km/h (1 Bft) W-SW 246 2 min 0,000 mm 0,6 UV-I 266 W/m 11,1 C 12,7 C 9,7 km/h (2 Bft) 96,00 %
15.07.2016 07:42 12,8 C 89 % 1022,0 hPa 0,0 l/m 5,9 km/h (2 Bft) SW 236 2 min 0,000 mm 0,6 UV-I 233 W/m 11,0 C 12,8 C 9,7 km/h (2 Bft) 98,00 %
15.07.2016 07:44 12,8 C 89 % 1022,0 hPa 0,0 l/m 7,4 km/h (2 Bft) W 261 2 min 0,000 mm 0,6 UV-I 303 W/m 11,0 C 12,2 C 11,3 km/h (2 Bft) 98,00 %
15.07.2016 07:46 12,8 C 88 % 1022,0 hPa 0,0 l/m 6,4 km/h (2 Bft) W-SW 246 2 min 0,000 mm 0,7 UV-I 332 W/m 10,9 C 12,8 C 14,5 km/h (3 Bft) 97,87 %
15.07.2016 07:48 12,9 C 89 % 1022,0 hPa 0,0 l/m 7,1 km/h (2 Bft) W-SW 252 2 min 0,000 mm 0,7 UV-I 326 W/m 11,1 C 12,5 C 14,5 km/h (3 Bft) 95,74 %
15.07.2016 07:50 13,0 C 87 % 1022,0 hPa 0,0 l/m 8,9 km/h (2 Bft) W-SW 250 2 min 0,000 mm 0,7 UV-I 354 W/m 10,9 C 11,5 C 12,9 km/h (3 Bft) 97,87 %
15.07.2016 07:52 13,1 C 88 % 1021,9 hPa 0,0 l/m 6,3 km/h (2 Bft) SW 227 2 min 0,000 mm 0,7 UV-I 355 W/m 11,2 C 13,1 C 11,3 km/h (2 Bft) 97,37 %
15.07.2016 07:54 13,2 C 88 % 1021,9 hPa 0,0 l/m 9,3 km/h (2 Bft) W-NW 293 2 min 0,000 mm 0,8 UV-I 364 W/m 11,3 C 11,5 C 16,1 km/h (3 Bft) 95,74 %
15.07.2016 07:56 13,4 C 88 % 1021,9 hPa 0,0 l/m 9,6 km/h (2 Bft) W-SW 248 2 min 0,000 mm 0,8 UV-I 400 W/m 11,5 C 11,6 C 16,1 km/h (3 Bft) 97,87 %
15.07.2016 07:58 13,5 C 87 % 1021,9 hPa 0,0 l/m 12,3 km/h (3 Bft) W-SW 244 2 min 0,000 mm 0,8 UV-I 425 W/m 11,4 C 10,4 C 19,3 km/h (3 Bft) 96,00 %
15.07.2016 08:00 13,5 C 86 % 1021,9 hPa 0,0 l/m 14,0 km/h (3 Bft) SW 227 2 min 0,127 mm 0,8 UV-I 287 W/m 11,2 C 9,7 C 17,7 km/h (3 Bft) 97,87 %
15.07.2016 08:02 13,5 C 86 % 1021,9 hPa 0,0 l/m 11,9 km/h (2 Bft) W 269 2 min 0,000 mm 0,8 UV-I 342 W/m 11,2 C 10,6 C 20,9 km/h (4 Bft) 89,36 %
15.07.2016 08:04 13,4 C 86 % 1022,0 hPa 0,0 l/m 10,0 km/h (2 Bft) SW 218 2 min 0,000 mm 0,9 UV-I 443 W/m 11,1 C 11,4 C 19,3 km/h (3 Bft) 95,74 %
15.07.2016 08:06 13,5 C 86 % 1022,0 hPa 0,0 l/m 12,9 km/h (3 Bft) W 266 2 min 0,000 mm 0,9 UV-I 443 W/m 11,2 C 10,2 C 20,9 km/h (4 Bft) 98,11 %
15.07.2016 08:08 13,4 C 86 % 1022,1 hPa 0,0 l/m 8,4 km/h (2 Bft) SW 224 2 min 0,000 mm 0,7 UV-I 310 W/m 11,1 C 12,2 C 14,5 km/h (3 Bft) 94,29 %
15.07.2016 08:10 13,4 C 86 % 1022,0 hPa 0,0 l/m 9,3 km/h (2 Bft) S 186 2 min 0,000 mm 0,8 UV-I 240 W/m 11,1 C 11,7 C 14,5 km/h (3 Bft) 97,87 %
15.07.2016 08:12 13,3 C 86 % 1022,0 hPa 0,0 l/m 7,1 km/h (2 Bft) W-SW 246 0 min 0,000 mm 0,8 UV-I 236 W/m 11,0 C 12,9 C 12,9 km/h (3 Bft) 98,00 %
15.07.2016 08:14 13,3 C 87 % 1022,0 hPa 0,0 l/m 13,0 km/h (3 Bft) W-SW 248 0 min 0,000 mm 0,8 UV-I 215 W/m 11,2 C 9,9 C 17,7 km/h (3 Bft) 97,92 %
15.07.2016 08:16 13,3 C 85 % 1022,0 hPa 0,0 l/m 12,5 km/h (3 Bft) W-SW 252 0 min 0,000 mm 0,8 UV-I 224 W/m 10,8 C 10,1 C 16,1 km/h (3 Bft) 100,00 %
15.07.2016 08:18 13,3 C 86 % 1022,1 hPa 0,0 l/m 7,4 km/h (2 Bft) W-SW 251 0 min 0,000 mm 0,8 UV-I 226 W/m 11,0 C 12,7 C 12,9 km/h (3 Bft) 100,00 %
15.07.2016 08:20 13,3 C 86 % 1022,1 hPa 0,0 l/m 11,9 km/h (2 Bft) W-SW 247 0 min 0,000 mm 0,8 UV-I 234 W/m 11,0 C 10,4 C 17,7 km/h (3 Bft) 93,62 %
15.07.2016 08:22 13,3 C 86 % 1022,0 hPa 0,0 l/m 8,4 km/h (2 Bft) W 261 0 min 0,000 mm 0,8 UV-I 242 W/m 11,0 C 12,1 C 14,5 km/h (3 Bft) 95,74 %
15.07.2016 08:24 13,4 C 86 % 1022,1 hPa 0,0 l/m 9,3 km/h (2 Bft) W-SW 242 0 min 0,000 mm 0,8 UV-I 231 W/m 11,1 C 11,7 C 16,1 km/h (3 Bft) 100,00 %
15.07.2016 08:26 13,4 C 85 % 1022,1 hPa 0,0 l/m 11,2 km/h (2 Bft) W 271 0 min 0,000 mm 0,9 UV-I 240 W/m 10,9 C 10,8 C 17,7 km/h (3 Bft) 100,00 %
15.07.2016 08:28 13,4 C 85 % 1022,1 hPa 0,0 l/m 9,4 km/h (2 Bft) W-SW 256 0 min 0,000 mm 0,8 UV-I 229 W/m 10,9 C 11,7 C 16,1 km/h (3 Bft) 100,00 %
15.07.2016 08:30 13,4 C 85 % 1022,2 hPa 0,0 l/m 9,4 km/h (2 Bft) SW 231 0 min 0,000 mm 0,8 UV-I 228 W/m 10,9 C 11,7 C 20,9 km/h (4 Bft) 97,87 %
15.07.2016 08:32 13,4 C 84 % 1022,2 hPa 0,0 l/m 7,1 km/h (2 Bft) W-SW 237 0 min 0,000 mm 0,9 UV-I 238 W/m 10,8 C 13,0 C 16,1 km/h (3 Bft) 96,00 %
15.07.2016 08:34 13,4 C 84 % 1022,2 hPa 0,0 l/m 7,9 km/h (2 Bft) SW 223 0 min 0,000 mm 0,9 UV-I 241 W/m 10,8 C 12,5 C 14,5 km/h (3 Bft) 100,00 %
15.07.2016 08:36 13,4 C 84 % 1022,2 hPa 0,0 l/m 7,4 km/h (2 Bft) SW 230 0 min 0,000 mm 1,1 UV-I 260 W/m 10,8 C 12,8 C 17,7 km/h (3 Bft) 97,87 %
15.07.2016 08:38 13,5 C 84 % 1022,3 hPa 0,0 l/m 11,7 km/h (2 Bft) W-SW 240 2 min 0,000 mm 1,2 UV-I 369 W/m 10,8 C 10,7 C 19,3 km/h (3 Bft) 100,00 %
15.07.2016 08:40 13,6 C 83 % 1022,4 hPa 0,0 l/m 9,4 km/h (2 Bft) S-SW 213 2 min 0,000 mm 1,2 UV-I 338 W/m 10,8 C 11,9 C 12,9 km/h (3 Bft) 100,00 %
15.07.2016 08:42 13,6 C 82 % 1022,4 hPa 0,0 l/m 10,2 km/h (2 Bft) W 271 2 min 0,000 mm 1,3 UV-I 329 W/m 10,6 C 11,5 C 14,5 km/h (3 Bft) 98,00 %
15.07.2016 08:44 13,6 C 83 % 1022,4 hPa 0,0 l/m 9,4 km/h (2 Bft) SW 228 0 min 0,000 mm 1,3 UV-I 269 W/m 10,8 C 11,9 C 17,7 km/h (3 Bft) 97,87 %
15.07.2016 08:46 13,7 C 83 % 1022,4 hPa 0,0 l/m 11,1 km/h (2 Bft) W-SW 239 2 min 0,000 mm 1,5 UV-I 372 W/m 10,9 C 11,2 C 16,1 km/h (3 Bft) 100,00 %
15.07.2016 08:48 13,8 C 83 % 1022,4 hPa 0,0 l/m 9,2 km/h (2 Bft) SW 219 2 min 0,000 mm 1,5 UV-I 502 W/m 11,0 C 12,2 C 16,1 km/h (3 Bft) 97,87 %
15.07.2016 08:50 14,1 C 84 % 1022,4 hPa 0,0 l/m 7,4 km/h (2 Bft) S-SO 158 2 min 0,000 mm 1,7 UV-I 567 W/m 11,4 C 13,5 C 16,1 km/h (3 Bft) 100,00 %
15.07.2016 08:52 14,3 C 83 % 1022,4 hPa 0,0 l/m 10,8 km/h (2 Bft) SW 235 2 min 0,000 mm 1,8 UV-I 615 W/m 11,5 C 12,0 C 16,1 km/h (3 Bft) 100,00 %
15.07.2016 08:54 14,4 C 82 % 1022,4 hPa 0,0 l/m 10,8 km/h (2 Bft) W-SW 240 2 min 0,000 mm 1,8 UV-I 616 W/m 11,4 C 12,1 C 16,1 km/h (3 Bft) 97,92 %
15.07.2016 08:56 14,4 C 81 % 1022,4 hPa 0,0 l/m 10,8 km/h (2 Bft) S-SW 205 2 min 0,000 mm 1,7 UV-I 642 W/m 11,2 C 12,1 C 17,7 km/h (3 Bft) 97,87 %
15.07.2016 08:58 14,3 C 82 % 1022,5 hPa 0,0 l/m 6,4 km/h (2 Bft) SW 236 2 min 0,000 mm 1,6 UV-I 320 W/m 11,3 C 14,3 C 14,5 km/h (3 Bft) 100,00 %
15.07.2016 09:00 14,4 C 82 % 1022,4 hPa 0,0 l/m 8,2 km/h (2 Bft) SW 236 0 min 0,000 mm 1,5 UV-I 274 W/m 11,4 C 13,4 C 12,9 km/h (3 Bft) 100,00 %
15.07.2016 09:02 14,4 C 81 % 1022,4 hPa 0,0 l/m 13,3 km/h (3 Bft) W 265 0 min 0,177 mm 1,2 UV-I 274 W/m 11,2 C 11,1 C 19,3 km/h (3 Bft) 100,00 %
15.07.2016 09:04 14,3 C 82 % 1022,5 hPa 0,0 l/m 7,3 km/h (2 Bft) W 279 0 min 0,000 mm 1,3 UV-I 266 W/m 11,3 C 13,8 C 12,9 km/h (3 Bft) 100,00 %
15.07.2016 09:06 14,3 C 82 % 1022,5 hPa 0,0 l/m 8,4 km/h (2 Bft) W-SW 245 2 min 0,000 mm 1,5 UV-I 334 W/m 11,3 C 13,1 C 16,1 km/h (3 Bft) 100,00 %
15.07.2016 09:08 14,2 C 81 % 1022,5 hPa 0,0 l/m 8,9 km/h (2 Bft) W 260 2 min 0,000 mm 1,4 UV-I 332 W/m 11,0 C 12,8 C 17,7 km/h (3 Bft) 97,87 %
15.07.2016 09:10 14,2 C 80 % 1022,6 hPa 0,0 l/m 10,1 km/h (2 Bft) W-SW 249 0 min 0,000 mm 1,5 UV-I 302 W/m 10,8 C 12,2 C 16,1 km/h (3 Bft) 100,00 %
15.07.2016 09:12 14,2 C 81 % 1022,6 hPa 0,0 l/m 8,5 km/h (2 Bft) W 263 2 min 0,000 mm 1,7 UV-I 431 W/m 11,0 C 13,0 C 14,5 km/h (3 Bft) 100,00 %
15.07.2016 09:14 14,2 C 80 % 1022,6 hPa 0,0 l/m 12,3 km/h (3 Bft) W 259 2 min 0,000 mm 1,6 UV-I 457 W/m 10,8 C 11,2 C 19,3 km/h (3 Bft) 100,00 %
15.07.2016 09:16 14,3 C 82 % 1022,6 hPa 0,0 l/m 6,8 km/h (2 Bft) NW 307 2 min 0,000 mm 1,8 UV-I 457 W/m 11,3 C 14,1 C 16,1 km/h (3 Bft) 100,00 %
15.07.2016 09:18 14,3 C 79 % 1022,6 hPa 0,0 l/m 6,5 km/h (2 Bft) W-SW 251 2 min 0,000 mm 1,4 UV-I 422 W/m 10,7 C 14,3 C 16,1 km/h (3 Bft) 97,87 %
15.07.2016 09:20 14,3 C 79 % 1022,6 hPa 0,0 l/m 7,2 km/h (2 Bft) W 273 2 min 0,000 mm 1,4 UV-I 349 W/m 10,7 C 13,8 C 12,9 km/h (3 Bft) 95,74 %
15.07.2016 09:22 14,3 C 81 % 1022,6 hPa 0,0 l/m 8,5 km/h (2 Bft) W-SW 258 2 min 0,000 mm 1,5 UV-I 482 W/m 11,1 C 13,1 C 12,9 km/h (3 Bft) 100,00 %
15.07.2016 09:24 14,4 C 81 % 1022,6 hPa 0,0 l/m 5,5 km/h (1 Bft) SW 226 2 min 0,000 mm 0,9 UV-I 495 W/m 11,2 C 14,4 C 11,3 km/h (2 Bft) 97,87 %
15.07.2016 09:26 14,4 C 80 % 1022,6 hPa 0,0 l/m 4,2 km/h (1 Bft) W-SW 253 0 min 0,000 mm 0,8 UV-I 191 W/m 11,0 C 14,4 C 8,0 km/h (2 Bft) 97,87 %
15.07.2016 09:28 14,3 C 81 % 1022,6 hPa 0,0 l/m 4,8 km/h (1 Bft) W-NW 284 0 min 0,000 mm 0,8 UV-I 179 W/m 11,1 C 14,3 C 9,7 km/h (2 Bft) 97,87 %
15.07.2016 09:30 14,1 C 80 % 1022,6 hPa 0,0 l/m 4,8 km/h (1 Bft) SW 229 0 min 0,000 mm 1,2 UV-I 257 W/m 10,7 C 14,1 C 12,9 km/h (3 Bft) 100,00 %
15.07.2016 09:33 14,1 C 81 % 1022,7 hPa 0,0 l/m 11,1 km/h (2 Bft) W-SW 254 0 min 0,000 mm 1,3 UV-I 303 W/m 10,9 C 11,6 C 17,7 km/h (3 Bft) 97,18 %
15.07.2016 09:34 14,1 C 81 % 1022,7 hPa 0,0 l/m 7,8 km/h (2 Bft) W-SW 237 0 min 0,000 mm 1,2 UV-I 228 W/m 10,9 C 13,3 C 12,9 km/h (3 Bft) 100,00 %
15.07.2016 09:36 14,1 C 82 % 1022,7 hPa 0,0 l/m 8,5 km/h (2 Bft) W 281 0 min 0,000 mm 1,0 UV-I 200 W/m 11,1 C 12,9 C 14,5 km/h (3 Bft) 95,74 %
15.07.2016 09:38 14,1 C 81 % 1022,7 hPa 0,0 l/m 6,5 km/h (2 Bft) W-SW 239 0 min 0,000 mm 1,0 UV-I 173 W/m 10,9 C 14,1 C 12,9 km/h (3 Bft) 95,83 %
15.07.2016 09:40 14,1 C 81 % 1022,8 hPa 0,0 l/m 6,0 km/h (2 Bft) N-NW 342 0 min 0,000 mm 1,2 UV-I 209 W/m 10,9 C 14,1 C 12,9 km/h (3 Bft) 97,87 %
15.07.2016 09:43 14,1 C 80 % 1022,8 hPa 0,0 l/m 6,3 km/h (2 Bft) W 270 0 min 0,000 mm 1,6 UV-I 282 W/m 10,7 C 14,1 C 16,1 km/h (3 Bft) 95,89 %
15.07.2016 09:44 14,1 C 80 % 1022,8 hPa 0,0 l/m 9,2 km/h (2 Bft) W-NW 301 0 min 0,000 mm 1,7 UV-I 350 W/m 10,7 C 12,5 C 12,9 km/h (3 Bft) 100,00 %
15.07.2016 09:46 14,1 C 82 % 1022,8 hPa 0,0 l/m 4,6 km/h (1 Bft) W-NW 297 2 min 0,000 mm 1,5 UV-I 361 W/m 11,1 C 14,1 C 11,3 km/h (2 Bft) 97,87 %
15.07.2016 09:48 14,3 C 82 % 1022,8 hPa 0,0 l/m 5,7 km/h (1 Bft) W-SW 250 0 min 0,000 mm 1,4 UV-I 280 W/m 11,3 C 14,3 C 11,3 km/h (2 Bft) 96,00 %
15.07.2016 09:50 14,3 C 82 % 1022,8 hPa 0,0 l/m 6,7 km/h (2 Bft) W-NW 295 0 min 0,000 mm 1,4 UV-I 303 W/m 11,3 C 14,1 C 17,7 km/h (3 Bft) 95,74 %
15.07.2016 09:52 14,3 C 81 % 1022,8 hPa 0,0 l/m 7,8 km/h (2 Bft) SW 222 0 min 0,000 mm 1,6 UV-I 288 W/m 11,1 C 13,5 C 14,5 km/h (3 Bft) 98,00 %
15.07.2016 09:54 14,3 C 80 % 1022,8 hPa 0,0 l/m 7,2 km/h (2 Bft) W-NW 300 2 min 0,000 mm 2,1 UV-I 592 W/m 10,9 C 13,8 C 14,5 km/h (3 Bft) 97,37 %
15.07.2016 09:56 14,4 C 80 % 1022,8 hPa 0,0 l/m 7,0 km/h (2 Bft) SW 225 2 min 0,000 mm 2,1 UV-I 456 W/m 11,0 C 14,1 C 14,5 km/h (3 Bft) 95,74 %
15.07.2016 09:58 14,5 C 81 % 1022,8 hPa 0,0 l/m 4,3 km/h (1 Bft) N-NW 329 2 min 0,000 mm 2,0 UV-I 390 W/m 11,3 C 14,5 C 8,0 km/h (2 Bft) 98,00 %
15.07.2016 10:00 14,6 C 82 % 1022,9 hPa 0,0 l/m 7,8 km/h (2 Bft) W-SW 244 2 min 0,204 mm 2,3 UV-I 493 W/m 11,6 C 13,8 C 14,5 km/h (3 Bft) 97,87 %
15.07.2016 10:03 14,7 C 80 % 1022,9 hPa 0,0 l/m 6,6 km/h (2 Bft) NW 304 3 min 0,000 mm 2,6 UV-I 526 W/m 11,3 C 14,6 C 14,5 km/h (3 Bft) 97,18 %
15.07.2016 10:04 14,7 C 80 % 1022,9 hPa 0,0 l/m 3,7 km/h (1 Bft) SW 236 1 min 0,000 mm 2,8 UV-I 482 W/m 11,3 C 14,7 C 6,4 km/h (2 Bft) 95,65 %
15.07.2016 10:06 14,7 C 79 % 1022,8 hPa 0,0 l/m 3,3 km/h (1 Bft) NW 321 2 min 0,000 mm 3,0 UV-I 578 W/m 11,1 C 14,7 C 9,7 km/h (2 Bft) 98,00 %
15.07.2016 10:08 14,8 C 80 % 1022,9 hPa 0,0 l/m 8,6 km/h (2 Bft) W-NW 297 2 min 0,000 mm 2,9 UV-I 575 W/m 11,4 C 13,6 C 17,7 km/h (3 Bft) 95,74 %
15.07.2016 10:10 14,9 C 80 % 1022,8 hPa 0,0 l/m 4,7 km/h (1 Bft) NW 306 2 min 0,000 mm 3,1 UV-I 555 W/m 11,5 C 14,9 C 12,9 km/h (3 Bft) 95,74 %
15.07.2016 10:12 15,1 C 79 % 1022,9 hPa 0,0 l/m 4,7 km/h (1 Bft) W-SW 251 2 min 0,000 mm 3,1 UV-I 548 W/m 11,5 C 15,1 C 9,7 km/h (2 Bft) 97,87 %
15.07.2016 10:14 15,1 C 77 % 1022,8 hPa 0,0 l/m 4,3 km/h (1 Bft) S-SW 211 2 min 0,000 mm 3,2 UV-I 563 W/m 11,1 C 15,1 C 8,0 km/h (2 Bft) 100,00 %
15.07.2016 10:16 15,2 C 78 % 1022,8 hPa 0,0 l/m 5,7 km/h (1 Bft) W-SW 252 2 min 0,000 mm 3,3 UV-I 628 W/m 11,4 C 15,2 C 11,3 km/h (2 Bft) 97,87 %
15.07.2016 10:18 15,3 C 78 % 1022,8 hPa 0,0 l/m 10,3 km/h (2 Bft) SW 215 2 min 0,000 mm 3,1 UV-I 583 W/m 11,5 C 13,3 C 17,7 km/h (3 Bft) 100,00 %
15.07.2016 10:20 15,3 C 77 % 1022,8 hPa 0,0 l/m 7,8 km/h (2 Bft) W 281 2 min 0,000 mm 3,0 UV-I 548 W/m 11,3 C 14,5 C 14,5 km/h (3 Bft) 100,00 %
15.07.2016 10:22 15,2 C 77 % 1022,8 hPa 0,0 l/m 9,1 km/h (2 Bft) W-SW 251 2 min 0,000 mm 2,2 UV-I 449 W/m 11,2 C 13,8 C 14,5 km/h (3 Bft) 100,00 %
15.07.2016 10:24 15,0 C 77 % 1022,9 hPa 0,0 l/m 8,0 km/h (2 Bft) SW 223 0 min 0,000 mm 1,5 UV-I 263 W/m 11,0 C 14,1 C 14,5 km/h (3 Bft) 100,00 %
15.07.2016 10:26 14,8 C 78 % 1022,8 hPa 0,0 l/m 5,5 km/h (1 Bft) W 277 0 min 0,000 mm 1,8 UV-I 270 W/m 11,0 C 14,8 C 11,3 km/h (2 Bft) 100,00 %
15.07.2016 10:28 14,8 C 79 % 1022,8 hPa 0,0 l/m 7,5 km/h (2 Bft) NW 306 0 min 0,000 mm 2,4 UV-I 351 W/m 11,2 C 14,2 C 12,9 km/h (3 Bft) 100,00 %
15.07.2016 10:30 14,8 C 80 % 1022,8 hPa 0,0 l/m 5,9 km/h (2 Bft) NW 321 2 min 0,000 mm 3,0 UV-I 488 W/m 11,4 C 14,8 C 12,9 km/h (3 Bft) 100,00 %
15.07.2016 10:32 14,9 C 78 % 1022,8 hPa 0,0 l/m 5,8 km/h (2 Bft) W-SW 238 2 min 0,000 mm 3,0 UV-I 465 W/m 11,1 C 14,9 C 17,7 km/h (3 Bft) 100,00 %
15.07.2016 10:34 15,0 C 79 % 1022,8 hPa 0,0 l/m 5,8 km/h (2 Bft) SW 232 2 min 0,000 mm 3,1 UV-I 531 W/m 11,4 C 15,0 C 11,3 km/h (2 Bft) 100,00 %
15.07.2016 10:36 15,3 C 80 % 1022,8 hPa 0,0 l/m 6,2 km/h (2 Bft) W-SW 244 2 min 0,000 mm 3,0 UV-I 552 W/m 11,9 C 15,3 C 16,1 km/h (3 Bft) 100,00 %
15.07.2016 10:38 15,3 C 77 % 1022,8 hPa 0,0 l/m 6,9 km/h (2 Bft) S-SW 211 2 min 0,000 mm 2,7 UV-I 539 W/m 11,3 C 15,0 C 12,9 km/h (3 Bft) 100,00 %
15.07.2016 10:40 15,4 C 79 % 1022,9 hPa 0,0 l/m 5,9 km/h (2 Bft) W-SW 249 0 min 0,000 mm 2,7 UV-I 363 W/m 11,8 C 15,4 C 14,5 km/h (3 Bft) 100,00 %
15.07.2016 10:42 15,3 C 77 % 1022,9 hPa 0,0 l/m 9,3 km/h (2 Bft) W-NW 292 2 min 0,000 mm 3,0 UV-I 528 W/m 11,3 C 13,8 C 14,5 km/h (3 Bft) 98,31 %
15.07.2016 10:44 15,3 C 76 % 1022,9 hPa 0,0 l/m 9,0 km/h (2 Bft) SW 236 2 min 0,000 mm 2,4 UV-I 447 W/m 11,1 C 13,9 C 16,1 km/h (3 Bft) 100,00 %
15.07.2016 10:46 15,2 C 78 % 1022,9 hPa 0,0 l/m 7,3 km/h (2 Bft) SW 236 0 min 0,000 mm 3,0 UV-I 355 W/m 11,4 C 14,7 C 17,7 km/h (3 Bft) 100,00 %
15.07.2016 10:48 15,2 C 76 % 1023,0 hPa 0,0 l/m 11,0 km/h (2 Bft) W-SW 249 2 min 0,000 mm 3,8 UV-I 473 W/m 11,0 C 12,9 C 17,7 km/h (3 Bft) 100,00 %
15.07.2016 10:50 15,3 C 77 % 1022,9 hPa 0,0 l/m 5,8 km/h (2 Bft) N-NW 335 2 min 0,000 mm 3,8 UV-I 573 W/m 11,3 C 15,3 C 12,9 km/h (3 Bft) 100,00 %
15.07.2016 10:52 15,6 C 80 % 1023,0 hPa 0,0 l/m 5,7 km/h (1 Bft) SW 229 2 min 0,000 mm 3,6 UV-I 679 W/m 12,2 C 15,6 C 11,3 km/h (2 Bft) 100,00 %
15.07.2016 10:54 15,7 C 77 % 1023,0 hPa 0,0 l/m 7,4 km/h (2 Bft) W-SW 252 2 min 0,000 mm 3,5 UV-I 431 W/m 11,7 C 15,2 C 17,7 km/h (3 Bft) 100,00 %
15.07.2016 10:56 15,7 C 74 % 1023,0 hPa 0,0 l/m 7,0 km/h (2 Bft) S-SW 209 0 min 0,000 mm 3,9 UV-I 362 W/m 11,1 C 15,4 C 12,9 km/h (3 Bft) 97,87 %
15.07.2016 10:58 15,7 C 75 % 1023,0 hPa 0,0 l/m 9,9 km/h (2 Bft) N 11 0 min 0,000 mm 3,3 UV-I 353 W/m 11,3 C 13,9 C 17,7 km/h (3 Bft) 100,00 %
15.07.2016 11:00 15,7 C 75 % 1023,1 hPa 0,0 l/m 9,7 km/h (2 Bft) W-SW 239 0 min 0,279 mm 3,3 UV-I 322 W/m 11,3 C 14,0 C 19,3 km/h (3 Bft) 100,00 %
15.07.2016 11:02 15,7 C 73 % 1023,1 hPa 0,0 l/m 7,5 km/h (2 Bft) W-SW 240 0 min 0,000 mm 4,1 UV-I 388 W/m 10,9 C 15,1 C 14,5 km/h (3 Bft) 98,31 %
15.07.2016 11:04 15,7 C 75 % 1023,1 hPa 0,0 l/m 6,4 km/h (2 Bft) SW 231 2 min 0,000 mm 4,5 UV-I 709 W/m 11,3 C 15,7 C 16,1 km/h (3 Bft) 100,00 %
15.07.2016 11:06 16,0 C 76 % 1023,1 hPa 0,0 l/m 4,0 km/h (1 Bft) N-NW 328 2 min 0,000 mm 4,5 UV-I 741 W/m 11,8 C 16,0 C 8,0 km/h (2 Bft) 100,00 %
15.07.2016 11:08 16,2 C 72 % 1023,1 hPa 0,0 l/m 3,0 km/h (1 Bft) W-NW 294 2 min 0,000 mm 3,7 UV-I 571 W/m 11,1 C 16,2 C 6,4 km/h (2 Bft) 100,00 %
15.07.2016 11:10 16,1 C 74 % 1023,1 hPa 0,0 l/m 4,5 km/h (1 Bft) N-NW 340 2 min 0,000 mm 3,2 UV-I 453 W/m 11,5 C 16,1 C 11,3 km/h (2 Bft) 95,74 %
15.07.2016 11:13 15,8 C 73 % 1023,2 hPa 0,0 l/m 8,5 km/h (2 Bft) W 267 0 min 0,000 mm 2,9 UV-I 339 W/m 11,0 C 14,7 C 19,3 km/h (3 Bft) 98,78 %
15.07.2016 11:14 15,7 C 73 % 1023,2 hPa 0,0 l/m 8,9 km/h (2 Bft) W-SW 247 0 min 0,000 mm 2,9 UV-I 344 W/m 10,9 C 14,4 C 12,9 km/h (3 Bft) 100,00 %
15.07.2016 11:16 15,6 C 74 % 1023,2 hPa 0,0 l/m 7,9 km/h (2 Bft) W-NW 288 0 min 0,000 mm 3,1 UV-I 390 W/m 11,0 C 14,8 C 12,9 km/h (3 Bft) 97,87 %
15.07.2016 11:18 15,6 C 74 % 1023,2 hPa 0,0 l/m 9,1 km/h (2 Bft) W-SW 241 0 min 0,000 mm 3,8 UV-I 436 W/m 11,0 C 14,2 C 16,1 km/h (3 Bft) 100,00 %
15.07.2016 11:20 15,6 C 75 % 1023,2 hPa 0,0 l/m 7,5 km/h (2 Bft) W-NW 286 2 min 0,000 mm 3,7 UV-I 508 W/m 11,2 C 15,0 C 14,5 km/h (3 Bft) 97,87 %
15.07.2016 11:22 15,7 C 73 % 1023,2 hPa 0,0 l/m 8,9 km/h (2 Bft) W-NW 284 2 min 0,000 mm 4,0 UV-I 613 W/m 10,9 C 14,4 C 16,1 km/h (3 Bft) 97,87 %
15.07.2016 11:24 15,8 C 73 % 1023,2 hPa 0,0 l/m 3,2 km/h (1 Bft) SW 234 2 min 0,000 mm 3,5 UV-I 571 W/m 11,0 C 15,8 C 8,0 km/h (2 Bft) 97,87 %
15.07.2016 11:26 16,0 C 75 % 1023,2 hPa 0,0 l/m 3,1 km/h (1 Bft) W-SW 255 2 min 0,000 mm 3,0 UV-I 482 W/m 11,6 C 16,0 C 9,7 km/h (2 Bft) 100,00 %
15.07.2016 11:28 16,1 C 75 % 1023,2 hPa 0,0 l/m 5,7 km/h (1 Bft) W-SW 251 0 min 0,000 mm 2,7 UV-I 371 W/m 11,7 C 16,1 C 11,3 km/h (2 Bft) 100,00 %
15.07.2016 11:30 16,0 C 72 % 1023,1 hPa 0,0 l/m 5,6 km/h (1 Bft) SW 236 0 min 0,000 mm 2,9 UV-I 386 W/m 11,0 C 16,0 C 11,3 km/h (2 Bft) 95,74 %
15.07.2016 11:32 16,0 C 74 % 1023,1 hPa 0,0 l/m 7,1 km/h (2 Bft) W-SW 252 2 min 0,000 mm 4,0 UV-I 504 W/m 11,4 C 15,6 C 12,9 km/h (3 Bft) 95,83 %
15.07.2016 11:34 16,0 C 72 % 1023,1 hPa 0,0 l/m 10,3 km/h (2 Bft) W-SW 257 2 min 0,000 mm 4,0 UV-I 530 W/m 11,0 C 14,1 C 17,7 km/h (3 Bft) 95,92 %
15.07.2016 11:36 16,1 C 75 % 1023,1 hPa 0,0 l/m 8,7 km/h (2 Bft) W-SW 250 2 min 0,000 mm 3,8 UV-I 538 W/m 11,7 C 14,9 C 14,5 km/h (3 Bft) 97,22 %
15.07.2016 11:38 16,2 C 71 % 1023,0 hPa 0,0 l/m 6,7 km/h (2 Bft) W-SW 252 0 min 0,000 mm 3,1 UV-I 432 W/m 10,9 C 16,1 C 12,9 km/h (3 Bft) 96,23 %
15.07.2016 11:40 16,3 C 73 % 1023,1 hPa 0,0 l/m 5,1 km/h (1 Bft) NW 318 0 min 0,000 mm 4,0 UV-I 431 W/m 11,4 C 16,3 C 12,9 km/h (3 Bft) 97,87 %
15.07.2016 11:42 16,3 C 70 % 1023,1 hPa 0,0 l/m 8,3 km/h (2 Bft) W-SW 246 0 min 0,000 mm 3,5 UV-I 429 W/m 10,8 C 15,3 C 14,5 km/h (3 Bft) 97,87 %
15.07.2016 11:44 16,3 C 71 % 1023,0 hPa 0,0 l/m 5,0 km/h (1 Bft) W-NW 284 0 min 0,000 mm 2,5 UV-I 341 W/m 11,0 C 16,3 C 14,5 km/h (3 Bft) 95,74 %
15.07.2016 11:46 16,2 C 73 % 1023,0 hPa 0,0 l/m 2,8 km/h (1 Bft) W-NW 284 0 min 0,000 mm 2,2 UV-I 304 W/m 11,4 C 16,2 C 4,8 km/h (1 Bft) 97,87 %
15.07.2016 11:48 16,1 C 71 % 1023,1 hPa 0,0 l/m 3,2 km/h (1 Bft) NW 310 0 min 0,000 mm 2,2 UV-I 298 W/m 10,8 C 16,1 C 6,4 km/h (2 Bft) 95,74 %
15.07.2016 11:50 16,1 C 75 % 1023,0 hPa 0,0 l/m 2,7 km/h (1 Bft) S-SW 205 0 min 0,000 mm 2,5 UV-I 336 W/m 11,7 C 16,1 C 6,4 km/h (2 Bft) 98,00 %
15.07.2016 11:52 16,1 C 72 % 1023,0 hPa 0,0 l/m 7,3 km/h (2 Bft) N 5 0 min 0,000 mm 3,1 UV-I 383 W/m 11,0 C 15,6 C 14,5 km/h (3 Bft) 95,74 %
15.07.2016 11:54 16,2 C 74 % 1023,0 hPa 0,0 l/m 4,8 km/h (1 Bft) W 273 0 min 0,000 mm 3,2 UV-I 424 W/m 11,6 C 16,2 C 8,0 km/h (2 Bft) 95,74 %
15.07.2016 11:56 16,2 C 71 % 1023,0 hPa 0,0 l/m 7,1 km/h (2 Bft) W 261 0 min 0,000 mm 2,7 UV-I 376 W/m 10,9 C 15,8 C 14,5 km/h (3 Bft) 97,87 %
15.07.2016 11:58 16,1 C 71 % 1023,0 hPa 0,0 l/m 6,9 km/h (2 Bft) W-SW 257 0 min 0,000 mm 2,2 UV-I 307 W/m 10,8 C 15,8 C 12,9 km/h (3 Bft) 97,87 %
15.07.2016 12:00 15,9 C 69 % 1023,0 hPa 0,0 l/m 7,2 km/h (2 Bft) W 271 0 min 0,279 mm 1,9 UV-I 253 W/m 10,2 C 15,5 C 14,5 km/h (3 Bft) 97,87 %
15.07.2016 12:02 15,9 C 71 % 1023,0 hPa 0,0 l/m 3,8 km/h (1 Bft) SW 226 0 min 0,000 mm 1,8 UV-I 240 W/m 10,6 C 15,9 C 6,4 km/h (2 Bft) 93,62 %
15.07.2016 12:04 15,8 C 73 % 1023,0 hPa 0,0 l/m 3,1 km/h (1 Bft) W-NW 284 0 min 0,000 mm 1,7 UV-I 225 W/m 11,0 C 15,8 C 9,7 km/h (2 Bft) 97,87 %
15.07.2016 12:06 15,8 C 72 % 1023,0 hPa 0,0 l/m 5,5 km/h (1 Bft) NW 306 0 min 0,000 mm 1,4 UV-I 184 W/m 10,8 C 15,8 C 8,0 km/h (2 Bft) 97,87 %
15.07.2016 12:08 15,7 C 74 % 1023,0 hPa 0,0 l/m 6,3 km/h (2 Bft) W-NW 302 0 min 0,000 mm 1,0 UV-I 139 W/m 11,1 C 15,7 C 14,5 km/h (3 Bft) 100,00 %
15.07.2016 12:10 15,7 C 72 % 1023,0 hPa 0,0 l/m 4,1 km/h (1 Bft) SW 232 0 min 0,000 mm 0,8 UV-I 117 W/m 10,7 C 15,7 C 9,7 km/h (2 Bft) 100,00 %
15.07.2016 12:12 15,6 C 72 % 1023,0 hPa 0,0 l/m 10,0 km/h (2 Bft) SW 225 0 min 0,000 mm 0,8 UV-I 112 W/m 10,6 C 13,8 C 16,1 km/h (3 Bft) 95,83 %
15.07.2016 12:14 15,4 C 72 % 1023,1 hPa 0,0 l/m 8,3 km/h (2 Bft) W-SW 254 0 min 0,000 mm 0,8 UV-I 109 W/m 10,4 C 14,4 C 16,1 km/h (3 Bft) 98,00 %
15.07.2016 12:16 15,4 C 73 % 1023,1 hPa 0,0 l/m 3,6 km/h (1 Bft) W 274 0 min 0,000 mm 0,8 UV-I 108 W/m 10,6 C 15,4 C 9,7 km/h (2 Bft) 100,00 %
15.07.2016 12:18 15,3 C 74 % 1023,0 hPa 0,0 l/m 2,5 km/h (1 Bft) NW 319 0 min 0,000 mm 0,8 UV-I 111 W/m 10,7 C 15,3 C 6,4 km/h (2 Bft) 98,00 %
15.07.2016 12:20 15,3 C 74 % 1023,1 hPa 0,0 l/m 5,7 km/h (1 Bft) W 264 0 min 0,000 mm 0,9 UV-I 114 W/m 10,7 C 15,3 C 11,3 km/h (2 Bft) 100,00 %
15.07.2016 12:22 15,3 C 74 % 1023,0 hPa 0,0 l/m 5,7 km/h (1 Bft) W-SW 248 0 min 0,000 mm 0,8 UV-I 108 W/m 10,7 C 15,3 C 12,9 km/h (3 Bft) 97,87 %
15.07.2016 12:24 15,2 C 75 % 1023,1 hPa 0,0 l/m 5,1 km/h (1 Bft) W 277 0 min 0,000 mm 0,8 UV-I 99 W/m 10,8 C 15,2 C 9,7 km/h (2 Bft) 95,74 %
15.07.2016 12:26 15,2 C 75 % 1023,0 hPa 0,0 l/m 4,8 km/h (1 Bft) W-NW 293 0 min 0,000 mm 0,8 UV-I 102 W/m 10,8 C 15,2 C 12,9 km/h (3 Bft) 100,00 %
15.07.2016 12:28 15,2 C 75 % 1023,1 hPa 0,0 l/m 3,2 km/h (1 Bft) W-SW 242 0 min 0,000 mm 0,8 UV-I 110 W/m 10,8 C 15,2 C 8,0 km/h (2 Bft) 100,00 %
15.07.2016 12:30 15,2 C 74 % 1023,0 hPa 0,0 l/m 5,0 km/h (1 Bft) W 266 0 min 0,000 mm 0,9 UV-I 114 W/m 10,6 C 15,2 C 11,3 km/h (2 Bft) 97,87 %
15.07.2016 12:32 15,2 C 76 % 1023,0 hPa 0,0 l/m 3,0 km/h (1 Bft) W 263 0 min 0,000 mm 0,8 UV-I 109 W/m 11,0 C 15,2 C 6,4 km/h (2 Bft) 97,87 %
15.07.2016 12:34 15,1 C 75 % 1023,1 hPa 0,0 l/m 3,8 km/h (1 Bft) W-NW 290 0 min 0,000 mm 0,8 UV-I 102 W/m 10,7 C 15,1 C 8,0 km/h (2 Bft) 100,00 %
15.07.2016 12:36 15,1 C 75 % 1023,0 hPa 0,0 l/m 5,2 km/h (1 Bft) W 262 0 min 0,000 mm 0,8 UV-I 109 W/m 10,7 C 15,1 C 9,7 km/h (2 Bft) 97,87 %
15.07.2016 12:38 15,1 C 75 % 1023,0 hPa 0,0 l/m 3,3 km/h (1 Bft) W-NW 283 0 min 0,000 mm 1,0 UV-I 131 W/m 10,7 C 15,1 C 9,7 km/h (2 Bft) 100,00 %
15.07.2016 12:40 15,1 C 76 % 1023,0 hPa 0,0 l/m 3,1 km/h (1 Bft) W 269 0 min 0,000 mm 1,2 UV-I 159 W/m 10,9 C 15,1 C 8,0 km/h (2 Bft) 97,87 %
15.07.2016 12:42 15,1 C 75 % 1023,0 hPa 0,0 l/m 3,1 km/h (1 Bft) W-NW 291 0 min 0,000 mm 1,5 UV-I 194 W/m 10,7 C 15,1 C 6,4 km/h (2 Bft) 100,00 %
15.07.2016 12:44 15,2 C 78 % 1023,0 hPa 0,0 l/m 3,5 km/h (1 Bft) W 268 0 min 0,000 mm 1,8 UV-I 231 W/m 11,4 C 15,2 C 6,4 km/h (2 Bft) 100,00 %
15.07.2016 12:46 15,3 C 77 % 1023,0 hPa 0,0 l/m 2,9 km/h (1 Bft) W-NW 302 0 min 0,000 mm 2,0 UV-I 253 W/m 11,3 C 15,3 C 9,7 km/h (2 Bft) 100,00 %
15.07.2016 12:48 15,3 C 77 % 1023,0 hPa 0,0 l/m 3,9 km/h (1 Bft) W-NW 298 0 min 0,000 mm 2,1 UV-I 282 W/m 11,3 C 15,3 C 8,0 km/h (2 Bft) 98,36 %
15.07.2016 12:50 15,5 C 75 % 1023,0 hPa 0,0 l/m 3,7 km/h (1 Bft) W-SW 248 0 min 0,000 mm 2,4 UV-I 322 W/m 11,1 C 15,5 C 9,7 km/h (2 Bft) 100,00 %
15.07.2016 12:52 15,6 C 75 % 1023,0 hPa 0,0 l/m 3,3 km/h (1 Bft) W-NW 292 0 min 0,000 mm 2,6 UV-I 352 W/m 11,2 C 15,6 C 6,4 km/h (2 Bft) 100,00 %
15.07.2016 12:54 15,7 C 74 % 1023,0 hPa 0,0 l/m 6,1 km/h (2 Bft) W 267 0 min 0,000 mm 2,5 UV-I 344 W/m 11,1 C 15,7 C 12,9 km/h (3 Bft) 97,87 %
15.07.2016 12:56 15,8 C 75 % 1023,0 hPa 0,0 l/m 4,2 km/h (1 Bft) W-SW 248 0 min 0,000 mm 2,5 UV-I 335 W/m 11,4 C 15,8 C 6,4 km/h (2 Bft) 100,00 %
15.07.2016 12:58 15,9 C 75 % 1023,1 hPa 0,0 l/m 1,2 km/h (1 Bft) W-SW 252 0 min 0,000 mm 2,6 UV-I 347 W/m 11,5 C 15,9 C 3,2 km/h (1 Bft) 97,87 %
15.07.2016 13:00 16,1 C 74 % 1023,0 hPa 0,0 l/m 3,0 km/h (1 Bft) W-NW 294 0 min 0,127 mm 2,8 UV-I 372 W/m 11,5 C 16,1 C 6,4 km/h (2 Bft) 95,74 %
15.07.2016 13:02 16,2 C 75 % 1023,0 hPa 0,0 l/m 5,4 km/h (1 Bft) NW 312 0 min 0,000 mm 2,8 UV-I 367 W/m 11,8 C 16,2 C 12,9 km/h (3 Bft) 97,87 %
15.07.2016 13:04 16,2 C 73 % 1023,0 hPa 0,0 l/m 4,2 km/h (1 Bft) W-NW 286 0 min 0,000 mm 2,6 UV-I 333 W/m 11,4 C 16,2 C 11,3 km/h (2 Bft) 100,00 %
15.07.2016 13:06 16,2 C 72 % 1023,0 hPa 0,0 l/m 5,6 km/h (1 Bft) SW 234 0 min 0,000 mm 2,3 UV-I 289 W/m 11,1 C 16,2 C 11,3 km/h (2 Bft) 100,00 %
15.07.2016 13:08 16,1 C 73 % 1023,0 hPa 0,0 l/m 4,7 km/h (1 Bft) W-NW 300 0 min 0,000 mm 2,0 UV-I 251 W/m 11,3 C 16,1 C 9,7 km/h (2 Bft) 100,00 %
15.07.2016 13:10 16,1 C 73 % 1023,0 hPa 0,0 l/m 4,3 km/h (1 Bft) SW 227 0 min 0,000 mm 1,9 UV-I 233 W/m 11,3 C 16,1 C 8,0 km/h (2 Bft) 95,74 %
15.07.2016 13:12 16,1 C 74 % 1023,0 hPa 0,0 l/m 9,4 km/h (2 Bft) W-SW 244 0 min 0,000 mm 1,8 UV-I 216 W/m 11,5 C 14,6 C 19,3 km/h (3 Bft) 97,87 %
15.07.2016 13:14 16,0 C 72 % 1023,0 hPa 0,0 l/m 10,7 km/h (2 Bft) NW 323 0 min 0,000 mm 1,6 UV-I 196 W/m 11,0 C 13,9 C 16,1 km/h (3 Bft) 97,87 %
15.07.2016 13:16 15,9 C 72 % 1023,0 hPa 0,0 l/m 8,9 km/h (2 Bft) W-SW 242 0 min 0,000 mm 1,4 UV-I 175 W/m 10,9 C 14,6 C 16,1 km/h (3 Bft) 97,87 %
15.07.2016 13:18 15,8 C 72 % 1023,1 hPa 0,0 l/m 8,8 km/h (2 Bft) SW 233 0 min 0,000 mm 1,4 UV-I 172 W/m 10,8 C 14,5 C 16,1 km/h (3 Bft) 95,74 %
15.07.2016 13:20 15,7 C 73 % 1023,0 hPa 0,0 l/m 8,0 km/h (2 Bft) W-SW 255 0 min 0,000 mm 1,3 UV-I 166 W/m 10,9 C 14,8 C 14,5 km/h (3 Bft) 97,87 %
15.07.2016 13:22 15,6 C 73 % 1023,0 hPa 0,0 l/m 9,8 km/h (2 Bft) W 267 0 min 0,000 mm 1,1 UV-I 146 W/m 10,8 C 13,9 C 16,1 km/h (3 Bft) 97,14 %
15.07.2016 13:24 15,6 C 75 % 1023,0 hPa 0,0 l/m 5,5 km/h (1 Bft) SW 218 0 min 0,000 mm 1,0 UV-I 130 W/m 11,2 C 15,6 C 11,3 km/h (2 Bft) 100,00 %
15.07.2016 13:26 15,4 C 75 % 1023,0 hPa 0,0 l/m 9,9 km/h (2 Bft) W-SW 239 0 min 0,000 mm 0,9 UV-I 128 W/m 11,0 C 13,6 C 14,5 km/h (3 Bft) 97,87 %
15.07.2016 13:28 15,4 C 75 % 1023,0 hPa 0,0 l/m 10,5 km/h (2 Bft) W 259 0 min 0,000 mm 1,0 UV-I 136 W/m 11,0 C 13,3 C 16,1 km/h (3 Bft) 97,87 %
15.07.2016 13:30 15,3 C 76 % 1023,0 hPa 0,0 l/m 8,3 km/h (2 Bft) W 277 0 min 0,000 mm 1,2 UV-I 153 W/m 11,1 C 14,3 C 16,1 km/h (3 Bft) 95,74 %
15.07.2016 13:32 15,3 C 75 % 1023,0 hPa 0,0 l/m 8,5 km/h (2 Bft) W-SW 247 0 min 0,000 mm 1,3 UV-I 176 W/m 10,9 C 14,2 C 16,1 km/h (3 Bft) 95,74 %
15.07.2016 13:34 15,3 C 77 % 1023,0 hPa 0,0 l/m 9,1 km/h (2 Bft) W-SW 244 0 min 0,000 mm 1,5 UV-I 207 W/m 11,3 C 13,9 C 12,9 km/h (3 Bft) 96,00 %
15.07.2016 13:36 15,3 C 77 % 1023,1 hPa 0,0 l/m 6,7 km/h (2 Bft) SW 227 0 min 0,000 mm 1,8 UV-I 244 W/m 11,3 C 15,1 C 12,9 km/h (3 Bft) 97,87 %
15.07.2016 13:38 15,3 C 74 % 1023,0 hPa 0,0 l/m 11,2 km/h (2 Bft) SW 231 0 min 0,000 mm 2,2 UV-I 283 W/m 10,7 C 12,9 C 17,7 km/h (3 Bft) 97,87 %
15.07.2016 13:40 15,3 C 74 % 1023,1 hPa 0,0 l/m 8,0 km/h (2 Bft) W 265 0 min 0,000 mm 2,4 UV-I 325 W/m 10,7 C 14,4 C 14,5 km/h (3 Bft) 93,62 %
15.07.2016 13:42 15,3 C 73 % 1023,1 hPa 0,0 l/m 7,7 km/h (2 Bft) W-SW 248 0 min 0,000 mm 2,7 UV-I 347 W/m 10,5 C 14,6 C 17,7 km/h (3 Bft) 98,00 %
15.07.2016 13:44 15,3 C 73 % 1023,1 hPa 0,0 l/m 9,2 km/h (2 Bft) W-SW 257 0 min 0,000 mm 2,8 UV-I 362 W/m 10,5 C 13,8 C 19,3 km/h (3 Bft) 95,74 %
15.07.2016 13:46 15,4 C 74 % 1023,1 hPa 0,0 l/m 8,8 km/h (2 Bft) W-SW 251 0 min 0,000 mm 3,0 UV-I 391 W/m 10,8 C 14,1 C 17,7 km/h (3 Bft) 93,62 %
15.07.2016 13:48 15,4 C 71 % 1023,1 hPa 0,0 l/m 14,3 km/h (3 Bft) SW 232 0 min 0,000 mm 3,3 UV-I 441 W/m 10,2 C 11,9 C 20,9 km/h (4 Bft) 97,37 %
15.07.2016 13:50 15,6 C 71 % 1023,1 hPa 0,0 l/m 14,3 km/h (3 Bft) W-NW 284 2 min 0,000 mm 3,9 UV-I 544 W/m 10,4 C 12,1 C 19,3 km/h (3 Bft) 98,00 %
15.07.2016 13:52 15,6 C 72 % 1023,0 hPa 0,0 l/m 10,6 km/h (2 Bft) S-SW 197 2 min 0,000 mm 4,1 UV-I 558 W/m 10,6 C 13,5 C 19,3 km/h (3 Bft) 95,74 %
15.07.2016 13:54 15,8 C 72 % 1023,0 hPa 0,0 l/m 9,1 km/h (2 Bft) W-SW 252 2 min 0,000 mm 3,7 UV-I 493 W/m 10,8 C 14,4 C 20,9 km/h (4 Bft) 96,00 %
15.07.2016 13:56 15,9 C 71 % 1023,0 hPa 0,0 l/m 9,0 km/h (2 Bft) W 277 2 min 0,000 mm 3,7 UV-I 486 W/m 10,6 C 14,6 C 17,7 km/h (3 Bft) 93,62 %
15.07.2016 13:58 16,0 C 73 % 1023,0 hPa 0,0 l/m 7,9 km/h (2 Bft) SW 218 0 min 0,000 mm 3,5 UV-I 433 W/m 11,2 C 15,2 C 12,9 km/h (3 Bft) 95,74 %
15.07.2016 14:00 16,1 C 71 % 1023,0 hPa 0,0 l/m 7,1 km/h (2 Bft) W-NW 291 0 min 0,178 mm 3,4 UV-I 418 W/m 10,8 C 15,7 C 12,9 km/h (3 Bft) 97,87 %
15.07.2016 14:02 16,2 C 73 % 1023,0 hPa 0,0 l/m 7,4 km/h (2 Bft) W 273 0 min 0,000 mm 3,5 UV-I 426 W/m 11,4 C 15,7 C 12,9 km/h (3 Bft) 100,00 %
15.07.2016 14:04 16,4 C 72 % 1023,0 hPa 0,0 l/m 8,2 km/h (2 Bft) S-SW 211 0 min 0,000 mm 3,8 UV-I 446 W/m 11,3 C 15,5 C 14,5 km/h (3 Bft) 100,00 %
15.07.2016 14:06 16,6 C 71 % 1022,9 hPa 0,0 l/m 9,9 km/h (2 Bft) S-SW 204 0 min 0,000 mm 4,6 UV-I 459 W/m 11,3 C 14,9 C 17,7 km/h (3 Bft) 100,00 %
15.07.2016 14:08 16,7 C 69 % 1023,0 hPa 0,0 l/m 12,1 km/h (2 Bft) W 259 2 min 0,000 mm 4,9 UV-I 645 W/m 11,0 C 14,2 C 20,9 km/h (4 Bft) 97,87 %
15.07.2016 14:10 16,7 C 70 % 1023,0 hPa 0,0 l/m 11,8 km/h (2 Bft) SW 236 2 min 0,000 mm 4,3 UV-I 551 W/m 11,2 C 14,3 C 22,5 km/h (4 Bft) 97,92 %
15.07.2016 14:12 16,8 C 71 % 1022,9 hPa 0,0 l/m 9,3 km/h (2 Bft) W-SW 258 2 min 0,000 mm 5,1 UV-I 501 W/m 11,5 C 15,4 C 16,1 km/h (3 Bft) 100,00 %
15.07.2016 14:14 17,2 C 71 % 1022,9 hPa 0,0 l/m 17,4 km/h (3 Bft) S-SW 206 2 min 0,000 mm 6,2 UV-I 1173 W/m 11,9 C 13,2 C 25,7 km/h (4 Bft) 100,00 %
15.07.2016 14:16 17,5 C 70 % 1022,9 hPa 0,0 l/m 16,3 km/h (3 Bft) SW 215 2 min 0,000 mm 6,5 UV-I 1252 W/m 12,0 C 13,9 C 24,1 km/h (4 Bft) 97,87 %
15.07.2016 14:18 17,6 C 67 % 1023,1 hPa 0,0 l/m 18,3 km/h (3 Bft) W-SW 254 2 min 0,000 mm 5,6 UV-I 1252 W/m 11,4 C 13,5 C 25,7 km/h (4 Bft) 100,00 %
15.07.2016 14:20 17,4 C 67 % 1023,1 hPa 0,0 l/m 16,3 km/h (3 Bft) SW 215 2 min 0,000 mm 4,7 UV-I 949 W/m 11,2 C 13,7 C 22,5 km/h (4 Bft) 100,00 %
15.07.2016 14:23 17,1 C 69 % 1023,0 hPa 0,0 l/m 6,9 km/h (2 Bft) W-SW 255 3 min 0,000 mm 3,5 UV-I 545 W/m 11,4 C 16,9 C 14,5 km/h (3 Bft) 98,57 %
15.07.2016 14:24 17,0 C 71 % 1023,0 hPa 0,0 l/m 5,8 km/h (2 Bft) W-NW 301 0 min 0,000 mm 2,8 UV-I 428 W/m 11,7 C 17,0 C 12,9 km/h (3 Bft) 93,33 %
15.07.2016 14:26 16,9 C 70 % 1023,0 hPa 0,0 l/m 9,4 km/h (2 Bft) W 265 0 min 0,000 mm 2,5 UV-I 351 W/m 11,4 C 15,5 C 20,9 km/h (4 Bft) 100,00 %
15.07.2016 14:28 16,7 C 69 % 1023,0 hPa 0,0 l/m 13,2 km/h (3 Bft) SW 232 0 min 0,000 mm 2,2 UV-I 316 W/m 11,0 C 13,8 C 20,9 km/h (4 Bft) 100,00 %
15.07.2016 14:30 16,6 C 71 % 1023,1 hPa 0,0 l/m 6,8 km/h (2 Bft) SW 234 0 min 0,000 mm 1,9 UV-I 274 W/m 11,3 C 16,4 C 11,3 km/h (2 Bft) 97,87 %
15.07.2016 14:32 16,6 C 70 % 1023,1 hPa 0,0 l/m 9,8 km/h (2 Bft) SW 227 0 min 0,000 mm 1,8 UV-I 248 W/m 11,1 C 15,0 C 16,1 km/h (3 Bft) 95,74 %
15.07.2016 14:34 16,6 C 71 % 1023,1 hPa 0,0 l/m 10,2 km/h (2 Bft) W-SW 257 0 min 0,000 mm 1,6 UV-I 230 W/m 11,3 C 14,8 C 19,3 km/h (3 Bft) 100,00 %
15.07.2016 14:36 16,5 C 71 % 1023,1 hPa 0,0 l/m 9,8 km/h (2 Bft) W-SW 252 0 min 0,000 mm 1,6 UV-I 222 W/m 11,2 C 14,9 C 19,3 km/h (3 Bft) 100,00 %
15.07.2016 14:38 16,4 C 73 % 1023,1 hPa 0,0 l/m 6,4 km/h (2 Bft) W 261 0 min 0,000 mm 1,6 UV-I 220 W/m 11,5 C 16,4 C 16,1 km/h (3 Bft) 100,00 %
15.07.2016 14:40 16,4 C 73 % 1023,2 hPa 0,0 l/m 7,5 km/h (2 Bft) W-SW 252 0 min 0,000 mm 1,8 UV-I 255 W/m 11,5 C 15,8 C 16,1 km/h (3 Bft) 100,00 %
15.07.2016 14:43 16,4 C 72 % 1023,2 hPa 0,0 l/m 4,8 km/h (1 Bft) W-SW 243 0 min 0,000 mm 2,0 UV-I 273 W/m 11,3 C 16,4 C 9,7 km/h (2 Bft) 100,00 %
15.07.2016 14:44 16,4 C 72 % 1023,2 hPa 0,0 l/m 3,5 km/h (1 Bft) W-NW 291 0 min 0,000 mm 1,9 UV-I 260 W/m 11,3 C 16,4 C 4,8 km/h (1 Bft) 95,65 %
15.07.2016 14:46 16,4 C 71 % 1023,1 hPa 0,0 l/m 5,2 km/h (1 Bft) W 275 0 min 0,000 mm 1,8 UV-I 250 W/m 11,1 C 16,4 C 11,3 km/h (2 Bft) 100,00 %
15.07.2016 14:48 16,3 C 72 % 1023,1 hPa 0,0 l/m 2,5 km/h (1 Bft) W-NW 286 0 min 0,000 mm 1,6 UV-I 231 W/m 11,2 C 16,3 C 4,8 km/h (1 Bft) 100,00 %
15.07.2016 14:50 16,4 C 74 % 1023,1 hPa 0,0 l/m 3,7 km/h (1 Bft) W-NW 302 0 min 0,000 mm 1,3 UV-I 193 W/m 11,8 C 16,4 C 14,5 km/h (3 Bft) 100,00 %
15.07.2016 14:53 16,3 C 74 % 1023,0 hPa 0,0 l/m 3,1 km/h (1 Bft) NW 318 0 min 0,000 mm 0,9 UV-I 133 W/m 11,7 C 16,3 C 9,7 km/h (2 Bft) 100,00 %
15.07.2016 14:54 16,3 C 72 % 1023,0 hPa 0,0 l/m 3,1 km/h (1 Bft) W 262 0 min 0,000 mm 0,9 UV-I 124 W/m 11,2 C 16,3 C 6,4 km/h (2 Bft) 100,00 %
15.07.2016 14:56 16,2 C 72 % 1023,1 hPa 0,0 l/m 2,8 km/h (1 Bft) W 274 0 min 0,000 mm 0,9 UV-I 140 W/m 11,1 C 16,2 C 6,4 km/h (2 Bft) 100,00 %
15.07.2016 14:58 16,2 C 73 % 1023,1 hPa 0,0 l/m 4,9 km/h (1 Bft) W-NW 286 0 min 0,000 mm 1,0 UV-I 141 W/m 11,4 C 16,2 C 11,3 km/h (2 Bft) 100,00 %
15.07.2016 15:00 16,1 C 73 % 1023,1 hPa 0,0 l/m 3,0 km/h (1 Bft) W-NW 296 0 min 0,000 mm 0,9 UV-I 133 W/m 11,3 C 16,1 C 9,7 km/h (2 Bft) 100,00 %
15.07.2016 15:03 16,1 C 73 % 1023,1 hPa 0,0 l/m 6,1 km/h (2 Bft) N-NW 337 0 min 0,254 mm 1,0 UV-I 135 W/m 11,3 C 16,1 C 20,9 km/h (4 Bft) 98,63 %
15.07.2016 15:04 16,0 C 74 % 1023,1 hPa 0,0 l/m 5,0 km/h (1 Bft) N 11 0 min 0,000 mm 0,9 UV-I 129 W/m 11,4 C 16,0 C 11,3 km/h (2 Bft) 100,00 %
15.07.2016 15:06 15,9 C 74 % 1023,1 hPa 0,0 l/m 5,3 km/h (1 Bft) W 261 0 min 0,000 mm 0,9 UV-I 126 W/m 11,3 C 15,9 C 14,5 km/h (3 Bft) 100,00 %
15.07.2016 15:08 15,8 C 75 % 1023,1 hPa 0,0 l/m 6,3 km/h (2 Bft) W-NW 294 0 min 0,000 mm 0,8 UV-I 122 W/m 11,4 C 15,8 C 12,9 km/h (3 Bft) 100,00 %
15.07.2016 15:10 15,8 C 76 % 1023,1 hPa 0,0 l/m 3,2 km/h (1 Bft) SW 227 0 min 0,000 mm 0,9 UV-I 127 W/m 11,6 C 15,8 C 9,7 km/h (2 Bft) 97,87 %
15.07.2016 15:12 15,7 C 79 % 1023,1 hPa 0,0 l/m 6,3 km/h (2 Bft) SW 228 0 min 0,000 mm 0,9 UV-I 136 W/m 12,1 C 15,7 C 12,9 km/h (3 Bft) 100,00 %
15.07.2016 15:14 15,4 C 80 % 1023,1 hPa 0,0 l/m 8,2 km/h (2 Bft) W-SW 246 0 min 0,000 mm 1,0 UV-I 143 W/m 12,0 C 14,4 C 17,7 km/h (3 Bft) 100,00 %
15.07.2016 15:16 15,2 C 80 % 1023,2 hPa 0,0 l/m 7,5 km/h (2 Bft) SW 236 0 min 0,000 mm 1,1 UV-I 153 W/m 11,8 C 14,6 C 12,9 km/h (3 Bft) 98,00 %
15.07.2016 15:18 14,9 C 81 % 1023,2 hPa 0,0 l/m 9,1 km/h (2 Bft) W 271 0 min 0,000 mm 1,2 UV-I 171 W/m 11,7 C 13,4 C 14,5 km/h (3 Bft) 100,00 %
15.07.2016 15:20 14,8 C 82 % 1023,2 hPa 0,0 l/m 8,8 km/h (2 Bft) W-NW 291 0 min 0,000 mm 1,3 UV-I 195 W/m 11,8 C 13,5 C 14,5 km/h (3 Bft) 97,87 %
15.07.2016 15:23 14,8 C 83 % 1023,1 hPa 0,0 l/m 8,7 km/h (2 Bft) W 259 0 min 0,000 mm 1,5 UV-I 230 W/m 11,9 C 13,5 C 12,9 km/h (3 Bft) 98,75 %
15.07.2016 15:24 14,8 C 83 % 1023,1 hPa 0,0 l/m 6,7 km/h (2 Bft) W 279 0 min 0,000 mm 1,8 UV-I 257 W/m 11,9 C 14,6 C 9,7 km/h (2 Bft) 100,00 %
15.07.2016 15:26 14,9 C 84 % 1023,1 hPa 0,0 l/m 6,4 km/h (2 Bft) W-SW 239 0 min 0,000 mm 1,9 UV-I 284 W/m 12,2 C 14,9 C 11,3 km/h (2 Bft) 95,74 %
15.07.2016 15:28 15,1 C 83 % 1023,0 hPa 0,0 l/m 8,2 km/h (2 Bft) W 281 0 min 0,000 mm 2,1 UV-I 319 W/m 12,2 C 14,1 C 11,3 km/h (2 Bft) 93,62 %
15.07.2016 15:30 15,3 C 83 % 1023,0 hPa 0,0 l/m 4,2 km/h (1 Bft) W-SW 254 0 min 0,000 mm 2,2 UV-I 340 W/m 12,4 C 15,3 C 8,0 km/h (2 Bft) 97,87 %
15.07.2016 15:32 15,4 C 81 % 1023,0 hPa 0,0 l/m 7,4 km/h (2 Bft) W-SW 248 0 min 0,000 mm 2,3 UV-I 348 W/m 12,2 C 14,8 C 12,9 km/h (3 Bft) 98,15 %
15.07.2016 15:34 15,7 C 80 % 1023,0 hPa 0,0 l/m 6,7 km/h (2 Bft) W 263 0 min 0,000 mm 2,3 UV-I 347 W/m 12,3 C 15,5 C 12,9 km/h (3 Bft) 97,87 %
15.07.2016 15:36 15,8 C 77 % 1023,0 hPa 0,0 l/m 14,8 km/h (3 Bft) W-SW 244 0 min 0,000 mm 2,3 UV-I 347 W/m 11,8 C 12,2 C 19,3 km/h (3 Bft) 95,74 %
15.07.2016 15:38 15,8 C 77 % 1023,0 hPa 0,0 l/m 10,3 km/h (2 Bft) W 264 0 min 0,000 mm 2,3 UV-I 337 W/m 11,8 C 13,9 C 17,7 km/h (3 Bft) 97,87 %
15.07.2016 15:40 16,0 C 76 % 1023,0 hPa 0,0 l/m 8,5 km/h (2 Bft) SW 224 0 min 0,000 mm 2,3 UV-I 337 W/m 11,8 C 14,9 C 14,5 km/h (3 Bft) 95,74 %
15.07.2016 15:42 16,1 C 75 % 1023,0 hPa 0,0 l/m 10,6 km/h (2 Bft) SW 236 0 min 0,000 mm 2,4 UV-I 355 W/m 11,7 C 14,1 C 17,7 km/h (3 Bft) 95,74 %
15.07.2016 15:44 16,2 C 75 % 1023,0 hPa 0,0 l/m 11,1 km/h (2 Bft) W-SW 254 0 min 0,000 mm 2,5 UV-I 379 W/m 11,8 C 14,0 C 16,1 km/h (3 Bft) 97,87 %
15.07.2016 15:46 16,3 C 75 % 1023,0 hPa 0,0 l/m 9,8 km/h (2 Bft) SW 230 0 min 0,000 mm 2,6 UV-I 404 W/m 11,9 C 14,6 C 20,9 km/h (4 Bft) 97,14 %
15.07.2016 15:48 16,4 C 74 % 1023,0 hPa 0,0 l/m 10,4 km/h (2 Bft) W 267 0 min 0,000 mm 2,6 UV-I 339 W/m 11,8 C 14,5 C 17,7 km/h (3 Bft) 98,11 %
15.07.2016 15:50 16,4 C 72 % 1022,9 hPa 0,0 l/m 10,4 km/h (2 Bft) W-NW 288 2 min 0,000 mm 2,7 UV-I 417 W/m 11,3 C 14,5 C 16,1 km/h (3 Bft) 97,87 %
15.07.2016 15:52 16,5 C 73 % 1022,9 hPa 0,0 l/m 8,3 km/h (2 Bft) W 265 0 min 0,000 mm 2,1 UV-I 368 W/m 11,6 C 15,5 C 14,5 km/h (3 Bft) 98,00 %
15.07.2016 15:54 16,6 C 74 % 1022,9 hPa 0,0 l/m 8,5 km/h (2 Bft) W-SW 240 0 min 0,000 mm 1,9 UV-I 271 W/m 11,9 C 15,5 C 16,1 km/h (3 Bft) 97,87 %
15.07.2016 15:56 16,6 C 72 % 1022,9 hPa 0,0 l/m 10,9 km/h (2 Bft) W 274 0 min 0,000 mm 1,5 UV-I 187 W/m 11,5 C 14,5 C 20,9 km/h (4 Bft) 97,87 %
15.07.2016 15:58 16,4 C 71 % 1022,9 hPa 0,0 l/m 12,9 km/h (3 Bft) W-SW 238 0 min 0,000 mm 1,1 UV-I 169 W/m 11,1 C 13,6 C 19,3 km/h (3 Bft) 97,87 %
15.07.2016 16:00 16,3 C 70 % 1022,9 hPa 0,0 l/m 14,7 km/h (3 Bft) W 263 0 min 0,153 mm 1,2 UV-I 216 W/m 10,8 C 12,9 C 22,5 km/h (4 Bft) 100,00 %
15.07.2016 16:02 16,3 C 71 % 1022,9 hPa 0,0 l/m 11,3 km/h (2 Bft) W 263 0 min 0,000 mm 1,6 UV-I 295 W/m 11,0 C 14,0 C 20,9 km/h (4 Bft) 100,00 %
15.07.2016 16:04 16,3 C 73 % 1022,9 hPa 0,0 l/m 13,0 km/h (3 Bft) W-SW 249 0 min 0,000 mm 1,8 UV-I 333 W/m 11,4 C 13,4 C 19,3 km/h (3 Bft) 97,22 %
15.07.2016 16:06 16,3 C 72 % 1022,9 hPa 0,0 l/m 11,6 km/h (2 Bft) W 263 0 min 0,000 mm 1,9 UV-I 355 W/m 11,2 C 13,9 C 20,9 km/h (4 Bft) 97,87 %
15.07.2016 16:08 16,3 C 71 % 1022,9 hPa 0,0 l/m 15,5 km/h (3 Bft) SW 235 0 min 0,000 mm 1,9 UV-I 359 W/m 11,0 C 12,6 C 27,4 km/h (4 Bft) 97,87 %
15.07.2016 16:10 16,3 C 72 % 1022,9 hPa 0,0 l/m 9,1 km/h (2 Bft) W-SW 240 0 min 0,000 mm 1,7 UV-I 295 W/m 11,2 C 14,9 C 14,5 km/h (3 Bft) 100,00 %
15.07.2016 16:12 16,3 C 71 % 1022,9 hPa 0,0 l/m 12,4 km/h (3 Bft) SW 225 0 min 0,000 mm 1,6 UV-I 265 W/m 11,0 C 13,6 C 24,1 km/h (4 Bft) 100,00 %
15.07.2016 16:14 16,2 C 72 % 1022,9 hPa 0,0 l/m 10,1 km/h (2 Bft) W-SW 241 0 min 0,000 mm 1,5 UV-I 259 W/m 11,1 C 14,4 C 19,3 km/h (3 Bft) 96,00 %
15.07.2016 16:16 16,1 C 71 % 1022,9 hPa 0,0 l/m 11,3 km/h (2 Bft) W-SW 237 0 min 0,000 mm 1,4 UV-I 247 W/m 10,8 C 13,8 C 19,3 km/h (3 Bft) 97,87 %
15.07.2016 16:18 16,1 C 72 % 1022,8 hPa 0,0 l/m 8,6 km/h (2 Bft) W-SW 238 0 min 0,000 mm 1,4 UV-I 252 W/m 11,0 C 15,0 C 14,5 km/h (3 Bft) 100,00 %
15.07.2016 16:20 16,1 C 72 % 1022,8 hPa 0,0 l/m 12,8 km/h (3 Bft) W 259 0 min 0,000 mm 1,5 UV-I 289 W/m 11,0 C 13,2 C 22,5 km/h (4 Bft) 100,00 %
15.07.2016 16:22 16,1 C 74 % 1022,8 hPa 0,0 l/m 9,9 km/h (2 Bft) W 259 0 min 0,000 mm 1,7 UV-I 343 W/m 11,5 C 14,4 C 19,3 km/h (3 Bft) 100,00 %
15.07.2016 16:24 16,1 C 72 % 1022,8 hPa 0,0 l/m 8,0 km/h (2 Bft) W 264 0 min 0,000 mm 1,6 UV-I 275 W/m 11,0 C 15,3 C 14,5 km/h (3 Bft) 100,00 %
15.07.2016 16:26 16,2 C 73 % 1022,9 hPa 0,0 l/m 8,3 km/h (2 Bft) W-SW 257 0 min 0,000 mm 1,6 UV-I 267 W/m 11,4 C 15,2 C 14,5 km/h (3 Bft) 100,00 %
15.07.2016 16:28 16,2 C 73 % 1022,9 hPa 0,0 l/m 8,9 km/h (2 Bft) W 261 0 min 0,000 mm 1,7 UV-I 278 W/m 11,4 C 14,9 C 17,7 km/h (3 Bft) 100,00 %
15.07.2016 16:30 16,2 C 73 % 1022,9 hPa 0,0 l/m 6,1 km/h (2 Bft) W-SW 237 0 min 0,000 mm 1,9 UV-I 298 W/m 11,4 C 16,2 C 17,7 km/h (3 Bft) 100,00 %
15.07.2016 16:32 16,2 C 72 % 1022,9 hPa 0,0 l/m 13,4 km/h (3 Bft) W-SW 255 0 min 0,000 mm 2,1 UV-I 317 W/m 11,1 C 13,2 C 20,9 km/h (4 Bft) 100,00 %
15.07.2016 16:34 16,2 C 73 % 1022,8 hPa 0,0 l/m 8,4 km/h (2 Bft) W-NW 285 0 min 0,000 mm 2,1 UV-I 296 W/m 11,4 C 15,2 C 16,1 km/h (3 Bft) 97,87 %
15.07.2016 16:36 16,3 C 73 % 1022,8 hPa 0,0 l/m 9,5 km/h (2 Bft) W 266 0 min 0,000 mm 2,9 UV-I 318 W/m 11,4 C 14,8 C 19,3 km/h (3 Bft) 100,00 %
15.07.2016 16:38 16,7 C 72 % 1022,8 hPa 0,0 l/m 10,9 km/h (2 Bft) W 266 2 min 0,000 mm 3,0 UV-I 741 W/m 11,6 C 14,6 C 20,9 km/h (4 Bft) 97,87 %
15.07.2016 16:40 17,1 C 66 % 1022,8 hPa 0,0 l/m 12,3 km/h (3 Bft) S-SW 200 2 min 0,000 mm 3,0 UV-I 737 W/m 10,7 C 14,6 C 22,5 km/h (4 Bft) 100,00 %
15.07.2016 16:42 17,3 C 66 % 1022,8 hPa 0,0 l/m 6,4 km/h (2 Bft) W-SW 244 2 min 0,000 mm 3,0 UV-I 731 W/m 10,9 C 17,3 C 16,1 km/h (3 Bft) 100,00 %
15.07.2016 16:44 17,4 C 65 % 1022,8 hPa 0,0 l/m 8,1 km/h (2 Bft) W-SW 243 2 min 0,000 mm 2,8 UV-I 690 W/m 10,8 C 16,6 C 16,1 km/h (3 Bft) 100,00 %
15.07.2016 16:46 17,7 C 65 % 1022,8 hPa 0,0 l/m 15,5 km/h (3 Bft) SW 236 2 min 0,000 mm 2,8 UV-I 739 W/m 11,0 C 14,3 C 24,1 km/h (4 Bft) 97,87 %
15.07.2016 16:48 17,7 C 64 % 1022,8 hPa 0,0 l/m 12,8 km/h (3 Bft) W-SW 241 2 min 0,000 mm 2,3 UV-I 619 W/m 10,8 C 15,1 C 20,9 km/h (4 Bft) 97,87 %
15.07.2016 16:50 17,5 C 65 % 1022,8 hPa 0,0 l/m 13,0 km/h (3 Bft) S-SW 210 2 min 0,000 mm 2,4 UV-I 398 W/m 10,8 C 14,8 C 20,9 km/h (4 Bft) 100,00 %
15.07.2016 16:52 17,4 C 65 % 1022,8 hPa 0,0 l/m 11,4 km/h (2 Bft) W-NW 283 2 min 0,000 mm 2,6 UV-I 646 W/m 10,8 C 15,2 C 19,3 km/h (3 Bft) 100,00 %
15.07.2016 16:54 17,5 C 67 % 1022,8 hPa 0,0 l/m 7,6 km/h (2 Bft) W 260 2 min 0,000 mm 2,6 UV-I 607 W/m 11,3 C 16,9 C 17,7 km/h (3 Bft) 100,00 %
15.07.2016 16:56 17,4 C 64 % 1022,9 hPa 0,0 l/m 16,2 km/h (3 Bft) W-SW 256 2 min 0,000 mm 2,6 UV-I 656 W/m 10,5 C 13,8 C 24,1 km/h (4 Bft) 100,00 %
15.07.2016 16:58 17,5 C 67 % 1022,8 hPa 0,0 l/m 11,3 km/h (2 Bft) SW 221 2 min 0,000 mm 2,6 UV-I 653 W/m 11,3 C 15,4 C 17,7 km/h (3 Bft) 100,00 %
15.07.2016 17:00 17,6 C 67 % 1022,8 hPa 0,0 l/m 9,0 km/h (2 Bft) W 270 2 min 0,279 mm 2,5 UV-I 657 W/m 11,4 C 16,4 C 14,5 km/h (3 Bft) 100,00 %
15.07.2016 17:02 17,7 C 64 % 1022,8 hPa 0,0 l/m 11,7 km/h (2 Bft) W 266 2 min 0,000 mm 2,3 UV-I 658 W/m 10,8 C 15,5 C 17,7 km/h (3 Bft) 97,87 %
15.07.2016 17:04 17,6 C 65 % 1022,8 hPa 0,0 l/m 12,9 km/h (3 Bft) W-SW 253 2 min 0,000 mm 2,1 UV-I 613 W/m 10,9 C 15,0 C 19,3 km/h (3 Bft) 100,00 %
15.07.2016 17:06 17,3 C 65 % 1022,8 hPa 0,0 l/m 9,2 km/h (2 Bft) SW 219 2 min 0,000 mm 1,6 UV-I 384 W/m 10,7 C 16,0 C 20,9 km/h (4 Bft) 100,00 %
15.07.2016 17:08 17,0 C 66 % 1022,8 hPa 0,0 l/m 11,5 km/h (2 Bft) W-SW 254 0 min 0,000 mm 1,3 UV-I 213 W/m 10,6 C 14,8 C 17,7 km/h (3 Bft) 100,00 %
15.07.2016 17:10 16,8 C 68 % 1022,8 hPa 0,0 l/m 6,0 km/h (2 Bft) W-NW 301 0 min 0,000 mm 1,1 UV-I 208 W/m 10,9 C 16,8 C 12,9 km/h (3 Bft) 100,00 %
15.07.2016 17:12 16,7 C 69 % 1022,8 hPa 0,0 l/m 7,3 km/h (2 Bft) W 261 0 min 0,000 mm 1,0 UV-I 189 W/m 11,0 C 16,2 C 17,7 km/h (3 Bft) 100,00 %
15.07.2016 17:14 16,7 C 68 % 1022,8 hPa 0,0 l/m 11,9 km/h (2 Bft) W-NW 286 0 min 0,000 mm 0,9 UV-I 176 W/m 10,8 C 14,3 C 17,7 km/h (3 Bft) 100,00 %
15.07.2016 17:16 16,7 C 69 % 1022,9 hPa 0,0 l/m 14,6 km/h (3 Bft) W-SW 244 0 min 0,000 mm 0,9 UV-I 162 W/m 11,0 C 13,4 C 24,1 km/h (4 Bft) 97,87 %
15.07.2016 17:18 16,6 C 68 % 1022,8 hPa 0,0 l/m 7,5 km/h (2 Bft) W-SW 250 0 min 0,000 mm 0,7 UV-I 133 W/m 10,7 C 16,0 C 14,5 km/h (3 Bft) 94,74 %
15.07.2016 17:20 16,6 C 70 % 1022,8 hPa 0,0 l/m 8,0 km/h (2 Bft) NW 309 0 min 0,000 mm 0,5 UV-I 111 W/m 11,1 C 15,8 C 14,5 km/h (3 Bft) 97,92 %
15.07.2016 17:22 16,5 C 70 % 1022,8 hPa 0,0 l/m 8,7 km/h (2 Bft) N-NO 25 0 min 0,000 mm 0,1 UV-I 106 W/m 11,0 C 15,3 C 19,3 km/h (3 Bft) 97,87 %
15.07.2016 17:24 16,4 C 71 % 1022,9 hPa 0,0 l/m 6,3 km/h (2 Bft) NW 315 0 min 0,000 mm 0,5 UV-I 137 W/m 11,1 C 16,4 C 16,1 km/h (3 Bft) 97,87 %
15.07.2016 17:26 16,3 C 71 % 1023,0 hPa 0,0 l/m 6,1 km/h (2 Bft) N-NW 343 0 min 0,000 mm 0,7 UV-I 187 W/m 11,0 C 16,3 C 14,5 km/h (3 Bft) 94,00 %
15.07.2016 17:28 16,2 C 69 % 1023,0 hPa 0,0 l/m 7,7 km/h (2 Bft) N-NW 327 0 min 0,000 mm 0,8 UV-I 177 W/m 10,5 C 15,5 C 24,1 km/h (4 Bft) 97,87 %
15.07.2016 17:30 16,1 C 70 % 1023,0 hPa 0,0 l/m 4,8 km/h (1 Bft) W-NW 298 0 min 0,000 mm 0,6 UV-I 144 W/m 10,6 C 16,1 C 11,3 km/h (2 Bft) 96,00 %
15.07.2016 17:32 16,0 C 70 % 1023,1 hPa 0,0 l/m 5,1 km/h (1 Bft) W-NW 288 0 min 0,000 mm 0,4 UV-I 112 W/m 10,5 C 16,0 C 11,3 km/h (2 Bft) 95,74 %
15.07.2016 17:34 15,9 C 72 % 1023,0 hPa 0,0 l/m 2,3 km/h (1 Bft) W 265 0 min 0,000 mm 0,0 UV-I 90 W/m 10,9 C 15,9 C 6,4 km/h (2 Bft) 95,74 %
15.07.2016 17:36 15,9 C 74 % 1023,0 hPa 0,0 l/m 1,4 km/h (1 Bft) W 263 0 min 0,000 mm 0,0 UV-I 88 W/m 11,3 C 15,9 C 3,2 km/h (1 Bft) 97,87 %
15.07.2016 17:38 15,9 C 74 % 1023,0 hPa 0,0 l/m 3,8 km/h (1 Bft) W-SW 246 0 min 0,000 mm 0,0 UV-I 80 W/m 11,3 C 15,9 C 9,7 km/h (2 Bft) 97,87 %
15.07.2016 17:40 15,8 C 73 % 1023,0 hPa 0,0 l/m 5,1 km/h (1 Bft) NW 306 0 min 0,000 mm 0,0 UV-I 71 W/m 11,0 C 15,8 C 12,9 km/h (3 Bft) 97,56 %
15.07.2016 17:42 15,7 C 71 % 1022,9 hPa 0,0 l/m 4,1 km/h (1 Bft) W-NW 288 0 min 0,000 mm 0,0 UV-I 69 W/m 10,5 C 15,7 C 8,0 km/h (2 Bft) 95,74 %
15.07.2016 17:44 15,7 C 72 % 1023,0 hPa 0,0 l/m 5,8 km/h (2 Bft) NW 311 0 min 0,000 mm 0,0 UV-I 69 W/m 10,7 C 15,7 C 12,9 km/h (3 Bft) 97,87 %
15.07.2016 17:46 15,6 C 71 % 1022,9 hPa 0,0 l/m 5,5 km/h (1 Bft) N-NW 337 0 min 0,000 mm 0,0 UV-I 70 W/m 10,4 C 15,6 C 16,1 km/h (3 Bft) 97,87 %
15.07.2016 17:48 15,6 C 72 % 1022,9 hPa 0,0 l/m 5,2 km/h (1 Bft) W-SW 243 0 min 0,000 mm 0,0 UV-I 70 W/m 10,6 C 15,6 C 12,9 km/h (3 Bft) 98,00 %
15.07.2016 17:50 15,5 C 74 % 1022,9 hPa 0,0 l/m 4,2 km/h (1 Bft) SW 232 0 min 0,000 mm 0,0 UV-I 70 W/m 10,9 C 15,5 C 6,4 km/h (2 Bft) 97,87 %
15.07.2016 17:52 15,5 C 73 % 1022,9 hPa 0,0 l/m 7,9 km/h (2 Bft) W-NW 295 0 min 0,000 mm 0,0 UV-I 73 W/m 10,7 C 14,7 C 14,5 km/h (3 Bft) 97,87 %
15.07.2016 17:54 15,4 C 72 % 1022,9 hPa 0,0 l/m 9,4 km/h (2 Bft) W-SW 254 0 min 0,000 mm 0,0 UV-I 77 W/m 10,4 C 13,8 C 14,5 km/h (3 Bft) 97,87 %
15.07.2016 17:56 15,4 C 73 % 1022,9 hPa 0,0 l/m 7,8 km/h (2 Bft) W-SW 256 0 min 0,000 mm 0,0 UV-I 75 W/m 10,6 C 14,6 C 17,7 km/h (3 Bft) 100,00 %
15.07.2016 17:58 15,4 C 73 % 1022,9 hPa 0,0 l/m 7,6 km/h (2 Bft) W-SW 257 0 min 0,000 mm 0,0 UV-I 72 W/m 10,6 C 14,7 C 14,5 km/h (3 Bft) 100,00 %
15.07.2016 18:00 15,3 C 74 % 1022,9 hPa 0,0 l/m 9,6 km/h (2 Bft) W-SW 255 0 min 0,102 mm 0,0 UV-I 72 W/m 10,7 C 13,6 C 16,1 km/h (3 Bft) 100,00 %
15.07.2016 18:02 15,3 C 74 % 1022,9 hPa 0,0 l/m 7,3 km/h (2 Bft) W-SW 238 0 min 0,000 mm 0,0 UV-I 75 W/m 10,7 C 14,8 C 12,9 km/h (3 Bft) 98,00 %
15.07.2016 18:04 15,3 C 74 % 1022,8 hPa 0,0 l/m 10,0 km/h (2 Bft) SW 234 0 min 0,000 mm 0,0 UV-I 77 W/m 10,7 C 13,4 C 19,3 km/h (3 Bft) 100,00 %
15.07.2016 18:06 15,3 C 74 % 1022,9 hPa 0,0 l/m 9,4 km/h (2 Bft) W-SW 252 0 min 0,000 mm 0,0 UV-I 85 W/m 10,7 C 13,7 C 14,5 km/h (3 Bft) 97,87 %
15.07.2016 18:08 15,3 C 74 % 1022,8 hPa 0,0 l/m 8,9 km/h (2 Bft) W-SW 258 0 min 0,000 mm 0,0 UV-I 99 W/m 10,7 C 14,0 C 17,7 km/h (3 Bft) 97,87 %
15.07.2016 18:10 15,3 C 75 % 1022,9 hPa 0,0 l/m 7,3 km/h (2 Bft) W 268 0 min 0,000 mm 0,0 UV-I 116 W/m 10,9 C 14,8 C 14,5 km/h (3 Bft) 100,00 %
15.07.2016 18:12 15,4 C 76 % 1022,9 hPa 0,0 l/m 6,6 km/h (2 Bft) W 270 0 min 0,000 mm 0,1 UV-I 128 W/m 11,2 C 15,3 C 12,9 km/h (3 Bft) 100,00 %
15.07.2016 18:14 15,4 C 75 % 1022,8 hPa 0,0 l/m 8,5 km/h (2 Bft) W-SW 250 0 min 0,000 mm 0,5 UV-I 134 W/m 11,0 C 14,3 C 14,5 km/h (3 Bft) 100,00 %
15.07.2016 18:16 15,5 C 76 % 1022,8 hPa 0,0 l/m 4,9 km/h (1 Bft) NW 315 0 min 0,000 mm 0,5 UV-I 138 W/m 11,3 C 15,5 C 8,0 km/h (2 Bft) 100,00 %
15.07.2016 18:18 15,6 C 76 % 1022,8 hPa 0,0 l/m 7,9 km/h (2 Bft) W-SW 245 0 min 0,000 mm 0,5 UV-I 145 W/m 11,4 C 14,8 C 14,5 km/h (3 Bft) 97,87 %
15.07.2016 18:20 15,6 C 76 % 1022,8 hPa 0,0 l/m 5,1 km/h (1 Bft) W 265 0 min 0,000 mm 0,5 UV-I 149 W/m 11,4 C 15,6 C 12,9 km/h (3 Bft) 100,00 %
15.07.2016 18:22 15,7 C 76 % 1022,8 hPa 0,0 l/m 5,5 km/h (1 Bft) W 259 0 min 0,000 mm 0,5 UV-I 143 W/m 11,5 C 15,7 C 12,9 km/h (3 Bft) 97,87 %
15.07.2016 18:24 15,8 C 77 % 1022,9 hPa 0,0 l/m 4,3 km/h (1 Bft) SW 226 0 min 0,000 mm 0,5 UV-I 138 W/m 11,8 C 15,8 C 6,4 km/h (2 Bft) 97,14 %
15.07.2016 18:26 15,8 C 76 % 1022,9 hPa 0,0 l/m 5,3 km/h (1 Bft) W-SW 244 0 min 0,000 mm 0,5 UV-I 135 W/m 11,6 C 15,8 C 9,7 km/h (2 Bft) 100,00 %
15.07.2016 18:28 15,8 C 76 % 1022,9 hPa 0,0 l/m 6,9 km/h (2 Bft) W 279 0 min 0,000 mm 0,5 UV-I 131 W/m 11,6 C 15,5 C 12,9 km/h (3 Bft) 93,62 %
15.07.2016 18:30 15,8 C 77 % 1022,9 hPa 0,0 l/m 6,5 km/h (2 Bft) W-SW 248 0 min 0,000 mm 0,4 UV-I 129 W/m 11,8 C 15,8 C 16,1 km/h (3 Bft) 97,87 %
15.07.2016 18:32 15,8 C 76 % 1022,9 hPa 0,0 l/m 10,4 km/h (2 Bft) SW 234 0 min 0,000 mm 0,0 UV-I 128 W/m 11,6 C 13,8 C 16,1 km/h (3 Bft) 100,00 %
15.07.2016 18:34 15,8 C 76 % 1022,9 hPa 0,0 l/m 9,9 km/h (2 Bft) W-SW 245 0 min 0,000 mm 0,0 UV-I 122 W/m 11,6 C 14,0 C 19,3 km/h (3 Bft) 100,00 %
15.07.2016 18:36 15,8 C 76 % 1022,8 hPa 0,0 l/m 9,7 km/h (2 Bft) W-SW 249 0 min 0,000 mm 0,0 UV-I 115 W/m 11,6 C 14,1 C 16,1 km/h (3 Bft) 100,00 %
15.07.2016 18:38 15,8 C 77 % 1022,9 hPa 0,0 l/m 8,8 km/h (2 Bft) SW 233 0 min 0,000 mm 0,0 UV-I 111 W/m 11,8 C 14,5 C 14,5 km/h (3 Bft) 100,00 %
15.07.2016 18:40 15,8 C 76 % 1022,9 hPa 0,0 l/m 9,5 km/h (2 Bft) W-SW 242 0 min 0,000 mm 0,0 UV-I 113 W/m 11,6 C 14,2 C 12,9 km/h (3 Bft) 98,00 %
15.07.2016 18:42 15,8 C 76 % 1022,9 hPa 0,0 l/m 8,2 km/h (2 Bft) W-SW 242 0 min 0,000 mm 0,0 UV-I 113 W/m 11,6 C 14,8 C 12,9 km/h (3 Bft) 100,00 %
15.07.2016 18:44 15,8 C 77 % 1022,9 hPa 0,0 l/m 5,3 km/h (1 Bft) W 267 0 min 0,000 mm 0,0 UV-I 117 W/m 11,8 C 15,8 C 9,7 km/h (2 Bft) 100,00 %
15.07.2016 18:46 15,8 C 77 % 1022,9 hPa 0,0 l/m 6,5 km/h (2 Bft) W-SW 249 0 min 0,000 mm 0,0 UV-I 116 W/m 11,8 C 15,8 C 11,3 km/h (2 Bft) 95,74 %
15.07.2016 18:48 15,8 C 77 % 1022,9 hPa 0,0 l/m 8,6 km/h (2 Bft) W-SW 248 0 min 0,000 mm 0,0 UV-I 110 W/m 11,8 C 14,6 C 12,9 km/h (3 Bft) 100,00 %
15.07.2016 18:50 15,9 C 76 % 1023,0 hPa 0,0 l/m 7,5 km/h (2 Bft) SW 225 0 min 0,000 mm 0,0 UV-I 97 W/m 11,7 C 15,3 C 11,3 km/h (2 Bft) 97,37 %
15.07.2016 18:52 15,8 C 77 % 1023,0 hPa 0,0 l/m 5,6 km/h (1 Bft) W-SW 240 0 min 0,000 mm 0,0 UV-I 90 W/m 11,8 C 15,8 C 9,7 km/h (2 Bft) 100,00 %
15.07.2016 18:54 15,9 C 77 % 1022,9 hPa 0,0 l/m 6,9 km/h (2 Bft) W-SW 250 0 min 0,000 mm 0,0 UV-I 90 W/m 11,9 C 15,6 C 16,1 km/h (3 Bft) 97,87 %
15.07.2016 18:56 15,9 C 77 % 1022,9 hPa 0,0 l/m 9,3 km/h (2 Bft) W 267 0 min 0,000 mm 0,0 UV-I 88 W/m 11,9 C 14,4 C 12,9 km/h (3 Bft) 98,00 %
15.07.2016 18:58 15,9 C 77 % 1023,0 hPa 0,0 l/m 7,7 km/h (2 Bft) W-SW 253 0 min 0,000 mm 0,0 UV-I 88 W/m 11,9 C 15,2 C 12,9 km/h (3 Bft) 95,74 %
15.07.2016 19:00 15,9 C 78 % 1023,0 hPa 0,0 l/m 11,0 km/h (2 Bft) W-SW 256 0 min 0,076 mm 0,0 UV-I 84 W/m 12,1 C 13,7 C 14,5 km/h (3 Bft) 100,00 %
15.07.2016 19:02 15,9 C 77 % 1023,0 hPa 0,0 l/m 10,0 km/h (2 Bft) W-SW 240 0 min 0,000 mm 0,0 UV-I 78 W/m 11,9 C 14,1 C 19,3 km/h (3 Bft) 97,87 %
15.07.2016 19:04 15,9 C 77 % 1023,0 hPa 0,0 l/m 11,9 km/h (2 Bft) SW 216 0 min 0,000 mm 0,0 UV-I 74 W/m 11,9 C 13,3 C 16,1 km/h (3 Bft) 100,00 %
15.07.2016 19:06 15,9 C 77 % 1023,0 hPa 0,0 l/m 8,5 km/h (2 Bft) SW 217 0 min 0,000 mm 0,0 UV-I 70 W/m 11,9 C 14,8 C 14,5 km/h (3 Bft) 97,87 %
15.07.2016 19:08 15,9 C 78 % 1023,0 hPa 0,0 l/m 8,5 km/h (2 Bft) W-SW 247 0 min 0,000 mm 0,0 UV-I 67 W/m 12,1 C 14,8 C 12,9 km/h (3 Bft) 98,00 %
15.07.2016 19:10 15,8 C 77 % 1023,0 hPa 0,0 l/m 7,3 km/h (2 Bft) W 262 0 min 0,000 mm 0,0 UV-I 63 W/m 11,8 C 15,3 C 12,9 km/h (3 Bft) 100,00 %
15.07.2016 19:12 15,8 C 77 % 1023,1 hPa 0,0 l/m 7,9 km/h (2 Bft) SW 229 0 min 0,000 mm 0,0 UV-I 60 W/m 11,8 C 15,0 C 11,3 km/h (2 Bft) 100,00 %
15.07.2016 19:14 15,8 C 77 % 1023,1 hPa 0,0 l/m 9,0 km/h (2 Bft) SW 223 0 min 0,000 mm 0,0 UV-I 55 W/m 11,8 C 14,5 C 14,5 km/h (3 Bft) 100,00 %
15.07.2016 19:16 15,8 C 77 % 1023,1 hPa 0,0 l/m 8,0 km/h (2 Bft) SW 234 0 min 0,000 mm 0,0 UV-I 51 W/m 11,8 C 14,9 C 14,5 km/h (3 Bft) 100,00 %
15.07.2016 19:18 15,8 C 78 % 1023,1 hPa 0,0 l/m 7,5 km/h (2 Bft) SW 225 0 min 0,000 mm 0,0 UV-I 47 W/m 12,0 C 15,2 C 9,7 km/h (2 Bft) 95,74 %
15.07.2016 19:20 15,7 C 79 % 1023,1 hPa 0,0 l/m 9,8 km/h (2 Bft) W-SW 244 0 min 0,000 mm 0,0 UV-I 46 W/m 12,1 C 14,0 C 16,1 km/h (3 Bft) 97,87 %
15.07.2016 19:22 15,7 C 79 % 1023,1 hPa 0,0 l/m 9,6 km/h (2 Bft) W-SW 240 0 min 0,000 mm 0,0 UV-I 46 W/m 12,1 C 14,1 C 14,5 km/h (3 Bft) 97,87 %
15.07.2016 19:24 15,7 C 79 % 1023,0 hPa 0,0 l/m 9,4 km/h (2 Bft) SW 230 0 min 0,000 mm 0,0 UV-I 46 W/m 12,1 C 14,2 C 16,1 km/h (3 Bft) 96,00 %
15.07.2016 19:26 15,6 C 79 % 1023,0 hPa 0,0 l/m 7,4 km/h (2 Bft) SW 221 0 min 0,000 mm 0,0 UV-I 46 W/m 12,0 C 15,1 C 11,3 km/h (2 Bft) 94,00 %
15.07.2016 19:28 15,6 C 80 % 1023,0 hPa 0,0 l/m 7,8 km/h (2 Bft) S-SW 203 0 min 0,000 mm 0,0 UV-I 46 W/m 12,2 C 14,8 C 12,9 km/h (3 Bft) 97,87 %
15.07.2016 19:30 15,6 C 80 % 1023,0 hPa 0,0 l/m 10,1 km/h (2 Bft) S-SW 211 0 min 0,000 mm 0,0 UV-I 46 W/m 12,2 C 13,7 C 14,5 km/h (3 Bft) 95,74 %
15.07.2016 19:32 15,5 C 81 % 1022,9 hPa 0,0 l/m 8,4 km/h (2 Bft) W-SW 245 0 min 0,000 mm 0,0 UV-I 47 W/m 12,3 C 14,4 C 12,9 km/h (3 Bft) 97,87 %
15.07.2016 19:34 15,4 C 81 % 1023,0 hPa 0,0 l/m 7,8 km/h (2 Bft) SW 225 0 min 0,000 mm 0,0 UV-I 47 W/m 12,2 C 14,6 C 12,9 km/h (3 Bft) 97,87 %
15.07.2016 19:36 15,4 C 81 % 1023,0 hPa 0,0 l/m 10,2 km/h (2 Bft) SW 232 0 min 0,000 mm 0,0 UV-I 49 W/m 12,2 C 13,5 C 14,5 km/h (3 Bft) 93,62 %
15.07.2016 19:38 15,4 C 82 % 1023,0 hPa 0,0 l/m 6,2 km/h (2 Bft) W-SW 242 0 min 0,000 mm 0,0 UV-I 53 W/m 12,3 C 15,4 C 12,9 km/h (3 Bft) 96,15 %
15.07.2016 19:40 15,3 C 82 % 1023,1 hPa 0,0 l/m 8,5 km/h (2 Bft) SW 215 0 min 0,000 mm 0,0 UV-I 55 W/m 12,2 C 14,2 C 12,9 km/h (3 Bft) 96,77 %
15.07.2016 19:42 15,3 C 82 % 1023,1 hPa 0,0 l/m 9,5 km/h (2 Bft) SW 234 0 min 0,000 mm 0,0 UV-I 58 W/m 12,2 C 13,7 C 12,9 km/h (3 Bft) 95,74 %
15.07.2016 19:44 15,3 C 82 % 1023,1 hPa 0,0 l/m 9,6 km/h (2 Bft) S-SW 198 0 min 0,000 mm 0,0 UV-I 63 W/m 12,2 C 13,6 C 14,5 km/h (3 Bft) 95,74 %
15.07.2016 19:46 15,3 C 83 % 1023,1 hPa 0,0 l/m 11,1 km/h (2 Bft) SW 214 0 min 0,000 mm 0,0 UV-I 66 W/m 12,4 C 13,0 C 16,1 km/h (3 Bft) 91,49 %
15.07.2016 19:48 15,3 C 82 % 1023,1 hPa 0,0 l/m 10,1 km/h (2 Bft) S-SW 213 0 min 0,000 mm 0,0 UV-I 63 W/m 12,2 C 13,4 C 16,1 km/h (3 Bft) 97,87 %
15.07.2016 19:50 15,2 C 83 % 1023,1 hPa 0,0 l/m 11,6 km/h (2 Bft) W-SW 244 0 min 0,000 mm 0,0 UV-I 57 W/m 12,3 C 12,7 C 17,7 km/h (3 Bft) 97,87 %
15.07.2016 19:52 15,2 C 82 % 1023,2 hPa 0,0 l/m 13,8 km/h (3 Bft) S 190 0 min 0,000 mm 0,0 UV-I 52 W/m 12,1 C 11,8 C 20,9 km/h (4 Bft) 100,00 %
15.07.2016 19:54 15,2 C 82 % 1023,2 hPa 0,0 l/m 12,2 km/h (2 Bft) W-SW 240 0 min 0,000 mm 0,0 UV-I 47 W/m 12,1 C 12,4 C 17,7 km/h (3 Bft) 97,87 %
15.07.2016 19:56 15,1 C 82 % 1023,2 hPa 0,0 l/m 10,6 km/h (2 Bft) S 170 0 min 0,000 mm 0,0 UV-I 46 W/m 12,0 C 13,0 C 17,7 km/h (3 Bft) 100,00 %
15.07.2016 19:58 15,1 C 82 % 1023,2 hPa 0,0 l/m 10,6 km/h (2 Bft) SW 223 0 min 0,000 mm 0,0 UV-I 44 W/m 12,0 C 13,0 C 17,7 km/h (3 Bft) 97,92 %
15.07.2016 20:00 15,1 C 82 % 1023,2 hPa 0,0 l/m 10,5 km/h (2 Bft) SW 221 0 min 0,000 mm 0,0 UV-I 41 W/m 12,0 C 13,0 C 19,3 km/h (3 Bft) 97,87 %
15.07.2016 20:02 15,1 C 82 % 1023,2 hPa 0,0 l/m 10,3 km/h (2 Bft) SW 232 0 min 0,051 mm 0,0 UV-I 43 W/m 12,0 C 13,1 C 16,1 km/h (3 Bft) 97,87 %
15.07.2016 20:04 15,1 C 82 % 1023,2 hPa 0,0 l/m 12,7 km/h (3 Bft) W-SW 248 0 min 0,000 mm 0,0 UV-I 59 W/m 12,0 C 12,1 C 19,3 km/h (3 Bft) 100,00 %
15.07.2016 20:06 15,1 C 82 % 1023,3 hPa 0,0 l/m 11,9 km/h (2 Bft) SW 224 0 min 0,000 mm 0,0 UV-I 54 W/m 12,0 C 12,4 C 17,7 km/h (3 Bft) 100,00 %
15.07.2016 20:08 15,1 C 82 % 1023,2 hPa 0,0 l/m 8,6 km/h (2 Bft) SW 227 0 min 0,000 mm 0,0 UV-I 53 W/m 12,0 C 13,9 C 12,9 km/h (3 Bft) 100,00 %
15.07.2016 20:10 15,1 C 81 % 1023,3 hPa 0,0 l/m 10,4 km/h (2 Bft) S-SW 211 0 min 0,000 mm 0,0 UV-I 50 W/m 11,9 C 13,1 C 17,7 km/h (3 Bft) 100,00 %
15.07.2016 20:12 15,1 C 81 % 1023,3 hPa 0,0 l/m 8,0 km/h (2 Bft) W-SW 254 0 min 0,000 mm 0,0 UV-I 45 W/m 11,9 C 14,2 C 16,1 km/h (3 Bft) 100,00 %
15.07.2016 20:14 15,1 C 81 % 1023,3 hPa 0,0 l/m 8,9 km/h (2 Bft) W-SW 244 0 min 0,000 mm 0,0 UV-I 39 W/m 11,9 C 13,7 C 14,5 km/h (3 Bft) 100,00 %
15.07.2016 20:16 15,1 C 81 % 1023,3 hPa 0,0 l/m 7,7 km/h (2 Bft) SW 227 0 min 0,000 mm 0,0 UV-I 30 W/m 11,9 C 14,4 C 12,9 km/h (3 Bft) 100,00 %
15.07.2016 20:18 15,1 C 82 % 1023,3 hPa 0,0 l/m 8,1 km/h (2 Bft) SW 231 0 min 0,000 mm 0,0 UV-I 29 W/m 12,0 C 14,2 C 12,9 km/h (3 Bft) 100,00 %
15.07.2016 20:20 15,0 C 82 % 1023,3 hPa 0,0 l/m 5,5 km/h (1 Bft) SW 234 0 min 0,000 mm 0,0 UV-I 30 W/m 12,0 C 15,0 C 11,3 km/h (2 Bft) 100,00 %
15.07.2016 20:22 15,0 C 82 % 1023,3 hPa 0,0 l/m 6,5 km/h (2 Bft) SW 225 0 min 0,000 mm 0,0 UV-I 30 W/m 12,0 C 15,0 C 11,3 km/h (2 Bft) 100,00 %
15.07.2016 20:24 14,9 C 82 % 1023,3 hPa 0,0 l/m 7,2 km/h (2 Bft) S 186 0 min 0,000 mm 0,0 UV-I 27 W/m 11,9 C 14,4 C 11,3 km/h (2 Bft) 100,00 %
15.07.2016 20:26 14,9 C 82 % 1023,3 hPa 0,0 l/m 6,9 km/h (2 Bft) SW 235 0 min 0,000 mm 0,0 UV-I 25 W/m 11,9 C 14,6 C 12,9 km/h (3 Bft) 100,00 %
15.07.2016 20:28 14,8 C 82 % 1023,3 hPa 0,0 l/m 8,1 km/h (2 Bft) S-SW 192 0 min 0,000 mm 0,0 UV-I 23 W/m 11,8 C 13,8 C 12,9 km/h (3 Bft) 97,87 %
15.07.2016 20:30 14,8 C 82 % 1023,3 hPa 0,0 l/m 10,8 km/h (2 Bft) SW 234 0 min 0,000 mm 0,0 UV-I 22 W/m 11,8 C 12,5 C 16,1 km/h (3 Bft) 100,00 %
15.07.2016 20:33 14,7 C 83 % 1023,3 hPa 0,0 l/m 9,6 km/h (2 Bft) S 191 0 min 0,000 mm 0,0 UV-I 19 W/m 11,8 C 13,0 C 14,5 km/h (3 Bft) 98,59 %
15.07.2016 20:34 14,6 C 83 % 1023,3 hPa 0,0 l/m 8,6 km/h (2 Bft) W-SW 245 0 min 0,000 mm 0,0 UV-I 18 W/m 11,7 C 13,4 C 14,5 km/h (3 Bft) 91,30 %
15.07.2016 20:36 14,5 C 83 % 1023,3 hPa 0,0 l/m 9,0 km/h (2 Bft) W-SW 252 0 min 0,000 mm 0,0 UV-I 18 W/m 11,6 C 13,1 C 14,5 km/h (3 Bft) 100,00 %
15.07.2016 20:38 14,4 C 84 % 1023,3 hPa 0,0 l/m 7,2 km/h (2 Bft) W-SW 249 0 min 0,000 mm 0,0 UV-I 18 W/m 11,7 C 13,9 C 12,9 km/h (3 Bft) 100,00 %
15.07.2016 20:40 14,3 C 84 % 1023,3 hPa 0,0 l/m 8,9 km/h (2 Bft) W-SW 243 0 min 0,000 mm 0,0 UV-I 16 W/m 11,6 C 12,9 C 16,1 km/h (3 Bft) 97,96 %
15.07.2016 20:42 14,3 C 84 % 1023,4 hPa 0,0 l/m 7,5 km/h (2 Bft) W-SW 239 0 min 0,000 mm 0,0 UV-I 13 W/m 11,6 C 13,7 C 14,5 km/h (3 Bft) 97,92 %
15.07.2016 20:44 14,3 C 84 % 1023,4 hPa 0,0 l/m 8,4 km/h (2 Bft) W 261 0 min 0,000 mm 0,0 UV-I 12 W/m 11,6 C 13,1 C 14,5 km/h (3 Bft) 100,00 %
15.07.2016 20:46 14,2 C 84 % 1023,4 hPa 0,0 l/m 6,8 km/h (2 Bft) W-SW 244 2 min 0,000 mm 0,0 UV-I 12 W/m 11,5 C 14,0 C 11,3 km/h (2 Bft) 100,00 %
15.07.2016 20:48 14,2 C 84 % 1023,5 hPa 0,0 l/m 7,6 km/h (2 Bft) W-SW 257 0 min 0,000 mm 0,0 UV-I 11 W/m 11,5 C 13,5 C 11,3 km/h (2 Bft) 100,00 %
15.07.2016 20:50 14,2 C 84 % 1023,6 hPa 0,0 l/m 7,9 km/h (2 Bft) W 265 0 min 0,000 mm 0,0 UV-I 11 W/m 11,5 C 13,3 C 11,3 km/h (2 Bft) 98,00 %
15.07.2016 20:52 14,2 C 85 % 1023,5 hPa 0,0 l/m 4,9 km/h (1 Bft) W-SW 252 0 min 0,000 mm 0,0 UV-I 9 W/m 11,7 C 14,2 C 8,0 km/h (2 Bft) 98,00 %
15.07.2016 20:54 14,1 C 85 % 1023,5 hPa 0,0 l/m 7,6 km/h (2 Bft) W-SW 250 0 min 0,000 mm 0,0 UV-I 8 W/m 11,6 C 13,4 C 12,9 km/h (3 Bft) 97,87 %
15.07.2016 20:56 14,1 C 85 % 1023,6 hPa 0,0 l/m 10,0 km/h (2 Bft) W-SW 240 0 min 0,000 mm 0,0 UV-I 7 W/m 11,6 C 12,1 C 14,5 km/h (3 Bft) 97,87 %
15.07.2016 20:58 14,1 C 85 % 1023,6 hPa 0,0 l/m 8,0 km/h (2 Bft) S-SW 210 0 min 0,000 mm 0,0 UV-I 6 W/m 11,6 C 13,2 C 12,9 km/h (3 Bft) 100,00 %
15.07.2016 21:00 14,1 C 85 % 1023,5 hPa 0,0 l/m 7,9 km/h (2 Bft) W-SW 256 0 min 0,000 mm 0,0 UV-I 5 W/m 11,6 C 13,2 C 12,9 km/h (3 Bft) 100,00 %
15.07.2016 21:02 14,1 C 85 % 1023,5 hPa 0,0 l/m 7,3 km/h (2 Bft) SW 234 0 min 0,025 mm 0,0 UV-I 1 W/m 11,6 C 13,6 C 12,9 km/h (3 Bft) 97,37 %
15.07.2016 21:04 14,1 C 85 % 1023,5 hPa 0,0 l/m 7,3 km/h (2 Bft) S-SW 212 0 min 0,000 mm 0,0 UV-I 0 W/m 11,6 C 13,6 C 12,9 km/h (3 Bft) 100,00 %
15.07.2016 21:06 14,0 C 85 % 1023,6 hPa 0,0 l/m 6,6 km/h (2 Bft) W-SW 246 0 min 0,000 mm 0,0 UV-I 0 W/m 11,5 C 13,9 C 11,3 km/h (2 Bft) 100,00 %
15.07.2016 21:08 13,9 C 86 % 1023,5 hPa 0,0 l/m 6,5 km/h (2 Bft) W-SW 257 0 min 0,000 mm 0,0 UV-I 0 W/m 11,6 C 13,9 C 9,7 km/h (2 Bft) 100,00 %
15.07.2016 21:10 13,9 C 86 % 1023,6 hPa 0,0 l/m 7,9 km/h (2 Bft) W-SW 246 0 min 0,000 mm 0,0 UV-I 0 W/m 11,6 C 13,0 C 11,3 km/h (2 Bft) 100,00 %
15.07.2016 21:12 13,9 C 86 % 1023,6 hPa 0,0 l/m 9,2 km/h (2 Bft) W 269 0 min 0,000 mm 0,0 UV-I 0 W/m 11,6 C 12,3 C 12,9 km/h (3 Bft) 97,44 %
15.07.2016 21:14 13,8 C 85 % 1023,6 hPa 0,0 l/m 7,5 km/h (2 Bft) W-SW 248 0 min 0,000 mm 0,0 UV-I 0 W/m 11,3 C 13,1 C 11,3 km/h (2 Bft) 100,00 %
15.07.2016 21:16 13,8 C 85 % 1023,5 hPa 0,0 l/m 8,8 km/h (2 Bft) W-SW 250 0 min 0,000 mm 0,0 UV-I 0 W/m 11,3 C 12,4 C 12,9 km/h (3 Bft) 95,74 %
15.07.2016 21:18 13,8 C 85 % 1023,5 hPa 0,0 l/m 7,3 km/h (2 Bft) W 269 0 min 0,000 mm 0,0 UV-I 0 W/m 11,3 C 13,3 C 11,3 km/h (2 Bft) 93,62 %
15.07.2016 21:20 13,8 C 85 % 1023,5 hPa 0,0 l/m 5,4 km/h (1 Bft) W-SW 252 0 min 0,000 mm 0,0 UV-I 0 W/m 11,3 C 13,8 C 11,3 km/h (2 Bft) 97,87 %
15.07.2016 21:22 13,8 C 85 % 1023,6 hPa 0,0 l/m 4,1 km/h (1 Bft) W-NW 285 0 min 0,000 mm 0,0 UV-I 0 W/m 11,3 C 13,8 C 6,4 km/h (2 Bft) 98,00 %
15.07.2016 21:24 13,7 C 86 % 1023,5 hPa 0,0 l/m 4,1 km/h (1 Bft) W-NW 286 0 min 0,000 mm 0,0 UV-I 0 W/m 11,4 C 13,7 C 9,7 km/h (2 Bft) 97,87 %
15.07.2016 21:26 13,6 C 85 % 1023,5 hPa 0,0 l/m 3,5 km/h (1 Bft) W 264 0 min 0,000 mm 0,0 UV-I 0 W/m 11,1 C 13,6 C 9,7 km/h (2 Bft) 97,87 %
15.07.2016 21:28 13,6 C 86 % 1023,5 hPa 0,0 l/m 3,2 km/h (1 Bft) W 268 0 min 0,000 mm 0,0 UV-I 0 W/m 11,3 C 13,6 C 6,4 km/h (2 Bft) 93,62 %
15.07.2016 21:30 13,6 C 85 % 1023,5 hPa 0,0 l/m 4,4 km/h (1 Bft) W-SW 240 0 min 0,000 mm 0,0 UV-I 0 W/m 11,1 C 13,6 C 12,9 km/h (3 Bft) 95,74 %
15.07.2016 21:33 13,6 C 84 % 1023,7 hPa 0,0 l/m 4,7 km/h (1 Bft) W-NW 292 0 min 0,000 mm 0,0 UV-I 0 W/m 10,9 C 13,6 C 9,7 km/h (2 Bft) 95,71 %
15.07.2016 21:34 13,6 C 84 % 1023,7 hPa 0,0 l/m 3,3 km/h (1 Bft) W 263 0 min 0,000 mm 0,0 UV-I 0 W/m 10,9 C 13,6 C 4,8 km/h (1 Bft) 95,83 %
15.07.2016 21:36 13,6 C 83 % 1023,7 hPa 0,0 l/m 4,8 km/h (1 Bft) W 265 0 min 0,000 mm 0,0 UV-I 0 W/m 10,8 C 13,6 C 9,7 km/h (2 Bft) 93,75 %
15.07.2016 21:38 13,5 C 83 % 1023,8 hPa 0,0 l/m 5,0 km/h (1 Bft) W-SW 248 0 min 0,000 mm 0,0 UV-I 0 W/m 10,7 C 13,5 C 9,7 km/h (2 Bft) 97,87 %
15.07.2016 21:40 13,6 C 82 % 1023,8 hPa 0,0 l/m 4,6 km/h (1 Bft) W-SW 258 0 min 0,000 mm 0,0 UV-I 0 W/m 10,6 C 13,6 C 11,3 km/h (2 Bft) 97,87 %
15.07.2016 21:42 13,6 C 81 % 1023,8 hPa 0,0 l/m 4,1 km/h (1 Bft) W-SW 257 0 min 0,000 mm 0,0 UV-I 0 W/m 10,4 C 13,6 C 14,5 km/h (3 Bft) 97,37 %
15.07.2016 21:44 13,6 C 80 % 1023,8 hPa 0,0 l/m 6,5 km/h (2 Bft) W 272 0 min 0,000 mm 0,0 UV-I 0 W/m 10,2 C 13,6 C 12,9 km/h (3 Bft) 97,87 %
15.07.2016 21:46 13,6 C 80 % 1023,8 hPa 0,0 l/m 4,8 km/h (1 Bft) W 259 0 min 0,000 mm 0,0 UV-I 0 W/m 10,2 C 13,6 C 6,4 km/h (2 Bft) 95,83 %
15.07.2016 21:48 13,7 C 79 % 1023,8 hPa 0,0 l/m 7,0 km/h (2 Bft) W-SW 251 0 min 0,000 mm 0,0 UV-I 0 W/m 10,1 C 13,3 C 12,9 km/h (3 Bft) 95,74 %
15.07.2016 21:50 13,7 C 78 % 1023,8 hPa 0,0 l/m 6,0 km/h (2 Bft) W-SW 249 0 min 0,000 mm 0,0 UV-I 0 W/m 9,9 C 13,7 C 11,3 km/h (2 Bft) 97,87 %
15.07.2016 21:52 13,8 C 78 % 1023,9 hPa 0,0 l/m 7,6 km/h (2 Bft) W-SW 240 0 min 0,000 mm 0,0 UV-I 0 W/m 10,0 C 13,1 C 14,5 km/h (3 Bft) 100,00 %
15.07.2016 21:54 13,8 C 78 % 1023,9 hPa 0,0 l/m 7,1 km/h (2 Bft) W-SW 238 0 min 0,000 mm 0,0 UV-I 0 W/m 10,0 C 13,4 C 11,3 km/h (2 Bft) 100,00 %
15.07.2016 21:56 13,8 C 78 % 1023,9 hPa 0,0 l/m 6,5 km/h (2 Bft) W-SW 247 0 min 0,000 mm 0,0 UV-I 0 W/m 10,0 C 13,8 C 11,3 km/h (2 Bft) 96,08 %
15.07.2016 21:58 13,8 C 78 % 1023,9 hPa 0,0 l/m 6,1 km/h (2 Bft) W-SW 248 0 min 0,000 mm 0,0 UV-I 0 W/m 10,0 C 13,8 C 9,7 km/h (2 Bft) 97,44 %
15.07.2016 22:00 13,8 C 79 % 1023,9 hPa 0,0 l/m 6,4 km/h (2 Bft) W-SW 241 0 min 0,000 mm 0,0 UV-I 0 W/m 10,2 C 13,8 C 9,7 km/h (2 Bft) 97,87 %
15.07.2016 22:02 13,8 C 79 % 1023,9 hPa 0,0 l/m 6,2 km/h (2 Bft) W-SW 245 0 min 0,025 mm 0,0 UV-I 0 W/m 10,2 C 13,8 C 9,7 km/h (2 Bft) 100,00 %
15.07.2016 22:04 13,8 C 80 % 1023,9 hPa 0,0 l/m 8,3 km/h (2 Bft) W-SW 241 0 min 0,000 mm 0,0 UV-I 0 W/m 10,4 C 12,7 C 12,9 km/h (3 Bft) 100,00 %
15.07.2016 22:06 13,8 C 80 % 1023,9 hPa 0,0 l/m 6,1 km/h (2 Bft) W-SW 248 0 min 0,000 mm 0,0 UV-I 0 W/m 10,4 C 13,8 C 8,0 km/h (2 Bft) 100,00 %
15.07.2016 22:08 13,8 C 82 % 1024,0 hPa 0,0 l/m 6,0 km/h (2 Bft) W 269 0 min 0,000 mm 0,0 UV-I 0 W/m 10,8 C 13,8 C 9,7 km/h (2 Bft) 100,00 %
15.07.2016 22:10 13,7 C 82 % 1024,0 hPa 0,0 l/m 7,8 km/h (2 Bft) W-SW 238 0 min 0,000 mm 0,0 UV-I 0 W/m 10,7 C 12,9 C 12,9 km/h (3 Bft) 100,00 %
15.07.2016 22:12 13,6 C 82 % 1024,1 hPa 0,0 l/m 6,9 km/h (2 Bft) W-SW 248 0 min 0,000 mm 0,0 UV-I 0 W/m 10,6 C 13,3 C 11,3 km/h (2 Bft) 100,00 %
15.07.2016 22:14 13,6 C 83 % 1024,0 hPa 0,0 l/m 6,2 km/h (2 Bft) SW 234 0 min 0,000 mm 0,0 UV-I 0 W/m 10,8 C 13,6 C 8,0 km/h (2 Bft) 100,00 %
15.07.2016 22:16 13,5 C 83 % 1024,0 hPa 0,0 l/m 6,5 km/h (2 Bft) W-SW 239 0 min 0,000 mm 0,0 UV-I 0 W/m 10,7 C 13,5 C 9,7 km/h (2 Bft) 100,00 %
15.07.2016 22:18 13,4 C 83 % 1024,1 hPa 0,0 l/m 7,0 km/h (2 Bft) W-SW 245 0 min 0,000 mm 0,0 UV-I 0 W/m 10,6 C 13,0 C 11,3 km/h (2 Bft) 97,87 %
15.07.2016 22:20 13,3 C 83 % 1024,1 hPa 0,0 l/m 7,7 km/h (2 Bft) W 260 0 min 0,000 mm 0,0 UV-I 0 W/m 10,5 C 12,5 C 11,3 km/h (2 Bft) 100,00 %
15.07.2016 22:22 13,3 C 83 % 1024,1 hPa 0,0 l/m 7,8 km/h (2 Bft) W-SW 248 0 min 0,000 mm 0,0 UV-I 0 W/m 10,5 C 12,4 C 11,3 km/h (2 Bft) 97,87 %
15.07.2016 22:24 13,2 C 83 % 1024,1 hPa 0,0 l/m 9,2 km/h (2 Bft) SW 225 0 min 0,000 mm 0,0 UV-I 0 W/m 10,4 C 11,5 C 12,9 km/h (3 Bft) 100,00 %
15.07.2016 22:26 13,2 C 83 % 1024,1 hPa 0,0 l/m 7,5 km/h (2 Bft) W-SW 248 0 min 0,000 mm 0,0 UV-I 0 W/m 10,4 C 12,5 C 11,3 km/h (2 Bft) 100,00 %
15.07.2016 22:28 13,1 C 84 % 1024,1 hPa 0,0 l/m 7,1 km/h (2 Bft) SW 236 0 min 0,000 mm 0,0 UV-I 0 W/m 10,5 C 12,7 C 9,7 km/h (2 Bft) 100,00 %
15.07.2016 22:30 13,0 C 85 % 1024,2 hPa 0,0 l/m 6,7 km/h (2 Bft) SW 221 0 min 0,000 mm 0,0 UV-I 0 W/m 10,5 C 12,8 C 9,7 km/h (2 Bft) 97,37 %
15.07.2016 22:33 12,9 C 85 % 1024,2 hPa 0,0 l/m 6,7 km/h (2 Bft) S-SW 211 0 min 0,000 mm 0,0 UV-I 0 W/m 10,4 C 12,7 C 11,3 km/h (2 Bft) 100,00 %
15.07.2016 22:34 12,9 C 86 % 1024,2 hPa 0,0 l/m 6,5 km/h (2 Bft) SW 223 0 min 0,000 mm 0,0 UV-I 0 W/m 10,6 C 12,9 C 8,0 km/h (2 Bft) 100,00 %
15.07.2016 22:36 12,8 C 86 % 1024,2 hPa 0,0 l/m 5,4 km/h (1 Bft) SW 222 0 min 0,000 mm 0,0 UV-I 0 W/m 10,5 C 12,8 C 9,7 km/h (2 Bft) 98,00 %
15.07.2016 22:38 12,8 C 86 % 1024,3 hPa 0,0 l/m 4,6 km/h (1 Bft) SW 214 0 min 0,000 mm 0,0 UV-I 0 W/m 10,5 C 12,8 C 6,4 km/h (2 Bft) 100,00 %
15.07.2016 22:40 12,8 C 87 % 1024,3 hPa 0,0 l/m 7,0 km/h (2 Bft) SW 218 0 min 0,000 mm 0,0 UV-I 0 W/m 10,7 C 12,4 C 9,7 km/h (2 Bft) 97,87 %
15.07.2016 22:42 12,8 C 87 % 1024,2 hPa 0,0 l/m 6,8 km/h (2 Bft) W-SW 237 0 min 0,000 mm 0,0 UV-I 0 W/m 10,7 C 12,6 C 11,3 km/h (2 Bft) 100,00 %
15.07.2016 22:44 12,8 C 87 % 1024,3 hPa 0,0 l/m 7,8 km/h (2 Bft) SW 223 0 min 0,000 mm 0,0 UV-I 0 W/m 10,7 C 11,9 C 12,9 km/h (3 Bft) 97,87 %
15.07.2016 22:46 12,8 C 87 % 1024,3 hPa 0,0 l/m 8,0 km/h (2 Bft) W-SW 240 0 min 0,000 mm 0,0 UV-I 0 W/m 10,7 C 11,8 C 12,9 km/h (3 Bft) 97,87 %
15.07.2016 22:48 12,7 C 87 % 1024,3 hPa 0,0 l/m 7,0 km/h (2 Bft) SW 227 0 min 0,000 mm 0,0 UV-I 0 W/m 10,6 C 12,3 C 11,3 km/h (2 Bft) 100,00 %
15.07.2016 22:50 12,8 C 87 % 1024,3 hPa 0,0 l/m 8,4 km/h (2 Bft) W-SW 257 0 min 0,000 mm 0,0 UV-I 0 W/m 10,7 C 11,6 C 11,3 km/h (2 Bft) 100,00 %
15.07.2016 22:52 12,8 C 87 % 1024,3 hPa 0,0 l/m 8,4 km/h (2 Bft) SW 236 0 min 0,000 mm 0,0 UV-I 0 W/m 10,7 C 11,6 C 11,3 km/h (2 Bft) 100,00 %
15.07.2016 22:54 12,8 C 87 % 1024,3 hPa 0,0 l/m 8,6 km/h (2 Bft) SW 227 0 min 0,000 mm 0,0 UV-I 0 W/m 10,7 C 11,4 C 12,9 km/h (3 Bft) 97,87 %
15.07.2016 22:56 12,8 C 87 % 1024,3 hPa 0,0 l/m 8,8 km/h (2 Bft) SW 224 0 min 0,000 mm 0,0 UV-I 0 W/m 10,7 C 11,3 C 12,9 km/h (3 Bft) 100,00 %
15.07.2016 22:58 12,8 C 88 % 1024,3 hPa 0,0 l/m 8,8 km/h (2 Bft) SW 235 0 min 0,000 mm 0,0 UV-I 0 W/m 10,9 C 11,3 C 12,9 km/h (3 Bft) 100,00 %
15.07.2016 23:00 12,8 C 88 % 1024,3 hPa 0,0 l/m 8,4 km/h (2 Bft) SW 227 0 min 0,000 mm 0,0 UV-I 0 W/m 10,9 C 11,6 C 12,9 km/h (3 Bft) 97,87 %
15.07.2016 23:02 12,8 C 88 % 1024,3 hPa 0,0 l/m 8,7 km/h (2 Bft) SW 225 0 min 0,026 mm 0,0 UV-I 0 W/m 10,9 C 11,4 C 12,9 km/h (3 Bft) 100,00 %
15.07.2016 23:04 12,8 C 88 % 1024,4 hPa 0,0 l/m 8,9 km/h (2 Bft) SW 236 0 min 0,000 mm 0,0 UV-I 0 W/m 10,9 C 11,3 C 12,9 km/h (3 Bft) 100,00 %
15.07.2016 23:06 12,8 C 88 % 1024,4 hPa 0,0 l/m 8,1 km/h (2 Bft) SW 223 0 min 0,000 mm 0,0 UV-I 0 W/m 10,9 C 11,7 C 12,9 km/h (3 Bft) 100,00 %
15.07.2016 23:08 12,8 C 88 % 1024,4 hPa 0,0 l/m 7,9 km/h (2 Bft) SW 216 0 min 0,000 mm 0,0 UV-I 0 W/m 10,9 C 11,9 C 11,3 km/h (2 Bft) 100,00 %
15.07.2016 23:10 12,8 C 87 % 1024,4 hPa 0,0 l/m 8,0 km/h (2 Bft) W-SW 255 0 min 0,000 mm 0,0 UV-I 0 W/m 10,7 C 11,8 C 12,9 km/h (3 Bft) 97,87 %
15.07.2016 23:12 12,8 C 87 % 1024,4 hPa 0,0 l/m 6,7 km/h (2 Bft) W-SW 242 0 min 0,000 mm 0,0 UV-I 0 W/m 10,7 C 12,6 C 9,7 km/h (2 Bft) 97,87 %
15.07.2016 23:14 12,9 C 86 % 1024,4 hPa 0,0 l/m 6,8 km/h (2 Bft) W-SW 250 0 min 0,000 mm 0,0 UV-I 0 W/m 10,6 C 12,7 C 12,9 km/h (3 Bft) 100,00 %
15.07.2016 23:16 12,9 C 86 % 1024,4 hPa 0,0 l/m 6,8 km/h (2 Bft) SW 228 0 min 0,000 mm 0,0 UV-I 0 W/m 10,6 C 12,7 C 8,0 km/h (2 Bft) 95,83 %
15.07.2016 23:18 12,9 C 86 % 1024,4 hPa 0,0 l/m 7,1 km/h (2 Bft) W-SW 252 0 min 0,000 mm 0,0 UV-I 0 W/m 10,6 C 12,5 C 11,3 km/h (2 Bft) 100,00 %
15.07.2016 23:20 12,9 C 86 % 1024,3 hPa 0,0 l/m 7,7 km/h (2 Bft) W-SW 248 0 min 0,000 mm 0,0 UV-I 0 W/m 10,6 C 12,1 C 12,9 km/h (3 Bft) 97,87 %
15.07.2016 23:22 13,0 C 85 % 1024,3 hPa 0,0 l/m 8,4 km/h (2 Bft) W-SW 251 0 min 0,000 mm 0,0 UV-I 0 W/m 10,5 C 11,8 C 16,1 km/h (3 Bft) 97,87 %
15.07.2016 23:24 12,9 C 85 % 1024,3 hPa 0,0 l/m 7,0 km/h (2 Bft) W-SW 257 0 min 0,000 mm 0,0 UV-I 0 W/m 10,4 C 12,5 C 12,9 km/h (3 Bft) 97,87 %
15.07.2016 23:26 12,9 C 85 % 1024,3 hPa 0,0 l/m 8,8 km/h (2 Bft) W-SW 238 0 min 0,000 mm 0,0 UV-I 0 W/m 10,4 C 11,4 C 14,5 km/h (3 Bft) 93,62 %
15.07.2016 23:28 12,9 C 84 % 1024,3 hPa 0,0 l/m 8,1 km/h (2 Bft) W-SW 250 0 min 0,000 mm 0,0 UV-I 0 W/m 10,3 C 11,8 C 11,3 km/h (2 Bft) 95,74 %
15.07.2016 23:30 12,9 C 84 % 1024,3 hPa 0,0 l/m 8,0 km/h (2 Bft) W-SW 240 0 min 0,000 mm 0,0 UV-I 0 W/m 10,3 C 11,9 C 12,9 km/h (3 Bft) 97,87 %
15.07.2016 23:32 12,9 C 84 % 1024,3 hPa 0,0 l/m 7,6 km/h (2 Bft) W-SW 241 0 min 0,000 mm 0,0 UV-I 0 W/m 10,3 C 12,1 C 12,9 km/h (3 Bft) 97,87 %
15.07.2016 23:34 12,9 C 84 % 1024,3 hPa 0,0 l/m 7,7 km/h (2 Bft) W-SW 241 0 min 0,000 mm 0,0 UV-I 0 W/m 10,3 C 12,1 C 11,3 km/h (2 Bft) 94,29 %
15.07.2016 23:36 12,9 C 83 % 1024,2 hPa 0,0 l/m 10,1 km/h (2 Bft) SW 232 0 min 0,000 mm 0,0 UV-I 0 W/m 10,1 C 10,7 C 14,5 km/h (3 Bft) 98,15 %
15.07.2016 23:38 13,0 C 83 % 1024,3 hPa 0,0 l/m 9,3 km/h (2 Bft) SW 217 0 min 0,000 mm 0,0 UV-I 0 W/m 10,2 C 11,3 C 14,5 km/h (3 Bft) 97,87 %
15.07.2016 23:40 12,9 C 83 % 1024,3 hPa 0,0 l/m 9,7 km/h (2 Bft) W-SW 238 0 min 0,000 mm 0,0 UV-I 0 W/m 10,1 C 11,0 C 14,5 km/h (3 Bft) 97,87 %
15.07.2016 23:42 12,9 C 83 % 1024,3 hPa 0,0 l/m 8,8 km/h (2 Bft) W-SW 244 0 min 0,000 mm 0,0 UV-I 0 W/m 10,1 C 11,4 C 14,5 km/h (3 Bft) 97,87 %
15.07.2016 23:44 12,9 C 83 % 1024,3 hPa 0,0 l/m 9,3 km/h (2 Bft) W-SW 256 0 min 0,000 mm 0,0 UV-I 0 W/m 10,1 C 11,2 C 12,9 km/h (3 Bft) 97,87 %
15.07.2016 23:46 12,9 C 83 % 1024,3 hPa 0,0 l/m 8,5 km/h (2 Bft) SW 234 0 min 0,000 mm 0,0 UV-I 0 W/m 10,1 C 11,6 C 12,9 km/h (3 Bft) 95,74 %
15.07.2016 23:48 12,9 C 83 % 1024,2 hPa 0,0 l/m 9,8 km/h (2 Bft) W-SW 238 0 min 0,000 mm 0,0 UV-I 0 W/m 10,1 C 10,9 C 16,1 km/h (3 Bft) 98,00 %
15.07.2016 23:50 12,9 C 83 % 1024,3 hPa 0,0 l/m 10,0 km/h (2 Bft) SW 223 0 min 0,000 mm 0,0 UV-I 0 W/m 10,1 C 10,8 C 14,5 km/h (3 Bft) 98,00 %
15.07.2016 23:52 12,9 C 84 % 1024,3 hPa 0,0 l/m 9,3 km/h (2 Bft) W-SW 240 0 min 0,000 mm 0,0 UV-I 0 W/m 10,3 C 11,2 C 14,5 km/h (3 Bft) 95,74 %
15.07.2016 23:54 12,9 C 84 % 1024,3 hPa 0,0 l/m 12,2 km/h (2 Bft) SW 214 0 min 0,000 mm 0,0 UV-I 0 W/m 10,3 C 9,8 C 19,3 km/h (3 Bft) 100,00 %
15.07.2016 23:56 12,9 C 84 % 1024,2 hPa 0,0 l/m 9,0 km/h (2 Bft) W-SW 250 0 min 0,000 mm 0,0 UV-I 0 W/m 10,3 C 11,3 C 14,5 km/h (3 Bft) 100,00 %
15.07.2016 23:58 12,9 C 83 % 1024,2 hPa 0,0 l/m 8,7 km/h (2 Bft) S-SW 208 0 min 0,000 mm 0,0 UV-I 0 W/m 10,1 C 11,5 C 14,5 km/h (3 Bft) 100,00 %
_ Min-Zeit 05:22 16:48 00:00 - 12:58 - - - - - - 05:22 02:08 12:58 08:02
Minimum _ 10,0 C 64 % 1019,9 hPa - 1,2 km/h (1 Bft) - - - - - - 8,9 C 5,8 C 3,2 km/h (1 Bft) 89,36 %
_ Max-Zeit 16:48 00:02 23:04 00:00 14:18 - - 10:03 11:00 14:16 14:16 15:30 16:42 16:08 00:00
Maximum _ 17,8 C 95 % 1024,4 hPa 0,0 l/m 18,3 km/h
W-SW (3 Bft)
- - 3 min 0,279 mm 6,5 UV-I 1252 W/m 12,4 C 17,3 C 27,4 km/h
W (4 Bft)
100,00 %
Durchschnitt _ 13,8 C 82 % 1022,3 hPa #0,0 l/m 8,5 km/h (2 Bft) W-SW - #4:05 h #2,464 mm 1,9 UV-I 244 W/m 10,7 C 12,4 C 14,5 km/h (3 Bft) 98,37 %